<?xml version="1.0" encoding="UTF-8" standalone="no" ?>
<gpx xmlns="http://www.topografix.com/GPX/1/1" xmlns:xsi="http://www.w3.org/2001/XMLSchema-instance" xsi:schemaLocation="http://www.topografix.com/GPX/1/1 http://www.topografix.com/GPX/1/1/gpx.xsd" version="1.1" creator="VisuGPX - https://www.visugpx.com">
  <metadata>
    <name>mrt hillion</name>
    <desc><![CDATA[départ du parking de la salle palante,rue ollivier provost,prébis,plage de bon abri,sentier cotier la grand bon abri,pont roland, la ville fini,la ville indeloup,hillion]]></desc>
  </metadata>
  <trk>
    <name><![CDATA[mrt hillion_1]]></name>
    <trkseg>
      <trkpt lat="48.51489" lon="-2.6674">
        <ele>24</ele>
        <time>2019-03-01T08:19:20Z</time>
      </trkpt>
      <trkpt lat="48.51514" lon="-2.66758">
        <ele>22</ele>
        <time>2019-03-01T08:19:51Z</time>
      </trkpt>
      <trkpt lat="48.51518" lon="-2.66758">
        <ele>22</ele>
        <time>2019-03-01T08:19:55Z</time>
      </trkpt>
      <trkpt lat="48.51522" lon="-2.66758">
        <ele>22</ele>
        <time>2019-03-01T08:19:58Z</time>
      </trkpt>
      <trkpt lat="48.51525" lon="-2.66758">
        <ele>22</ele>
        <time>2019-03-01T08:20:02Z</time>
      </trkpt>
      <trkpt lat="48.51526" lon="-2.66758">
        <ele>22</ele>
        <time>2019-03-01T08:20:05Z</time>
      </trkpt>
      <trkpt lat="48.5153" lon="-2.66758">
        <ele>22</ele>
        <time>2019-03-01T08:20:09Z</time>
      </trkpt>
      <trkpt lat="48.51533" lon="-2.66758">
        <ele>22</ele>
        <time>2019-03-01T08:20:12Z</time>
      </trkpt>
      <trkpt lat="48.51538" lon="-2.66757">
        <ele>21</ele>
        <time>2019-03-01T08:20:15Z</time>
      </trkpt>
      <trkpt lat="48.51541" lon="-2.66758">
        <ele>18</ele>
        <time>2019-03-01T08:20:18Z</time>
      </trkpt>
      <trkpt lat="48.51545" lon="-2.66757">
        <ele>18</ele>
        <time>2019-03-01T08:20:21Z</time>
      </trkpt>
      <trkpt lat="48.5155" lon="-2.66755">
        <ele>17</ele>
        <time>2019-03-01T08:20:25Z</time>
      </trkpt>
      <trkpt lat="48.51554" lon="-2.66754">
        <ele>16</ele>
        <time>2019-03-01T08:20:28Z</time>
      </trkpt>
      <trkpt lat="48.5156" lon="-2.66754">
        <ele>15</ele>
        <time>2019-03-01T08:20:31Z</time>
      </trkpt>
      <trkpt lat="48.51564" lon="-2.66752">
        <ele>15</ele>
        <time>2019-03-01T08:20:34Z</time>
      </trkpt>
      <trkpt lat="48.51566" lon="-2.6675">
        <ele>15</ele>
        <time>2019-03-01T08:20:37Z</time>
      </trkpt>
      <trkpt lat="48.5157" lon="-2.66752">
        <ele>15</ele>
        <time>2019-03-01T08:20:40Z</time>
      </trkpt>
      <trkpt lat="48.51574" lon="-2.66752">
        <ele>15</ele>
        <time>2019-03-01T08:20:43Z</time>
      </trkpt>
      <trkpt lat="48.5158" lon="-2.66752">
        <ele>15</ele>
        <time>2019-03-01T08:20:47Z</time>
      </trkpt>
      <trkpt lat="48.51584" lon="-2.66751">
        <ele>15</ele>
        <time>2019-03-01T08:20:50Z</time>
      </trkpt>
      <trkpt lat="48.51588" lon="-2.66749">
        <ele>15</ele>
        <time>2019-03-01T08:20:53Z</time>
      </trkpt>
      <trkpt lat="48.51591" lon="-2.66748">
        <ele>15</ele>
        <time>2019-03-01T08:20:56Z</time>
      </trkpt>
      <trkpt lat="48.51593" lon="-2.66746">
        <ele>15</ele>
        <time>2019-03-01T08:20:59Z</time>
      </trkpt>
      <trkpt lat="48.51596" lon="-2.66744">
        <ele>15</ele>
        <time>2019-03-01T08:21:02Z</time>
      </trkpt>
      <trkpt lat="48.51602" lon="-2.66743">
        <ele>16</ele>
        <time>2019-03-01T08:21:05Z</time>
      </trkpt>
      <trkpt lat="48.51607" lon="-2.66742">
        <ele>16</ele>
        <time>2019-03-01T08:21:09Z</time>
      </trkpt>
      <trkpt lat="48.51611" lon="-2.66739">
        <ele>17</ele>
        <time>2019-03-01T08:21:13Z</time>
      </trkpt>
      <trkpt lat="48.51614" lon="-2.66737">
        <ele>18</ele>
        <time>2019-03-01T08:21:16Z</time>
      </trkpt>
      <trkpt lat="48.5162" lon="-2.66737">
        <ele>18</ele>
        <time>2019-03-01T08:21:20Z</time>
      </trkpt>
      <trkpt lat="48.51625" lon="-2.66736">
        <ele>18</ele>
        <time>2019-03-01T08:21:23Z</time>
      </trkpt>
      <trkpt lat="48.5163" lon="-2.66735">
        <ele>18</ele>
        <time>2019-03-01T08:21:28Z</time>
      </trkpt>
      <trkpt lat="48.51636" lon="-2.66736">
        <ele>18</ele>
        <time>2019-03-01T08:21:31Z</time>
      </trkpt>
      <trkpt lat="48.51641" lon="-2.66737">
        <ele>18</ele>
        <time>2019-03-01T08:21:34Z</time>
      </trkpt>
      <trkpt lat="48.51644" lon="-2.66737">
        <ele>18</ele>
        <time>2019-03-01T08:21:37Z</time>
      </trkpt>
      <trkpt lat="48.51649" lon="-2.66738">
        <ele>18</ele>
        <time>2019-03-01T08:21:40Z</time>
      </trkpt>
      <trkpt lat="48.51652" lon="-2.66736">
        <ele>18</ele>
        <time>2019-03-01T08:21:43Z</time>
      </trkpt>
      <trkpt lat="48.51656" lon="-2.66737">
        <ele>18</ele>
        <time>2019-03-01T08:21:46Z</time>
      </trkpt>
      <trkpt lat="48.5166" lon="-2.66738">
        <ele>18</ele>
        <time>2019-03-01T08:21:50Z</time>
      </trkpt>
      <trkpt lat="48.51665" lon="-2.66739">
        <ele>18</ele>
        <time>2019-03-01T08:21:53Z</time>
      </trkpt>
      <trkpt lat="48.5167" lon="-2.66738">
        <ele>18</ele>
        <time>2019-03-01T08:21:56Z</time>
      </trkpt>
      <trkpt lat="48.51674" lon="-2.66737">
        <ele>18</ele>
        <time>2019-03-01T08:22:00Z</time>
      </trkpt>
      <trkpt lat="48.51679" lon="-2.66738">
        <ele>18</ele>
        <time>2019-03-01T08:22:03Z</time>
      </trkpt>
      <trkpt lat="48.51683" lon="-2.66739">
        <ele>18</ele>
        <time>2019-03-01T08:22:06Z</time>
      </trkpt>
      <trkpt lat="48.51688" lon="-2.6674">
        <ele>17</ele>
        <time>2019-03-01T08:22:09Z</time>
      </trkpt>
      <trkpt lat="48.51693" lon="-2.66741">
        <ele>17</ele>
        <time>2019-03-01T08:22:12Z</time>
      </trkpt>
      <trkpt lat="48.51697" lon="-2.66743">
        <ele>16</ele>
        <time>2019-03-01T08:22:15Z</time>
      </trkpt>
      <trkpt lat="48.51701" lon="-2.66745">
        <ele>16</ele>
        <time>2019-03-01T08:22:18Z</time>
      </trkpt>
      <trkpt lat="48.51705" lon="-2.66747">
        <ele>16</ele>
        <time>2019-03-01T08:22:21Z</time>
      </trkpt>
      <trkpt lat="48.51709" lon="-2.66749">
        <ele>16</ele>
        <time>2019-03-01T08:22:24Z</time>
      </trkpt>
      <trkpt lat="48.51712" lon="-2.66751">
        <ele>16</ele>
        <time>2019-03-01T08:22:27Z</time>
      </trkpt>
      <trkpt lat="48.51716" lon="-2.66753">
        <ele>16</ele>
        <time>2019-03-01T08:22:30Z</time>
      </trkpt>
      <trkpt lat="48.51719" lon="-2.66756">
        <ele>16</ele>
        <time>2019-03-01T08:22:35Z</time>
      </trkpt>
      <trkpt lat="48.51723" lon="-2.66758">
        <ele>16</ele>
        <time>2019-03-01T08:22:38Z</time>
      </trkpt>
      <trkpt lat="48.51725" lon="-2.6676">
        <ele>16</ele>
        <time>2019-03-01T08:22:42Z</time>
      </trkpt>
      <trkpt lat="48.51731" lon="-2.66762">
        <ele>18</ele>
        <time>2019-03-01T08:22:45Z</time>
      </trkpt>
      <trkpt lat="48.51735" lon="-2.66764">
        <ele>18</ele>
        <time>2019-03-01T08:22:48Z</time>
      </trkpt>
      <trkpt lat="48.51738" lon="-2.66765">
        <ele>18</ele>
        <time>2019-03-01T08:22:51Z</time>
      </trkpt>
      <trkpt lat="48.51743" lon="-2.66767">
        <ele>18</ele>
        <time>2019-03-01T08:22:55Z</time>
      </trkpt>
      <trkpt lat="48.51748" lon="-2.66768">
        <ele>18</ele>
        <time>2019-03-01T08:22:58Z</time>
      </trkpt>
      <trkpt lat="48.51753" lon="-2.66769">
        <ele>18</ele>
        <time>2019-03-01T08:23:01Z</time>
      </trkpt>
      <trkpt lat="48.51758" lon="-2.66771">
        <ele>18</ele>
        <time>2019-03-01T08:23:04Z</time>
      </trkpt>
      <trkpt lat="48.51762" lon="-2.66773">
        <ele>18</ele>
        <time>2019-03-01T08:23:07Z</time>
      </trkpt>
      <trkpt lat="48.51765" lon="-2.66774">
        <ele>18</ele>
        <time>2019-03-01T08:23:11Z</time>
      </trkpt>
      <trkpt lat="48.5177" lon="-2.66776">
        <ele>18</ele>
        <time>2019-03-01T08:23:15Z</time>
      </trkpt>
      <trkpt lat="48.51775" lon="-2.66778">
        <ele>18</ele>
        <time>2019-03-01T08:23:20Z</time>
      </trkpt>
      <trkpt lat="48.51781" lon="-2.6678">
        <ele>18</ele>
        <time>2019-03-01T08:23:23Z</time>
      </trkpt>
      <trkpt lat="48.51785" lon="-2.66779">
        <ele>18</ele>
        <time>2019-03-01T08:23:26Z</time>
      </trkpt>
      <trkpt lat="48.51788" lon="-2.66781">
        <ele>18</ele>
        <time>2019-03-01T08:23:29Z</time>
      </trkpt>
      <trkpt lat="48.51791" lon="-2.66781">
        <ele>18</ele>
        <time>2019-03-01T08:23:32Z</time>
      </trkpt>
      <trkpt lat="48.51797" lon="-2.66781">
        <ele>18</ele>
        <time>2019-03-01T08:23:35Z</time>
      </trkpt>
      <trkpt lat="48.51802" lon="-2.66781">
        <ele>18</ele>
        <time>2019-03-01T08:23:38Z</time>
      </trkpt>
      <trkpt lat="48.51805" lon="-2.6678">
        <ele>18</ele>
        <time>2019-03-01T08:23:41Z</time>
      </trkpt>
      <trkpt lat="48.5181" lon="-2.66779">
        <ele>18</ele>
        <time>2019-03-01T08:23:45Z</time>
      </trkpt>
      <trkpt lat="48.51816" lon="-2.66778">
        <ele>18</ele>
        <time>2019-03-01T08:23:48Z</time>
      </trkpt>
      <trkpt lat="48.5182" lon="-2.66776">
        <ele>18</ele>
        <time>2019-03-01T08:23:51Z</time>
      </trkpt>
      <trkpt lat="48.51825" lon="-2.66774">
        <ele>18</ele>
        <time>2019-03-01T08:23:54Z</time>
      </trkpt>
      <trkpt lat="48.51829" lon="-2.66773">
        <ele>18</ele>
        <time>2019-03-01T08:23:57Z</time>
      </trkpt>
      <trkpt lat="48.51832" lon="-2.66773">
        <ele>18</ele>
        <time>2019-03-01T08:24:00Z</time>
      </trkpt>
      <trkpt lat="48.51836" lon="-2.6677">
        <ele>18</ele>
        <time>2019-03-01T08:24:03Z</time>
      </trkpt>
      <trkpt lat="48.51841" lon="-2.66767">
        <ele>18</ele>
        <time>2019-03-01T08:24:07Z</time>
      </trkpt>
      <trkpt lat="48.51846" lon="-2.66765">
        <ele>18</ele>
        <time>2019-03-01T08:24:10Z</time>
      </trkpt>
      <trkpt lat="48.51851" lon="-2.66764">
        <ele>18</ele>
        <time>2019-03-01T08:24:13Z</time>
      </trkpt>
      <trkpt lat="48.51854" lon="-2.66761">
        <ele>18</ele>
        <time>2019-03-01T08:24:17Z</time>
      </trkpt>
      <trkpt lat="48.51858" lon="-2.66759">
        <ele>18</ele>
        <time>2019-03-01T08:24:20Z</time>
      </trkpt>
      <trkpt lat="48.51862" lon="-2.66755">
        <ele>18</ele>
        <time>2019-03-01T08:24:24Z</time>
      </trkpt>
      <trkpt lat="48.51868" lon="-2.66751">
        <ele>18</ele>
        <time>2019-03-01T08:24:28Z</time>
      </trkpt>
      <trkpt lat="48.51872" lon="-2.66748">
        <ele>18</ele>
        <time>2019-03-01T08:24:31Z</time>
      </trkpt>
      <trkpt lat="48.51876" lon="-2.66745">
        <ele>20</ele>
        <time>2019-03-01T08:24:34Z</time>
      </trkpt>
      <trkpt lat="48.5188" lon="-2.66743">
        <ele>20</ele>
        <time>2019-03-01T08:24:37Z</time>
      </trkpt>
      <trkpt lat="48.51884" lon="-2.6674">
        <ele>20</ele>
        <time>2019-03-01T08:24:40Z</time>
      </trkpt>
      <trkpt lat="48.51888" lon="-2.66738">
        <ele>20</ele>
        <time>2019-03-01T08:24:43Z</time>
      </trkpt>
      <trkpt lat="48.51892" lon="-2.66736">
        <ele>20</ele>
        <time>2019-03-01T08:24:46Z</time>
      </trkpt>
      <trkpt lat="48.51896" lon="-2.66734">
        <ele>21</ele>
        <time>2019-03-01T08:24:49Z</time>
      </trkpt>
      <trkpt lat="48.51899" lon="-2.66733">
        <ele>23</ele>
        <time>2019-03-01T08:24:52Z</time>
      </trkpt>
      <trkpt lat="48.51902" lon="-2.6673">
        <ele>23</ele>
        <time>2019-03-01T08:24:55Z</time>
      </trkpt>
      <trkpt lat="48.51907" lon="-2.66727">
        <ele>23</ele>
        <time>2019-03-01T08:24:59Z</time>
      </trkpt>
      <trkpt lat="48.51912" lon="-2.66726">
        <ele>23</ele>
        <time>2019-03-01T08:25:02Z</time>
      </trkpt>
      <trkpt lat="48.51915" lon="-2.66724">
        <ele>23</ele>
        <time>2019-03-01T08:25:05Z</time>
      </trkpt>
      <trkpt lat="48.5192" lon="-2.66723">
        <ele>23</ele>
        <time>2019-03-01T08:25:08Z</time>
      </trkpt>
      <trkpt lat="48.51923" lon="-2.66721">
        <ele>23</ele>
        <time>2019-03-01T08:25:11Z</time>
      </trkpt>
      <trkpt lat="48.51929" lon="-2.66719">
        <ele>23</ele>
        <time>2019-03-01T08:25:15Z</time>
      </trkpt>
      <trkpt lat="48.51933" lon="-2.66718">
        <ele>23</ele>
        <time>2019-03-01T08:25:18Z</time>
      </trkpt>
      <trkpt lat="48.51935" lon="-2.66718">
        <ele>23</ele>
        <time>2019-03-01T08:25:23Z</time>
      </trkpt>
      <trkpt lat="48.51939" lon="-2.66714">
        <ele>25</ele>
        <time>2019-03-01T08:25:26Z</time>
      </trkpt>
      <trkpt lat="48.51944" lon="-2.66712">
        <ele>25</ele>
        <time>2019-03-01T08:25:30Z</time>
      </trkpt>
      <trkpt lat="48.51947" lon="-2.6671">
        <ele>26</ele>
        <time>2019-03-01T08:25:34Z</time>
      </trkpt>
      <trkpt lat="48.51952" lon="-2.66709">
        <ele>26</ele>
        <time>2019-03-01T08:25:37Z</time>
      </trkpt>
      <trkpt lat="48.5196" lon="-2.66708">
        <ele>26</ele>
        <time>2019-03-01T08:25:41Z</time>
      </trkpt>
      <trkpt lat="48.51965" lon="-2.66708">
        <ele>27</ele>
        <time>2019-03-01T08:25:44Z</time>
      </trkpt>
      <trkpt lat="48.51968" lon="-2.66709">
        <ele>27</ele>
        <time>2019-03-01T08:25:47Z</time>
      </trkpt>
      <trkpt lat="48.51973" lon="-2.66707">
        <ele>27</ele>
        <time>2019-03-01T08:25:50Z</time>
      </trkpt>
      <trkpt lat="48.51978" lon="-2.66703">
        <ele>27</ele>
        <time>2019-03-01T08:25:54Z</time>
      </trkpt>
      <trkpt lat="48.51983" lon="-2.66704">
        <ele>27</ele>
        <time>2019-03-01T08:25:57Z</time>
      </trkpt>
      <trkpt lat="48.51989" lon="-2.66706">
        <ele>27</ele>
        <time>2019-03-01T08:26:00Z</time>
      </trkpt>
      <trkpt lat="48.51994" lon="-2.66706">
        <ele>27</ele>
        <time>2019-03-01T08:26:03Z</time>
      </trkpt>
      <trkpt lat="48.51999" lon="-2.66706">
        <ele>27</ele>
        <time>2019-03-01T08:26:06Z</time>
      </trkpt>
      <trkpt lat="48.52003" lon="-2.66706">
        <ele>27</ele>
        <time>2019-03-01T08:26:09Z</time>
      </trkpt>
      <trkpt lat="48.52008" lon="-2.66707">
        <ele>27</ele>
        <time>2019-03-01T08:26:12Z</time>
      </trkpt>
      <trkpt lat="48.52011" lon="-2.66709">
        <ele>27</ele>
        <time>2019-03-01T08:26:16Z</time>
      </trkpt>
      <trkpt lat="48.52015" lon="-2.6671">
        <ele>27</ele>
        <time>2019-03-01T08:26:19Z</time>
      </trkpt>
      <trkpt lat="48.52019" lon="-2.66712">
        <ele>27</ele>
        <time>2019-03-01T08:26:22Z</time>
      </trkpt>
      <trkpt lat="48.52023" lon="-2.66715">
        <ele>27</ele>
        <time>2019-03-01T08:26:25Z</time>
      </trkpt>
      <trkpt lat="48.52028" lon="-2.66716">
        <ele>27</ele>
        <time>2019-03-01T08:26:28Z</time>
      </trkpt>
      <trkpt lat="48.52031" lon="-2.66718">
        <ele>27</ele>
        <time>2019-03-01T08:26:31Z</time>
      </trkpt>
      <trkpt lat="48.52034" lon="-2.66721">
        <ele>27</ele>
        <time>2019-03-01T08:26:34Z</time>
      </trkpt>
      <trkpt lat="48.5204" lon="-2.66722">
        <ele>27</ele>
        <time>2019-03-01T08:26:37Z</time>
      </trkpt>
      <trkpt lat="48.52043" lon="-2.66723">
        <ele>27</ele>
        <time>2019-03-01T08:26:40Z</time>
      </trkpt>
      <trkpt lat="48.52047" lon="-2.66725">
        <ele>27</ele>
        <time>2019-03-01T08:26:43Z</time>
      </trkpt>
      <trkpt lat="48.52051" lon="-2.66727">
        <ele>27</ele>
        <time>2019-03-01T08:26:46Z</time>
      </trkpt>
      <trkpt lat="48.52056" lon="-2.66726">
        <ele>27</ele>
        <time>2019-03-01T08:26:49Z</time>
      </trkpt>
      <trkpt lat="48.52059" lon="-2.66722">
        <ele>27</ele>
        <time>2019-03-01T08:26:52Z</time>
      </trkpt>
      <trkpt lat="48.5206" lon="-2.66716">
        <ele>27</ele>
        <time>2019-03-01T08:26:55Z</time>
      </trkpt>
      <trkpt lat="48.52061" lon="-2.66709">
        <ele>27</ele>
        <time>2019-03-01T08:26:58Z</time>
      </trkpt>
      <trkpt lat="48.52064" lon="-2.66704">
        <ele>27</ele>
        <time>2019-03-01T08:27:01Z</time>
      </trkpt>
      <trkpt lat="48.52067" lon="-2.66699">
        <ele>27</ele>
        <time>2019-03-01T08:27:04Z</time>
      </trkpt>
      <trkpt lat="48.5207" lon="-2.66693">
        <ele>27</ele>
        <time>2019-03-01T08:27:07Z</time>
      </trkpt>
      <trkpt lat="48.52073" lon="-2.66689">
        <ele>27</ele>
        <time>2019-03-01T08:27:10Z</time>
      </trkpt>
      <trkpt lat="48.52076" lon="-2.66683">
        <ele>27</ele>
        <time>2019-03-01T08:27:13Z</time>
      </trkpt>
      <trkpt lat="48.52079" lon="-2.66678">
        <ele>27</ele>
        <time>2019-03-01T08:27:16Z</time>
      </trkpt>
      <trkpt lat="48.52081" lon="-2.66672">
        <ele>27</ele>
        <time>2019-03-01T08:27:19Z</time>
      </trkpt>
      <trkpt lat="48.52083" lon="-2.66667">
        <ele>27</ele>
        <time>2019-03-01T08:27:22Z</time>
      </trkpt>
      <trkpt lat="48.52087" lon="-2.66661">
        <ele>27</ele>
        <time>2019-03-01T08:27:25Z</time>
      </trkpt>
      <trkpt lat="48.52089" lon="-2.66656">
        <ele>27</ele>
        <time>2019-03-01T08:27:28Z</time>
      </trkpt>
      <trkpt lat="48.52092" lon="-2.66652">
        <ele>27</ele>
        <time>2019-03-01T08:27:31Z</time>
      </trkpt>
      <trkpt lat="48.52093" lon="-2.66646">
        <ele>27</ele>
        <time>2019-03-01T08:27:34Z</time>
      </trkpt>
      <trkpt lat="48.52095" lon="-2.6664">
        <ele>27</ele>
        <time>2019-03-01T08:27:38Z</time>
      </trkpt>
      <trkpt lat="48.52097" lon="-2.66636">
        <ele>27</ele>
        <time>2019-03-01T08:27:41Z</time>
      </trkpt>
      <trkpt lat="48.521" lon="-2.66631">
        <ele>27</ele>
        <time>2019-03-01T08:27:44Z</time>
      </trkpt>
      <trkpt lat="48.52101" lon="-2.66625">
        <ele>27</ele>
        <time>2019-03-01T08:27:47Z</time>
      </trkpt>
      <trkpt lat="48.52103" lon="-2.66619">
        <ele>27</ele>
        <time>2019-03-01T08:27:51Z</time>
      </trkpt>
      <trkpt lat="48.52106" lon="-2.66615">
        <ele>27</ele>
        <time>2019-03-01T08:27:54Z</time>
      </trkpt>
      <trkpt lat="48.52107" lon="-2.66609">
        <ele>27</ele>
        <time>2019-03-01T08:27:57Z</time>
      </trkpt>
      <trkpt lat="48.52111" lon="-2.66602">
        <ele>27</ele>
        <time>2019-03-01T08:28:01Z</time>
      </trkpt>
      <trkpt lat="48.52114" lon="-2.66598">
        <ele>27</ele>
        <time>2019-03-01T08:28:04Z</time>
      </trkpt>
      <trkpt lat="48.52116" lon="-2.66593">
        <ele>27</ele>
        <time>2019-03-01T08:28:07Z</time>
      </trkpt>
      <trkpt lat="48.52119" lon="-2.66588">
        <ele>27</ele>
        <time>2019-03-01T08:28:10Z</time>
      </trkpt>
      <trkpt lat="48.52121" lon="-2.66583">
        <ele>27</ele>
        <time>2019-03-01T08:28:13Z</time>
      </trkpt>
      <trkpt lat="48.52122" lon="-2.66576">
        <ele>27</ele>
        <time>2019-03-01T08:28:16Z</time>
      </trkpt>
      <trkpt lat="48.52125" lon="-2.6657">
        <ele>27</ele>
        <time>2019-03-01T08:28:20Z</time>
      </trkpt>
      <trkpt lat="48.52126" lon="-2.66565">
        <ele>27</ele>
        <time>2019-03-01T08:28:23Z</time>
      </trkpt>
      <trkpt lat="48.52127" lon="-2.6656">
        <ele>27</ele>
        <time>2019-03-01T08:28:26Z</time>
      </trkpt>
      <trkpt lat="48.52129" lon="-2.66554">
        <ele>27</ele>
        <time>2019-03-01T08:28:29Z</time>
      </trkpt>
      <trkpt lat="48.52129" lon="-2.66548">
        <ele>27</ele>
        <time>2019-03-01T08:28:32Z</time>
      </trkpt>
      <trkpt lat="48.52129" lon="-2.66542">
        <ele>27</ele>
        <time>2019-03-01T08:28:35Z</time>
      </trkpt>
      <trkpt lat="48.5213" lon="-2.66535">
        <ele>27</ele>
        <time>2019-03-01T08:28:38Z</time>
      </trkpt>
      <trkpt lat="48.52132" lon="-2.6653">
        <ele>27</ele>
        <time>2019-03-01T08:28:41Z</time>
      </trkpt>
      <trkpt lat="48.52134" lon="-2.66524">
        <ele>27</ele>
        <time>2019-03-01T08:28:44Z</time>
      </trkpt>
      <trkpt lat="48.52135" lon="-2.66517">
        <ele>27</ele>
        <time>2019-03-01T08:28:47Z</time>
      </trkpt>
      <trkpt lat="48.52135" lon="-2.6651">
        <ele>27</ele>
        <time>2019-03-01T08:28:50Z</time>
      </trkpt>
      <trkpt lat="48.52137" lon="-2.66504">
        <ele>27</ele>
        <time>2019-03-01T08:28:53Z</time>
      </trkpt>
      <trkpt lat="48.52137" lon="-2.66498">
        <ele>27</ele>
        <time>2019-03-01T08:28:56Z</time>
      </trkpt>
      <trkpt lat="48.52136" lon="-2.66492">
        <ele>27</ele>
        <time>2019-03-01T08:28:59Z</time>
      </trkpt>
      <trkpt lat="48.52132" lon="-2.66487">
        <ele>27</ele>
        <time>2019-03-01T08:29:03Z</time>
      </trkpt>
      <trkpt lat="48.52128" lon="-2.66484">
        <ele>27</ele>
        <time>2019-03-01T08:29:06Z</time>
      </trkpt>
      <trkpt lat="48.52123" lon="-2.6648">
        <ele>27</ele>
        <time>2019-03-01T08:29:09Z</time>
      </trkpt>
      <trkpt lat="48.52119" lon="-2.66476">
        <ele>27</ele>
        <time>2019-03-01T08:29:13Z</time>
      </trkpt>
      <trkpt lat="48.52114" lon="-2.66473">
        <ele>27</ele>
        <time>2019-03-01T08:29:16Z</time>
      </trkpt>
      <trkpt lat="48.52112" lon="-2.6647">
        <ele>26</ele>
        <time>2019-03-01T08:29:19Z</time>
      </trkpt>
      <trkpt lat="48.52108" lon="-2.66466">
        <ele>26</ele>
        <time>2019-03-01T08:29:23Z</time>
      </trkpt>
      <trkpt lat="48.52104" lon="-2.66461">
        <ele>26</ele>
        <time>2019-03-01T08:29:26Z</time>
      </trkpt>
      <trkpt lat="48.52097" lon="-2.66454">
        <ele>26</ele>
        <time>2019-03-01T08:29:31Z</time>
      </trkpt>
      <trkpt lat="48.52093" lon="-2.66451">
        <ele>26</ele>
        <time>2019-03-01T08:29:35Z</time>
      </trkpt>
      <trkpt lat="48.52089" lon="-2.66444">
        <ele>26</ele>
        <time>2019-03-01T08:29:39Z</time>
      </trkpt>
      <trkpt lat="48.52088" lon="-2.66437">
        <ele>26</ele>
        <time>2019-03-01T08:29:43Z</time>
      </trkpt>
      <trkpt lat="48.52085" lon="-2.66431">
        <ele>26</ele>
        <time>2019-03-01T08:29:46Z</time>
      </trkpt>
      <trkpt lat="48.52083" lon="-2.66425">
        <ele>26</ele>
        <time>2019-03-01T08:29:50Z</time>
      </trkpt>
      <trkpt lat="48.5208" lon="-2.66418">
        <ele>26</ele>
        <time>2019-03-01T08:29:54Z</time>
      </trkpt>
      <trkpt lat="48.52077" lon="-2.66413">
        <ele>26</ele>
        <time>2019-03-01T08:29:57Z</time>
      </trkpt>
      <trkpt lat="48.52076" lon="-2.66404">
        <ele>26</ele>
        <time>2019-03-01T08:30:01Z</time>
      </trkpt>
      <trkpt lat="48.52074" lon="-2.66398">
        <ele>26</ele>
        <time>2019-03-01T08:30:05Z</time>
      </trkpt>
      <trkpt lat="48.52073" lon="-2.6639">
        <ele>26</ele>
        <time>2019-03-01T08:30:08Z</time>
      </trkpt>
      <trkpt lat="48.52071" lon="-2.66376">
        <ele>26</ele>
        <time>2019-03-01T08:30:15Z</time>
      </trkpt>
      <trkpt lat="48.5207" lon="-2.66363">
        <ele>26</ele>
        <time>2019-03-01T08:30:18Z</time>
      </trkpt>
      <trkpt lat="48.5207" lon="-2.66358">
        <ele>26</ele>
        <time>2019-03-01T08:30:22Z</time>
      </trkpt>
      <trkpt lat="48.52071" lon="-2.66352">
        <ele>26</ele>
        <time>2019-03-01T08:30:25Z</time>
      </trkpt>
      <trkpt lat="48.52071" lon="-2.66347">
        <ele>26</ele>
        <time>2019-03-01T08:30:28Z</time>
      </trkpt>
      <trkpt lat="48.52072" lon="-2.66338">
        <ele>26</ele>
        <time>2019-03-01T08:30:32Z</time>
      </trkpt>
      <trkpt lat="48.52071" lon="-2.6633">
        <ele>26</ele>
        <time>2019-03-01T08:30:35Z</time>
      </trkpt>
      <trkpt lat="48.52071" lon="-2.66323">
        <ele>26</ele>
        <time>2019-03-01T08:30:38Z</time>
      </trkpt>
      <trkpt lat="48.52071" lon="-2.66315">
        <ele>26</ele>
        <time>2019-03-01T08:30:41Z</time>
      </trkpt>
      <trkpt lat="48.5207" lon="-2.66309">
        <ele>26</ele>
        <time>2019-03-01T08:30:44Z</time>
      </trkpt>
      <trkpt lat="48.52071" lon="-2.66302">
        <ele>26</ele>
        <time>2019-03-01T08:30:47Z</time>
      </trkpt>
      <trkpt lat="48.52072" lon="-2.66293">
        <ele>26</ele>
        <time>2019-03-01T08:30:51Z</time>
      </trkpt>
      <trkpt lat="48.52073" lon="-2.66287">
        <ele>27</ele>
        <time>2019-03-01T08:30:54Z</time>
      </trkpt>
      <trkpt lat="48.52071" lon="-2.6628">
        <ele>27</ele>
        <time>2019-03-01T08:30:57Z</time>
      </trkpt>
      <trkpt lat="48.52072" lon="-2.66273">
        <ele>27</ele>
        <time>2019-03-01T08:31:00Z</time>
      </trkpt>
      <trkpt lat="48.52073" lon="-2.66266">
        <ele>27</ele>
        <time>2019-03-01T08:31:03Z</time>
      </trkpt>
      <trkpt lat="48.52075" lon="-2.66259">
        <ele>27</ele>
        <time>2019-03-01T08:31:06Z</time>
      </trkpt>
      <trkpt lat="48.52077" lon="-2.66253">
        <ele>27</ele>
        <time>2019-03-01T08:31:09Z</time>
      </trkpt>
      <trkpt lat="48.52077" lon="-2.66247">
        <ele>27</ele>
        <time>2019-03-01T08:31:12Z</time>
      </trkpt>
      <trkpt lat="48.52076" lon="-2.66241">
        <ele>27</ele>
        <time>2019-03-01T08:31:15Z</time>
      </trkpt>
      <trkpt lat="48.52076" lon="-2.66234">
        <ele>27</ele>
        <time>2019-03-01T08:31:18Z</time>
      </trkpt>
      <trkpt lat="48.52078" lon="-2.6623">
        <ele>27</ele>
        <time>2019-03-01T08:31:21Z</time>
      </trkpt>
      <trkpt lat="48.52082" lon="-2.66228">
        <ele>27</ele>
        <time>2019-03-01T08:31:24Z</time>
      </trkpt>
      <trkpt lat="48.52086" lon="-2.66228">
        <ele>27</ele>
        <time>2019-03-01T08:31:27Z</time>
      </trkpt>
      <trkpt lat="48.52089" lon="-2.66226">
        <ele>27</ele>
        <time>2019-03-01T08:31:30Z</time>
      </trkpt>
      <trkpt lat="48.52092" lon="-2.66223">
        <ele>27</ele>
        <time>2019-03-01T08:31:33Z</time>
      </trkpt>
      <trkpt lat="48.52096" lon="-2.66223">
        <ele>27</ele>
        <time>2019-03-01T08:31:36Z</time>
      </trkpt>
      <trkpt lat="48.521" lon="-2.66222">
        <ele>27</ele>
        <time>2019-03-01T08:31:39Z</time>
      </trkpt>
      <trkpt lat="48.52103" lon="-2.66222">
        <ele>27</ele>
        <time>2019-03-01T08:31:42Z</time>
      </trkpt>
      <trkpt lat="48.52107" lon="-2.66221">
        <ele>27</ele>
        <time>2019-03-01T08:31:45Z</time>
      </trkpt>
      <trkpt lat="48.5211" lon="-2.66221">
        <ele>27</ele>
        <time>2019-03-01T08:31:48Z</time>
      </trkpt>
      <trkpt lat="48.52115" lon="-2.66221">
        <ele>27</ele>
        <time>2019-03-01T08:31:51Z</time>
      </trkpt>
      <trkpt lat="48.52121" lon="-2.66223">
        <ele>27</ele>
        <time>2019-03-01T08:31:54Z</time>
      </trkpt>
      <trkpt lat="48.52127" lon="-2.66224">
        <ele>27</ele>
        <time>2019-03-01T08:31:57Z</time>
      </trkpt>
      <trkpt lat="48.52133" lon="-2.66225">
        <ele>27</ele>
        <time>2019-03-01T08:32:00Z</time>
      </trkpt>
      <trkpt lat="48.52137" lon="-2.66226">
        <ele>27</ele>
        <time>2019-03-01T08:32:03Z</time>
      </trkpt>
      <trkpt lat="48.52141" lon="-2.66226">
        <ele>27</ele>
        <time>2019-03-01T08:32:07Z</time>
      </trkpt>
      <trkpt lat="48.52144" lon="-2.66225">
        <ele>27</ele>
        <time>2019-03-01T08:32:11Z</time>
      </trkpt>
      <trkpt lat="48.5215" lon="-2.66224">
        <ele>27</ele>
        <time>2019-03-01T08:32:15Z</time>
      </trkpt>
      <trkpt lat="48.52154" lon="-2.66225">
        <ele>27</ele>
        <time>2019-03-01T08:32:18Z</time>
      </trkpt>
      <trkpt lat="48.52158" lon="-2.66227">
        <ele>27</ele>
        <time>2019-03-01T08:32:21Z</time>
      </trkpt>
      <trkpt lat="48.52163" lon="-2.66228">
        <ele>27</ele>
        <time>2019-03-01T08:32:24Z</time>
      </trkpt>
      <trkpt lat="48.52167" lon="-2.6623">
        <ele>27</ele>
        <time>2019-03-01T08:32:27Z</time>
      </trkpt>
      <trkpt lat="48.52174" lon="-2.66232">
        <ele>27</ele>
        <time>2019-03-01T08:32:31Z</time>
      </trkpt>
      <trkpt lat="48.52178" lon="-2.66233">
        <ele>27</ele>
        <time>2019-03-01T08:32:34Z</time>
      </trkpt>
      <trkpt lat="48.52182" lon="-2.66236">
        <ele>27</ele>
        <time>2019-03-01T08:32:37Z</time>
      </trkpt>
      <trkpt lat="48.52187" lon="-2.66237">
        <ele>27</ele>
        <time>2019-03-01T08:32:40Z</time>
      </trkpt>
      <trkpt lat="48.52192" lon="-2.66237">
        <ele>27</ele>
        <time>2019-03-01T08:32:43Z</time>
      </trkpt>
      <trkpt lat="48.52197" lon="-2.6624">
        <ele>27</ele>
        <time>2019-03-01T08:32:47Z</time>
      </trkpt>
      <trkpt lat="48.52202" lon="-2.66242">
        <ele>27</ele>
        <time>2019-03-01T08:32:50Z</time>
      </trkpt>
      <trkpt lat="48.52206" lon="-2.66243">
        <ele>27</ele>
        <time>2019-03-01T08:32:53Z</time>
      </trkpt>
      <trkpt lat="48.5221" lon="-2.66243">
        <ele>27</ele>
        <time>2019-03-01T08:32:56Z</time>
      </trkpt>
      <trkpt lat="48.52216" lon="-2.66244">
        <ele>27</ele>
        <time>2019-03-01T08:32:59Z</time>
      </trkpt>
      <trkpt lat="48.5222" lon="-2.66243">
        <ele>27</ele>
        <time>2019-03-01T08:33:02Z</time>
      </trkpt>
      <trkpt lat="48.52225" lon="-2.66244">
        <ele>27</ele>
        <time>2019-03-01T08:33:05Z</time>
      </trkpt>
      <trkpt lat="48.5223" lon="-2.66247">
        <ele>27</ele>
        <time>2019-03-01T08:33:08Z</time>
      </trkpt>
      <trkpt lat="48.52236" lon="-2.66248">
        <ele>27</ele>
        <time>2019-03-01T08:33:12Z</time>
      </trkpt>
      <trkpt lat="48.52237" lon="-2.66246">
        <ele>27</ele>
        <time>2019-03-01T08:33:16Z</time>
      </trkpt>
      <trkpt lat="48.52242" lon="-2.66247">
        <ele>27</ele>
        <time>2019-03-01T08:33:19Z</time>
      </trkpt>
      <trkpt lat="48.52247" lon="-2.66244">
        <ele>27</ele>
        <time>2019-03-01T08:33:22Z</time>
      </trkpt>
      <trkpt lat="48.52249" lon="-2.6624">
        <ele>27</ele>
        <time>2019-03-01T08:33:25Z</time>
      </trkpt>
      <trkpt lat="48.52251" lon="-2.66235">
        <ele>27</ele>
        <time>2019-03-01T08:33:28Z</time>
      </trkpt>
      <trkpt lat="48.52253" lon="-2.66229">
        <ele>27</ele>
        <time>2019-03-01T08:33:31Z</time>
      </trkpt>
      <trkpt lat="48.52254" lon="-2.66223">
        <ele>27</ele>
        <time>2019-03-01T08:33:34Z</time>
      </trkpt>
      <trkpt lat="48.52255" lon="-2.66217">
        <ele>27</ele>
        <time>2019-03-01T08:33:37Z</time>
      </trkpt>
      <trkpt lat="48.52256" lon="-2.66212">
        <ele>27</ele>
        <time>2019-03-01T08:33:40Z</time>
      </trkpt>
      <trkpt lat="48.52258" lon="-2.66206">
        <ele>27</ele>
        <time>2019-03-01T08:33:43Z</time>
      </trkpt>
      <trkpt lat="48.52259" lon="-2.66199">
        <ele>27</ele>
        <time>2019-03-01T08:33:46Z</time>
      </trkpt>
      <trkpt lat="48.52261" lon="-2.66193">
        <ele>27</ele>
        <time>2019-03-01T08:33:49Z</time>
      </trkpt>
      <trkpt lat="48.52262" lon="-2.66186">
        <ele>27</ele>
        <time>2019-03-01T08:33:52Z</time>
      </trkpt>
      <trkpt lat="48.52264" lon="-2.6618">
        <ele>27</ele>
        <time>2019-03-01T08:33:55Z</time>
      </trkpt>
      <trkpt lat="48.52265" lon="-2.66174">
        <ele>27</ele>
        <time>2019-03-01T08:33:58Z</time>
      </trkpt>
      <trkpt lat="48.52266" lon="-2.66168">
        <ele>27</ele>
        <time>2019-03-01T08:34:01Z</time>
      </trkpt>
      <trkpt lat="48.52267" lon="-2.66162">
        <ele>27</ele>
        <time>2019-03-01T08:34:04Z</time>
      </trkpt>
      <trkpt lat="48.52269" lon="-2.66155">
        <ele>27</ele>
        <time>2019-03-01T08:34:07Z</time>
      </trkpt>
      <trkpt lat="48.5227" lon="-2.66149">
        <ele>27</ele>
        <time>2019-03-01T08:34:10Z</time>
      </trkpt>
      <trkpt lat="48.52272" lon="-2.66142">
        <ele>27</ele>
        <time>2019-03-01T08:34:14Z</time>
      </trkpt>
      <trkpt lat="48.52274" lon="-2.66136">
        <ele>27</ele>
        <time>2019-03-01T08:34:17Z</time>
      </trkpt>
      <trkpt lat="48.52275" lon="-2.66129">
        <ele>27</ele>
        <time>2019-03-01T08:34:20Z</time>
      </trkpt>
      <trkpt lat="48.52276" lon="-2.66123">
        <ele>27</ele>
        <time>2019-03-01T08:34:23Z</time>
      </trkpt>
      <trkpt lat="48.52278" lon="-2.66118">
        <ele>27</ele>
        <time>2019-03-01T08:34:26Z</time>
      </trkpt>
      <trkpt lat="48.52279" lon="-2.66112">
        <ele>27</ele>
        <time>2019-03-01T08:34:29Z</time>
      </trkpt>
      <trkpt lat="48.5228" lon="-2.66106">
        <ele>27</ele>
        <time>2019-03-01T08:34:32Z</time>
      </trkpt>
      <trkpt lat="48.52282" lon="-2.66099">
        <ele>27</ele>
        <time>2019-03-01T08:34:35Z</time>
      </trkpt>
      <trkpt lat="48.52284" lon="-2.66093">
        <ele>27</ele>
        <time>2019-03-01T08:34:38Z</time>
      </trkpt>
      <trkpt lat="48.52285" lon="-2.66087">
        <ele>27</ele>
        <time>2019-03-01T08:34:41Z</time>
      </trkpt>
      <trkpt lat="48.52287" lon="-2.66081">
        <ele>27</ele>
        <time>2019-03-01T08:34:44Z</time>
      </trkpt>
      <trkpt lat="48.52288" lon="-2.66075">
        <ele>27</ele>
        <time>2019-03-01T08:34:47Z</time>
      </trkpt>
      <trkpt lat="48.52288" lon="-2.66069">
        <ele>27</ele>
        <time>2019-03-01T08:34:50Z</time>
      </trkpt>
      <trkpt lat="48.5229" lon="-2.66063">
        <ele>27</ele>
        <time>2019-03-01T08:34:53Z</time>
      </trkpt>
      <trkpt lat="48.5229" lon="-2.66057">
        <ele>27</ele>
        <time>2019-03-01T08:34:56Z</time>
      </trkpt>
      <trkpt lat="48.52291" lon="-2.66051">
        <ele>27</ele>
        <time>2019-03-01T08:34:59Z</time>
      </trkpt>
      <trkpt lat="48.52292" lon="-2.66045">
        <ele>27</ele>
        <time>2019-03-01T08:35:02Z</time>
      </trkpt>
      <trkpt lat="48.52293" lon="-2.66037">
        <ele>27</ele>
        <time>2019-03-01T08:35:06Z</time>
      </trkpt>
      <trkpt lat="48.52293" lon="-2.66029">
        <ele>27</ele>
        <time>2019-03-01T08:35:09Z</time>
      </trkpt>
      <trkpt lat="48.52293" lon="-2.66022">
        <ele>27</ele>
        <time>2019-03-01T08:35:12Z</time>
      </trkpt>
      <trkpt lat="48.52292" lon="-2.66016">
        <ele>27</ele>
        <time>2019-03-01T08:35:16Z</time>
      </trkpt>
      <trkpt lat="48.52291" lon="-2.66009">
        <ele>27</ele>
        <time>2019-03-01T08:35:19Z</time>
      </trkpt>
      <trkpt lat="48.5229" lon="-2.66">
        <ele>27</ele>
        <time>2019-03-01T08:35:23Z</time>
      </trkpt>
      <trkpt lat="48.52289" lon="-2.65992">
        <ele>27</ele>
        <time>2019-03-01T08:35:27Z</time>
      </trkpt>
      <trkpt lat="48.52289" lon="-2.65987">
        <ele>27</ele>
        <time>2019-03-01T08:35:30Z</time>
      </trkpt>
      <trkpt lat="48.52288" lon="-2.65982">
        <ele>26</ele>
        <time>2019-03-01T08:35:33Z</time>
      </trkpt>
      <trkpt lat="48.52288" lon="-2.65977">
        <ele>25</ele>
        <time>2019-03-01T08:35:36Z</time>
      </trkpt>
      <trkpt lat="48.52288" lon="-2.65968">
        <ele>24</ele>
        <time>2019-03-01T08:35:40Z</time>
      </trkpt>
      <trkpt lat="48.5229" lon="-2.65959">
        <ele>24</ele>
        <time>2019-03-01T08:35:43Z</time>
      </trkpt>
      <trkpt lat="48.52291" lon="-2.65954">
        <ele>24</ele>
        <time>2019-03-01T08:35:47Z</time>
      </trkpt>
      <trkpt lat="48.52295" lon="-2.65948">
        <ele>24</ele>
        <time>2019-03-01T08:35:51Z</time>
      </trkpt>
      <trkpt lat="48.52301" lon="-2.65942">
        <ele>24</ele>
        <time>2019-03-01T08:35:56Z</time>
      </trkpt>
      <trkpt lat="48.52307" lon="-2.65935">
        <ele>24</ele>
        <time>2019-03-01T08:36:01Z</time>
      </trkpt>
      <trkpt lat="48.52312" lon="-2.6593">
        <ele>24</ele>
        <time>2019-03-01T08:36:05Z</time>
      </trkpt>
      <trkpt lat="48.52319" lon="-2.65925">
        <ele>24</ele>
        <time>2019-03-01T08:36:09Z</time>
      </trkpt>
      <trkpt lat="48.52322" lon="-2.65919">
        <ele>24</ele>
        <time>2019-03-01T08:36:13Z</time>
      </trkpt>
      <trkpt lat="48.52326" lon="-2.65916">
        <ele>24</ele>
        <time>2019-03-01T08:36:17Z</time>
      </trkpt>
      <trkpt lat="48.52332" lon="-2.6591">
        <ele>24</ele>
        <time>2019-03-01T08:36:22Z</time>
      </trkpt>
      <trkpt lat="48.52337" lon="-2.65906">
        <ele>24</ele>
        <time>2019-03-01T08:36:25Z</time>
      </trkpt>
      <trkpt lat="48.52341" lon="-2.65902">
        <ele>24</ele>
        <time>2019-03-01T08:36:29Z</time>
      </trkpt>
      <trkpt lat="48.52345" lon="-2.65897">
        <ele>24</ele>
        <time>2019-03-01T08:36:33Z</time>
      </trkpt>
      <trkpt lat="48.5235" lon="-2.65891">
        <ele>24</ele>
        <time>2019-03-01T08:36:36Z</time>
      </trkpt>
      <trkpt lat="48.52353" lon="-2.65886">
        <ele>24</ele>
        <time>2019-03-01T08:36:40Z</time>
      </trkpt>
      <trkpt lat="48.52357" lon="-2.65881">
        <ele>24</ele>
        <time>2019-03-01T08:36:44Z</time>
      </trkpt>
      <trkpt lat="48.5236" lon="-2.65877">
        <ele>24</ele>
        <time>2019-03-01T08:36:47Z</time>
      </trkpt>
      <trkpt lat="48.52363" lon="-2.65873">
        <ele>24</ele>
        <time>2019-03-01T08:36:50Z</time>
      </trkpt>
      <trkpt lat="48.52367" lon="-2.65867">
        <ele>24</ele>
        <time>2019-03-01T08:36:54Z</time>
      </trkpt>
      <trkpt lat="48.52373" lon="-2.65861">
        <ele>24</ele>
        <time>2019-03-01T08:36:59Z</time>
      </trkpt>
      <trkpt lat="48.52379" lon="-2.65856">
        <ele>23</ele>
        <time>2019-03-01T08:37:03Z</time>
      </trkpt>
      <trkpt lat="48.52383" lon="-2.65853">
        <ele>22</ele>
        <time>2019-03-01T08:37:06Z</time>
      </trkpt>
      <trkpt lat="48.52386" lon="-2.65849">
        <ele>22</ele>
        <time>2019-03-01T08:37:10Z</time>
      </trkpt>
      <trkpt lat="48.5239" lon="-2.65846">
        <ele>22</ele>
        <time>2019-03-01T08:37:13Z</time>
      </trkpt>
      <trkpt lat="48.52395" lon="-2.65842">
        <ele>22</ele>
        <time>2019-03-01T08:37:17Z</time>
      </trkpt>
      <trkpt lat="48.524" lon="-2.65837">
        <ele>22</ele>
        <time>2019-03-01T08:37:21Z</time>
      </trkpt>
      <trkpt lat="48.52406" lon="-2.65832">
        <ele>22</ele>
        <time>2019-03-01T08:37:24Z</time>
      </trkpt>
      <trkpt lat="48.5241" lon="-2.65829">
        <ele>22</ele>
        <time>2019-03-01T08:37:28Z</time>
      </trkpt>
      <trkpt lat="48.52414" lon="-2.65825">
        <ele>22</ele>
        <time>2019-03-01T08:37:31Z</time>
      </trkpt>
      <trkpt lat="48.52418" lon="-2.65821">
        <ele>22</ele>
        <time>2019-03-01T08:37:34Z</time>
      </trkpt>
      <trkpt lat="48.52421" lon="-2.65818">
        <ele>22</ele>
        <time>2019-03-01T08:37:38Z</time>
      </trkpt>
      <trkpt lat="48.52425" lon="-2.65814">
        <ele>22</ele>
        <time>2019-03-01T08:37:41Z</time>
      </trkpt>
      <trkpt lat="48.52428" lon="-2.65811">
        <ele>21</ele>
        <time>2019-03-01T08:37:44Z</time>
      </trkpt>
      <trkpt lat="48.52433" lon="-2.65807">
        <ele>21</ele>
        <time>2019-03-01T08:37:47Z</time>
      </trkpt>
      <trkpt lat="48.52437" lon="-2.65804">
        <ele>21</ele>
        <time>2019-03-01T08:37:50Z</time>
      </trkpt>
      <trkpt lat="48.5244" lon="-2.658">
        <ele>21</ele>
        <time>2019-03-01T08:37:53Z</time>
      </trkpt>
      <trkpt lat="48.52444" lon="-2.65797">
        <ele>20</ele>
        <time>2019-03-01T08:37:57Z</time>
      </trkpt>
      <trkpt lat="48.52449" lon="-2.65792">
        <ele>20</ele>
        <time>2019-03-01T08:38:00Z</time>
      </trkpt>
      <trkpt lat="48.52453" lon="-2.6579">
        <ele>20</ele>
        <time>2019-03-01T08:38:04Z</time>
      </trkpt>
      <trkpt lat="48.52458" lon="-2.65786">
        <ele>20</ele>
        <time>2019-03-01T08:38:07Z</time>
      </trkpt>
      <trkpt lat="48.52462" lon="-2.65781">
        <ele>20</ele>
        <time>2019-03-01T08:38:11Z</time>
      </trkpt>
      <trkpt lat="48.52467" lon="-2.65777">
        <ele>19</ele>
        <time>2019-03-01T08:38:15Z</time>
      </trkpt>
      <trkpt lat="48.5247" lon="-2.65774">
        <ele>19</ele>
        <time>2019-03-01T08:38:19Z</time>
      </trkpt>
      <trkpt lat="48.52475" lon="-2.6577">
        <ele>19</ele>
        <time>2019-03-01T08:38:22Z</time>
      </trkpt>
      <trkpt lat="48.52478" lon="-2.65767">
        <ele>19</ele>
        <time>2019-03-01T08:38:25Z</time>
      </trkpt>
      <trkpt lat="48.52482" lon="-2.65764">
        <ele>19</ele>
        <time>2019-03-01T08:38:29Z</time>
      </trkpt>
      <trkpt lat="48.52486" lon="-2.6576">
        <ele>18</ele>
        <time>2019-03-01T08:38:32Z</time>
      </trkpt>
      <trkpt lat="48.52489" lon="-2.65756">
        <ele>17</ele>
        <time>2019-03-01T08:38:35Z</time>
      </trkpt>
      <trkpt lat="48.52491" lon="-2.6575">
        <ele>16</ele>
        <time>2019-03-01T08:38:39Z</time>
      </trkpt>
      <trkpt lat="48.52491" lon="-2.65741">
        <ele>15</ele>
        <time>2019-03-01T08:38:42Z</time>
      </trkpt>
      <trkpt lat="48.52492" lon="-2.65735">
        <ele>15</ele>
        <time>2019-03-01T08:38:45Z</time>
      </trkpt>
      <trkpt lat="48.52492" lon="-2.6573">
        <ele>14</ele>
        <time>2019-03-01T08:38:49Z</time>
      </trkpt>
      <trkpt lat="48.5249" lon="-2.6572">
        <ele>13</ele>
        <time>2019-03-01T08:38:54Z</time>
      </trkpt>
      <trkpt lat="48.52488" lon="-2.65714">
        <ele>13</ele>
        <time>2019-03-01T08:38:57Z</time>
      </trkpt>
      <trkpt lat="48.52486" lon="-2.65708">
        <ele>13</ele>
        <time>2019-03-01T08:39:00Z</time>
      </trkpt>
      <trkpt lat="48.52483" lon="-2.65704">
        <ele>13</ele>
        <time>2019-03-01T08:39:05Z</time>
      </trkpt>
      <trkpt lat="48.5248" lon="-2.65699">
        <ele>12</ele>
        <time>2019-03-01T08:39:08Z</time>
      </trkpt>
      <trkpt lat="48.52477" lon="-2.65695">
        <ele>12</ele>
        <time>2019-03-01T08:39:12Z</time>
      </trkpt>
      <trkpt lat="48.52473" lon="-2.6569">
        <ele>12</ele>
        <time>2019-03-01T08:39:15Z</time>
      </trkpt>
      <trkpt lat="48.52469" lon="-2.65685">
        <ele>12</ele>
        <time>2019-03-01T08:39:19Z</time>
      </trkpt>
      <trkpt lat="48.52466" lon="-2.65682">
        <ele>12</ele>
        <time>2019-03-01T08:39:22Z</time>
      </trkpt>
      <trkpt lat="48.52462" lon="-2.65676">
        <ele>12</ele>
        <time>2019-03-01T08:39:26Z</time>
      </trkpt>
      <trkpt lat="48.52459" lon="-2.65672">
        <ele>12</ele>
        <time>2019-03-01T08:39:29Z</time>
      </trkpt>
      <trkpt lat="48.52456" lon="-2.65668">
        <ele>11</ele>
        <time>2019-03-01T08:39:32Z</time>
      </trkpt>
      <trkpt lat="48.52453" lon="-2.65666">
        <ele>10</ele>
        <time>2019-03-01T08:39:35Z</time>
      </trkpt>
      <trkpt lat="48.5245" lon="-2.65664">
        <ele>9</ele>
        <time>2019-03-01T08:39:38Z</time>
      </trkpt>
      <trkpt lat="48.52446" lon="-2.65662">
        <ele>8</ele>
        <time>2019-03-01T08:39:41Z</time>
      </trkpt>
      <trkpt lat="48.52443" lon="-2.65658">
        <ele>8</ele>
        <time>2019-03-01T08:39:44Z</time>
      </trkpt>
      <trkpt lat="48.52439" lon="-2.65657">
        <ele>8</ele>
        <time>2019-03-01T08:39:48Z</time>
      </trkpt>
      <trkpt lat="48.52435" lon="-2.65653">
        <ele>8</ele>
        <time>2019-03-01T08:39:53Z</time>
      </trkpt>
      <trkpt lat="48.52428" lon="-2.65649">
        <ele>7</ele>
        <time>2019-03-01T08:39:56Z</time>
      </trkpt>
      <trkpt lat="48.52425" lon="-2.65646">
        <ele>7</ele>
        <time>2019-03-01T08:39:59Z</time>
      </trkpt>
      <trkpt lat="48.52421" lon="-2.65644">
        <ele>7</ele>
        <time>2019-03-01T08:40:03Z</time>
      </trkpt>
      <trkpt lat="48.52415" lon="-2.6564">
        <ele>6</ele>
        <time>2019-03-01T08:40:06Z</time>
      </trkpt>
      <trkpt lat="48.52411" lon="-2.65638">
        <ele>5</ele>
        <time>2019-03-01T08:40:09Z</time>
      </trkpt>
      <trkpt lat="48.52407" lon="-2.65636">
        <ele>4</ele>
        <time>2019-03-01T08:40:13Z</time>
      </trkpt>
      <trkpt lat="48.52402" lon="-2.65633">
        <ele>3</ele>
        <time>2019-03-01T08:40:16Z</time>
      </trkpt>
      <trkpt lat="48.52398" lon="-2.65632">
        <ele>2</ele>
        <time>2019-03-01T08:40:19Z</time>
      </trkpt>
      <trkpt lat="48.52394" lon="-2.65631">
        <ele>2</ele>
        <time>2019-03-01T08:40:23Z</time>
      </trkpt>
      <trkpt lat="48.52389" lon="-2.65627">
        <ele>2</ele>
        <time>2019-03-01T08:40:26Z</time>
      </trkpt>
      <trkpt lat="48.52385" lon="-2.65624">
        <ele>2</ele>
        <time>2019-03-01T08:40:29Z</time>
      </trkpt>
      <trkpt lat="48.52381" lon="-2.65621">
        <ele>2</ele>
        <time>2019-03-01T08:40:33Z</time>
      </trkpt>
      <trkpt lat="48.52376" lon="-2.65617">
        <ele>2</ele>
        <time>2019-03-01T08:40:36Z</time>
      </trkpt>
      <trkpt lat="48.52372" lon="-2.65614">
        <ele>2</ele>
        <time>2019-03-01T08:40:39Z</time>
      </trkpt>
      <trkpt lat="48.52368" lon="-2.6561">
        <ele>2</ele>
        <time>2019-03-01T08:40:42Z</time>
      </trkpt>
      <trkpt lat="48.52363" lon="-2.65604">
        <ele>2</ele>
        <time>2019-03-01T08:40:46Z</time>
      </trkpt>
      <trkpt lat="48.52359" lon="-2.65599">
        <ele>2</ele>
        <time>2019-03-01T08:40:49Z</time>
      </trkpt>
      <trkpt lat="48.52354" lon="-2.65597">
        <ele>2</ele>
        <time>2019-03-01T08:40:52Z</time>
      </trkpt>
      <trkpt lat="48.52349" lon="-2.65592">
        <ele>2</ele>
        <time>2019-03-01T08:40:56Z</time>
      </trkpt>
      <trkpt lat="48.52346" lon="-2.65587">
        <ele>2</ele>
        <time>2019-03-01T08:41:00Z</time>
      </trkpt>
      <trkpt lat="48.52342" lon="-2.65581">
        <ele>2</ele>
        <time>2019-03-01T08:41:03Z</time>
      </trkpt>
      <trkpt lat="48.5234" lon="-2.65576">
        <ele>2</ele>
        <time>2019-03-01T08:41:06Z</time>
      </trkpt>
      <trkpt lat="48.52337" lon="-2.65572">
        <ele>2</ele>
        <time>2019-03-01T08:41:10Z</time>
      </trkpt>
      <trkpt lat="48.52334" lon="-2.65566">
        <ele>2</ele>
        <time>2019-03-01T08:41:13Z</time>
      </trkpt>
      <trkpt lat="48.52333" lon="-2.65559">
        <ele>2</ele>
        <time>2019-03-01T08:41:17Z</time>
      </trkpt>
      <trkpt lat="48.52334" lon="-2.65554">
        <ele>2</ele>
        <time>2019-03-01T08:41:20Z</time>
      </trkpt>
      <trkpt lat="48.52335" lon="-2.6555">
        <ele>2</ele>
        <time>2019-03-01T08:41:23Z</time>
      </trkpt>
      <trkpt lat="48.52336" lon="-2.65545">
        <ele>2</ele>
        <time>2019-03-01T08:41:26Z</time>
      </trkpt>
      <trkpt lat="48.5234" lon="-2.6554">
        <ele>2</ele>
        <time>2019-03-01T08:41:30Z</time>
      </trkpt>
      <trkpt lat="48.52342" lon="-2.65535">
        <ele>2</ele>
        <time>2019-03-01T08:41:34Z</time>
      </trkpt>
      <trkpt lat="48.52345" lon="-2.65532">
        <ele>2</ele>
        <time>2019-03-01T08:41:37Z</time>
      </trkpt>
      <trkpt lat="48.52349" lon="-2.65529">
        <ele>2</ele>
        <time>2019-03-01T08:41:42Z</time>
      </trkpt>
      <trkpt lat="48.52354" lon="-2.65523">
        <ele>3</ele>
        <time>2019-03-01T08:41:46Z</time>
      </trkpt>
      <trkpt lat="48.52357" lon="-2.65521">
        <ele>3</ele>
        <time>2019-03-01T08:41:49Z</time>
      </trkpt>
      <trkpt lat="48.52362" lon="-2.65518">
        <ele>3</ele>
        <time>2019-03-01T08:41:52Z</time>
      </trkpt>
      <trkpt lat="48.52365" lon="-2.65516">
        <ele>4</ele>
        <time>2019-03-01T08:41:55Z</time>
      </trkpt>
      <trkpt lat="48.52369" lon="-2.65514">
        <ele>4</ele>
        <time>2019-03-01T08:41:58Z</time>
      </trkpt>
      <trkpt lat="48.52374" lon="-2.65511">
        <ele>5</ele>
        <time>2019-03-01T08:42:01Z</time>
      </trkpt>
      <trkpt lat="48.52377" lon="-2.65509">
        <ele>5</ele>
        <time>2019-03-01T08:42:04Z</time>
      </trkpt>
      <trkpt lat="48.52382" lon="-2.65506">
        <ele>5</ele>
        <time>2019-03-01T08:42:07Z</time>
      </trkpt>
      <trkpt lat="48.52385" lon="-2.65504">
        <ele>5</ele>
        <time>2019-03-01T08:42:10Z</time>
      </trkpt>
      <trkpt lat="48.52389" lon="-2.65501">
        <ele>5</ele>
        <time>2019-03-01T08:42:13Z</time>
      </trkpt>
      <trkpt lat="48.52393" lon="-2.65498">
        <ele>5</ele>
        <time>2019-03-01T08:42:16Z</time>
      </trkpt>
      <trkpt lat="48.52397" lon="-2.65496">
        <ele>5</ele>
        <time>2019-03-01T08:42:19Z</time>
      </trkpt>
      <trkpt lat="48.52401" lon="-2.65495">
        <ele>5</ele>
        <time>2019-03-01T08:42:22Z</time>
      </trkpt>
      <trkpt lat="48.52404" lon="-2.65493">
        <ele>5</ele>
        <time>2019-03-01T08:42:25Z</time>
      </trkpt>
      <trkpt lat="48.52408" lon="-2.65491">
        <ele>5</ele>
        <time>2019-03-01T08:42:28Z</time>
      </trkpt>
      <trkpt lat="48.52412" lon="-2.65489">
        <ele>5</ele>
        <time>2019-03-01T08:42:31Z</time>
      </trkpt>
      <trkpt lat="48.52415" lon="-2.65486">
        <ele>5</ele>
        <time>2019-03-01T08:42:34Z</time>
      </trkpt>
      <trkpt lat="48.52418" lon="-2.65482">
        <ele>5</ele>
        <time>2019-03-01T08:42:37Z</time>
      </trkpt>
      <trkpt lat="48.5242" lon="-2.65477">
        <ele>5</ele>
        <time>2019-03-01T08:42:40Z</time>
      </trkpt>
      <trkpt lat="48.52421" lon="-2.65472">
        <ele>5</ele>
        <time>2019-03-01T08:42:43Z</time>
      </trkpt>
      <trkpt lat="48.5242" lon="-2.65466">
        <ele>5</ele>
        <time>2019-03-01T08:42:47Z</time>
      </trkpt>
      <trkpt lat="48.5242" lon="-2.65465">
        <ele>5</ele>
        <time>2019-03-01T08:42:52Z</time>
      </trkpt>
      <trkpt lat="48.52422" lon="-2.65461">
        <ele>5</ele>
        <time>2019-03-01T08:42:55Z</time>
      </trkpt>
      <trkpt lat="48.52424" lon="-2.65455">
        <ele>5</ele>
        <time>2019-03-01T08:42:59Z</time>
      </trkpt>
      <trkpt lat="48.52423" lon="-2.65449">
        <ele>5</ele>
        <time>2019-03-01T08:43:02Z</time>
      </trkpt>
      <trkpt lat="48.52423" lon="-2.65443">
        <ele>5</ele>
        <time>2019-03-01T08:43:05Z</time>
      </trkpt>
      <trkpt lat="48.52423" lon="-2.65436">
        <ele>5</ele>
        <time>2019-03-01T08:43:08Z</time>
      </trkpt>
      <trkpt lat="48.52424" lon="-2.6543">
        <ele>5</ele>
        <time>2019-03-01T08:43:11Z</time>
      </trkpt>
      <trkpt lat="48.52423" lon="-2.65423">
        <ele>4</ele>
        <time>2019-03-01T08:43:14Z</time>
      </trkpt>
      <trkpt lat="48.52423" lon="-2.65418">
        <ele>4</ele>
        <time>2019-03-01T08:43:17Z</time>
      </trkpt>
      <trkpt lat="48.52422" lon="-2.65412">
        <ele>4</ele>
        <time>2019-03-01T08:43:20Z</time>
      </trkpt>
      <trkpt lat="48.52422" lon="-2.65408">
        <ele>4</ele>
        <time>2019-03-01T08:43:23Z</time>
      </trkpt>
      <trkpt lat="48.52423" lon="-2.65402">
        <ele>4</ele>
        <time>2019-03-01T08:43:27Z</time>
      </trkpt>
      <trkpt lat="48.52423" lon="-2.65396">
        <ele>4</ele>
        <time>2019-03-01T08:43:30Z</time>
      </trkpt>
      <trkpt lat="48.52423" lon="-2.65389">
        <ele>4</ele>
        <time>2019-03-01T08:43:34Z</time>
      </trkpt>
      <trkpt lat="48.5242" lon="-2.65382">
        <ele>4</ele>
        <time>2019-03-01T08:43:39Z</time>
      </trkpt>
      <trkpt lat="48.52419" lon="-2.65375">
        <ele>3</ele>
        <time>2019-03-01T08:43:42Z</time>
      </trkpt>
      <trkpt lat="48.52418" lon="-2.6537">
        <ele>3</ele>
        <time>2019-03-01T08:43:45Z</time>
      </trkpt>
      <trkpt lat="48.52418" lon="-2.65364">
        <ele>3</ele>
        <time>2019-03-01T08:43:48Z</time>
      </trkpt>
      <trkpt lat="48.52417" lon="-2.65359">
        <ele>3</ele>
        <time>2019-03-01T08:43:51Z</time>
      </trkpt>
      <trkpt lat="48.52414" lon="-2.65353">
        <ele>3</ele>
        <time>2019-03-01T08:43:54Z</time>
      </trkpt>
      <trkpt lat="48.52414" lon="-2.65348">
        <ele>3</ele>
        <time>2019-03-01T08:43:58Z</time>
      </trkpt>
      <trkpt lat="48.52413" lon="-2.65343">
        <ele>3</ele>
        <time>2019-03-01T08:44:01Z</time>
      </trkpt>
      <trkpt lat="48.52411" lon="-2.6534">
        <ele>5</ele>
        <time>2019-03-01T08:44:06Z</time>
      </trkpt>
      <trkpt lat="48.52407" lon="-2.65336">
        <ele>7</ele>
        <time>2019-03-01T08:44:09Z</time>
      </trkpt>
      <trkpt lat="48.52402" lon="-2.65334">
        <ele>7</ele>
        <time>2019-03-01T08:44:12Z</time>
      </trkpt>
      <trkpt lat="48.52397" lon="-2.65333">
        <ele>7</ele>
        <time>2019-03-01T08:44:16Z</time>
      </trkpt>
      <trkpt lat="48.52393" lon="-2.6533">
        <ele>7</ele>
        <time>2019-03-01T08:44:20Z</time>
      </trkpt>
      <trkpt lat="48.52389" lon="-2.65329">
        <ele>7</ele>
        <time>2019-03-01T08:44:23Z</time>
      </trkpt>
      <trkpt lat="48.52385" lon="-2.65329">
        <ele>7</ele>
        <time>2019-03-01T08:44:27Z</time>
      </trkpt>
      <trkpt lat="48.52383" lon="-2.65324">
        <ele>7</ele>
        <time>2019-03-01T08:44:31Z</time>
      </trkpt>
      <trkpt lat="48.52381" lon="-2.65319">
        <ele>7</ele>
        <time>2019-03-01T08:44:35Z</time>
      </trkpt>
      <trkpt lat="48.5238" lon="-2.65315">
        <ele>7</ele>
        <time>2019-03-01T08:44:38Z</time>
      </trkpt>
      <trkpt lat="48.5238" lon="-2.6531">
        <ele>6</ele>
        <time>2019-03-01T08:44:41Z</time>
      </trkpt>
      <trkpt lat="48.5238" lon="-2.65302">
        <ele>4</ele>
        <time>2019-03-01T08:44:46Z</time>
      </trkpt>
      <trkpt lat="48.52379" lon="-2.65294">
        <ele>3</ele>
        <time>2019-03-01T08:44:50Z</time>
      </trkpt>
      <trkpt lat="48.52379" lon="-2.65289">
        <ele>2</ele>
        <time>2019-03-01T08:44:53Z</time>
      </trkpt>
      <trkpt lat="48.52378" lon="-2.65283">
        <ele>1</ele>
        <time>2019-03-01T08:44:57Z</time>
      </trkpt>
      <trkpt lat="48.52377" lon="-2.65278">
        <ele>1</ele>
        <time>2019-03-01T08:45:00Z</time>
      </trkpt>
      <trkpt lat="48.52374" lon="-2.65273">
        <ele>8.5</ele>
        <time>2019-03-01T08:45:03Z</time>
      </trkpt>
      <trkpt lat="48.52372" lon="-2.65266">
        <ele>8.7</ele>
        <time>2019-03-01T08:45:06Z</time>
      </trkpt>
      <trkpt lat="48.52371" lon="-2.65261">
        <ele>8.7</ele>
        <time>2019-03-01T08:45:10Z</time>
      </trkpt>
      <trkpt lat="48.52368" lon="-2.65254">
        <ele>9</ele>
        <time>2019-03-01T08:45:14Z</time>
      </trkpt>
      <trkpt lat="48.52368" lon="-2.65247">
        <ele>9</ele>
        <time>2019-03-01T08:45:17Z</time>
      </trkpt>
      <trkpt lat="48.52367" lon="-2.6524">
        <ele>9.2</ele>
        <time>2019-03-01T08:45:20Z</time>
      </trkpt>
      <trkpt lat="48.52367" lon="-2.65235">
        <ele>9.2</ele>
        <time>2019-03-01T08:45:23Z</time>
      </trkpt>
      <trkpt lat="48.52365" lon="-2.65231">
        <ele>9.4</ele>
        <time>2019-03-01T08:45:26Z</time>
      </trkpt>
      <trkpt lat="48.52364" lon="-2.65225">
        <ele>9.6</ele>
        <time>2019-03-01T08:45:30Z</time>
      </trkpt>
      <trkpt lat="48.52363" lon="-2.65219">
        <ele>9.8</ele>
        <time>2019-03-01T08:45:34Z</time>
      </trkpt>
      <trkpt lat="48.52363" lon="-2.65215">
        <ele>9.8</ele>
        <time>2019-03-01T08:45:37Z</time>
      </trkpt>
      <trkpt lat="48.52365" lon="-2.6521">
        <ele>9.4</ele>
        <time>2019-03-01T08:45:40Z</time>
      </trkpt>
      <trkpt lat="48.52367" lon="-2.65206">
        <ele>9.1</ele>
        <time>2019-03-01T08:45:43Z</time>
      </trkpt>
      <trkpt lat="48.5237" lon="-2.65203">
        <ele>8.7</ele>
        <time>2019-03-01T08:45:47Z</time>
      </trkpt>
      <trkpt lat="48.52371" lon="-2.65203">
        <ele>8.5</ele>
        <time>2019-03-01T08:45:51Z</time>
      </trkpt>
      <trkpt lat="48.5237" lon="-2.65203">
        <ele>8.7</ele>
        <time>2019-03-01T08:45:54Z</time>
      </trkpt>
      <trkpt lat="48.52369" lon="-2.65205">
        <ele>8.8</ele>
        <time>2019-03-01T08:45:58Z</time>
      </trkpt>
      <trkpt lat="48.5237" lon="-2.65202">
        <ele>8.7</ele>
        <time>2019-03-01T08:46:03Z</time>
      </trkpt>
      <trkpt lat="48.5237" lon="-2.65195">
        <ele>8.8</ele>
        <time>2019-03-01T08:46:08Z</time>
      </trkpt>
      <trkpt lat="48.5237" lon="-2.65191">
        <ele>8.6</ele>
        <time>2019-03-01T08:46:11Z</time>
      </trkpt>
      <trkpt lat="48.5237" lon="-2.65187">
        <ele>8.4</ele>
        <time>2019-03-01T08:46:14Z</time>
      </trkpt>
      <trkpt lat="48.5237" lon="-2.65181">
        <ele>8.3</ele>
        <time>2019-03-01T08:46:18Z</time>
      </trkpt>
      <trkpt lat="48.52372" lon="-2.65176">
        <ele>7.9</ele>
        <time>2019-03-01T08:46:22Z</time>
      </trkpt>
      <trkpt lat="48.5237" lon="-2.65169">
        <ele>2</ele>
        <time>2019-03-01T08:46:26Z</time>
      </trkpt>
      <trkpt lat="48.5237" lon="-2.65167">
        <ele>6</ele>
        <time>2019-03-01T08:46:29Z</time>
      </trkpt>
      <trkpt lat="48.52368" lon="-2.65167">
        <ele>9</ele>
        <time>2019-03-01T08:46:32Z</time>
      </trkpt>
      <trkpt lat="48.52361" lon="-2.65165">
        <ele>12</ele>
        <time>2019-03-01T08:46:35Z</time>
      </trkpt>
      <trkpt lat="48.52356" lon="-2.65167">
        <ele>13</ele>
        <time>2019-03-01T08:46:38Z</time>
      </trkpt>
      <trkpt lat="48.5235" lon="-2.65168">
        <ele>13</ele>
        <time>2019-03-01T08:46:41Z</time>
      </trkpt>
      <trkpt lat="48.52346" lon="-2.65169">
        <ele>13</ele>
        <time>2019-03-01T08:46:44Z</time>
      </trkpt>
      <trkpt lat="48.52344" lon="-2.65169">
        <ele>13</ele>
        <time>2019-03-01T08:46:47Z</time>
      </trkpt>
      <trkpt lat="48.52341" lon="-2.65168">
        <ele>13</ele>
        <time>2019-03-01T08:46:51Z</time>
      </trkpt>
      <trkpt lat="48.5234" lon="-2.65164">
        <ele>13</ele>
        <time>2019-03-01T08:46:55Z</time>
      </trkpt>
      <trkpt lat="48.52341" lon="-2.6516">
        <ele>14</ele>
        <time>2019-03-01T08:46:58Z</time>
      </trkpt>
      <trkpt lat="48.52342" lon="-2.65156">
        <ele>15</ele>
        <time>2019-03-01T08:47:01Z</time>
      </trkpt>
      <trkpt lat="48.52342" lon="-2.65153">
        <ele>15</ele>
        <time>2019-03-01T08:47:04Z</time>
      </trkpt>
      <trkpt lat="48.52342" lon="-2.65148">
        <ele>15</ele>
        <time>2019-03-01T08:47:07Z</time>
      </trkpt>
      <trkpt lat="48.52342" lon="-2.65143">
        <ele>15</ele>
        <time>2019-03-01T08:47:11Z</time>
      </trkpt>
      <trkpt lat="48.52343" lon="-2.65141">
        <ele>15</ele>
        <time>2019-03-01T08:47:14Z</time>
      </trkpt>
      <trkpt lat="48.52345" lon="-2.65139">
        <ele>15</ele>
        <time>2019-03-01T08:47:17Z</time>
      </trkpt>
      <trkpt lat="48.52348" lon="-2.65134">
        <ele>15</ele>
        <time>2019-03-01T08:47:21Z</time>
      </trkpt>
      <trkpt lat="48.52349" lon="-2.65129">
        <ele>15</ele>
        <time>2019-03-01T08:47:25Z</time>
      </trkpt>
      <trkpt lat="48.52353" lon="-2.65124">
        <ele>15</ele>
        <time>2019-03-01T08:47:29Z</time>
      </trkpt>
      <trkpt lat="48.52354" lon="-2.65119">
        <ele>14</ele>
        <time>2019-03-01T08:47:33Z</time>
      </trkpt>
      <trkpt lat="48.52354" lon="-2.65114">
        <ele>13</ele>
        <time>2019-03-01T08:47:36Z</time>
      </trkpt>
      <trkpt lat="48.52357" lon="-2.6511">
        <ele>11</ele>
        <time>2019-03-01T08:47:40Z</time>
      </trkpt>
      <trkpt lat="48.5236" lon="-2.65106">
        <ele>11</ele>
        <time>2019-03-01T08:47:43Z</time>
      </trkpt>
      <trkpt lat="48.52361" lon="-2.65103">
        <ele>11</ele>
        <time>2019-03-01T08:47:46Z</time>
      </trkpt>
      <trkpt lat="48.52361" lon="-2.65097">
        <ele>11</ele>
        <time>2019-03-01T08:47:50Z</time>
      </trkpt>
      <trkpt lat="48.52361" lon="-2.65093">
        <ele>10</ele>
        <time>2019-03-01T08:47:54Z</time>
      </trkpt>
      <trkpt lat="48.52361" lon="-2.65089">
        <ele>9</ele>
        <time>2019-03-01T08:47:57Z</time>
      </trkpt>
      <trkpt lat="48.52362" lon="-2.65084">
        <ele>8</ele>
        <time>2019-03-01T08:48:00Z</time>
      </trkpt>
      <trkpt lat="48.52363" lon="-2.65078">
        <ele>6</ele>
        <time>2019-03-01T08:48:04Z</time>
      </trkpt>
      <trkpt lat="48.52367" lon="-2.65074">
        <ele>5</ele>
        <time>2019-03-01T08:48:08Z</time>
      </trkpt>
      <trkpt lat="48.52371" lon="-2.65074">
        <ele>5</ele>
        <time>2019-03-01T08:48:11Z</time>
      </trkpt>
      <trkpt lat="48.52375" lon="-2.65072">
        <ele>5</ele>
        <time>2019-03-01T08:48:14Z</time>
      </trkpt>
      <trkpt lat="48.52377" lon="-2.65068">
        <ele>8</ele>
        <time>2019-03-01T08:48:18Z</time>
      </trkpt>
      <trkpt lat="48.52378" lon="-2.65064">
        <ele>9</ele>
        <time>2019-03-01T08:48:21Z</time>
      </trkpt>
      <trkpt lat="48.52379" lon="-2.6506">
        <ele>11</ele>
        <time>2019-03-01T08:48:25Z</time>
      </trkpt>
      <trkpt lat="48.52378" lon="-2.65058">
        <ele>11</ele>
        <time>2019-03-01T08:48:28Z</time>
      </trkpt>
      <trkpt lat="48.52376" lon="-2.65054">
        <ele>11</ele>
        <time>2019-03-01T08:48:33Z</time>
      </trkpt>
      <trkpt lat="48.52376" lon="-2.6505">
        <ele>12</ele>
        <time>2019-03-01T08:48:38Z</time>
      </trkpt>
      <trkpt lat="48.52377" lon="-2.65044">
        <ele>14</ele>
        <time>2019-03-01T08:48:42Z</time>
      </trkpt>
      <trkpt lat="48.52379" lon="-2.6504">
        <ele>14</ele>
        <time>2019-03-01T08:48:46Z</time>
      </trkpt>
      <trkpt lat="48.52382" lon="-2.65036">
        <ele>15</ele>
        <time>2019-03-01T08:48:49Z</time>
      </trkpt>
      <trkpt lat="48.52385" lon="-2.65031">
        <ele>16</ele>
        <time>2019-03-01T08:48:53Z</time>
      </trkpt>
      <trkpt lat="48.52387" lon="-2.65026">
        <ele>16</ele>
        <time>2019-03-01T08:48:56Z</time>
      </trkpt>
      <trkpt lat="48.52389" lon="-2.6502">
        <ele>16</ele>
        <time>2019-03-01T08:49:00Z</time>
      </trkpt>
      <trkpt lat="48.52393" lon="-2.65017">
        <ele>18</ele>
        <time>2019-03-01T08:49:03Z</time>
      </trkpt>
      <trkpt lat="48.52394" lon="-2.65013">
        <ele>19</ele>
        <time>2019-03-01T08:49:06Z</time>
      </trkpt>
      <trkpt lat="48.52395" lon="-2.65009">
        <ele>20</ele>
        <time>2019-03-01T08:49:09Z</time>
      </trkpt>
      <trkpt lat="48.52397" lon="-2.65003">
        <ele>20</ele>
        <time>2019-03-01T08:49:13Z</time>
      </trkpt>
      <trkpt lat="48.52397" lon="-2.64999">
        <ele>21</ele>
        <time>2019-03-01T08:49:17Z</time>
      </trkpt>
      <trkpt lat="48.52399" lon="-2.64995">
        <ele>21</ele>
        <time>2019-03-01T08:49:20Z</time>
      </trkpt>
      <trkpt lat="48.52402" lon="-2.64991">
        <ele>21</ele>
        <time>2019-03-01T08:49:24Z</time>
      </trkpt>
      <trkpt lat="48.52404" lon="-2.64987">
        <ele>21</ele>
        <time>2019-03-01T08:49:27Z</time>
      </trkpt>
      <trkpt lat="48.52407" lon="-2.64982">
        <ele>21</ele>
        <time>2019-03-01T08:49:31Z</time>
      </trkpt>
      <trkpt lat="48.52411" lon="-2.64977">
        <ele>21</ele>
        <time>2019-03-01T08:49:35Z</time>
      </trkpt>
      <trkpt lat="48.52414" lon="-2.64973">
        <ele>21</ele>
        <time>2019-03-01T08:49:38Z</time>
      </trkpt>
      <trkpt lat="48.52416" lon="-2.64967">
        <ele>21</ele>
        <time>2019-03-01T08:49:42Z</time>
      </trkpt>
      <trkpt lat="48.52418" lon="-2.64961">
        <ele>21</ele>
        <time>2019-03-01T08:49:46Z</time>
      </trkpt>
      <trkpt lat="48.52419" lon="-2.64956">
        <ele>21</ele>
        <time>2019-03-01T08:49:49Z</time>
      </trkpt>
      <trkpt lat="48.52418" lon="-2.6495">
        <ele>21</ele>
        <time>2019-03-01T08:49:52Z</time>
      </trkpt>
      <trkpt lat="48.52417" lon="-2.64945">
        <ele>21</ele>
        <time>2019-03-01T08:49:55Z</time>
      </trkpt>
      <trkpt lat="48.52417" lon="-2.6494">
        <ele>21</ele>
        <time>2019-03-01T08:49:58Z</time>
      </trkpt>
      <trkpt lat="48.52416" lon="-2.64935">
        <ele>21</ele>
        <time>2019-03-01T08:50:01Z</time>
      </trkpt>
      <trkpt lat="48.52417" lon="-2.6493">
        <ele>21</ele>
        <time>2019-03-01T08:50:04Z</time>
      </trkpt>
      <trkpt lat="48.52416" lon="-2.64925">
        <ele>21</ele>
        <time>2019-03-01T08:50:07Z</time>
      </trkpt>
      <trkpt lat="48.52415" lon="-2.6492">
        <ele>21</ele>
        <time>2019-03-01T08:50:10Z</time>
      </trkpt>
      <trkpt lat="48.52417" lon="-2.64915">
        <ele>21</ele>
        <time>2019-03-01T08:50:13Z</time>
      </trkpt>
      <trkpt lat="48.52414" lon="-2.64911">
        <ele>22</ele>
        <time>2019-03-01T08:50:17Z</time>
      </trkpt>
      <trkpt lat="48.52412" lon="-2.64907">
        <ele>23</ele>
        <time>2019-03-01T08:50:20Z</time>
      </trkpt>
      <trkpt lat="48.5241" lon="-2.64902">
        <ele>24</ele>
        <time>2019-03-01T08:50:23Z</time>
      </trkpt>
      <trkpt lat="48.52406" lon="-2.64899">
        <ele>24</ele>
        <time>2019-03-01T08:50:26Z</time>
      </trkpt>
      <trkpt lat="48.52402" lon="-2.64895">
        <ele>24</ele>
        <time>2019-03-01T08:50:30Z</time>
      </trkpt>
      <trkpt lat="48.52401" lon="-2.6489">
        <ele>24</ele>
        <time>2019-03-01T08:50:33Z</time>
      </trkpt>
      <trkpt lat="48.524" lon="-2.64888">
        <ele>24</ele>
        <time>2019-03-01T08:50:36Z</time>
      </trkpt>
      <trkpt lat="48.52399" lon="-2.64883">
        <ele>24</ele>
        <time>2019-03-01T08:50:39Z</time>
      </trkpt>
      <trkpt lat="48.52399" lon="-2.64878">
        <ele>24</ele>
        <time>2019-03-01T08:50:42Z</time>
      </trkpt>
      <trkpt lat="48.52401" lon="-2.64874">
        <ele>24</ele>
        <time>2019-03-01T08:50:45Z</time>
      </trkpt>
      <trkpt lat="48.52403" lon="-2.64869">
        <ele>24</ele>
        <time>2019-03-01T08:50:48Z</time>
      </trkpt>
      <trkpt lat="48.52405" lon="-2.64865">
        <ele>25</ele>
        <time>2019-03-01T08:50:51Z</time>
      </trkpt>
      <trkpt lat="48.52407" lon="-2.64861">
        <ele>26</ele>
        <time>2019-03-01T08:50:55Z</time>
      </trkpt>
      <trkpt lat="48.52411" lon="-2.64856">
        <ele>27</ele>
        <time>2019-03-01T08:50:59Z</time>
      </trkpt>
      <trkpt lat="48.52415" lon="-2.6485">
        <ele>27</ele>
        <time>2019-03-01T08:51:03Z</time>
      </trkpt>
      <trkpt lat="48.52418" lon="-2.64845">
        <ele>27</ele>
        <time>2019-03-01T08:51:07Z</time>
      </trkpt>
      <trkpt lat="48.5242" lon="-2.64841">
        <ele>27</ele>
        <time>2019-03-01T08:51:11Z</time>
      </trkpt>
      <trkpt lat="48.52423" lon="-2.64837">
        <ele>26</ele>
        <time>2019-03-01T08:51:14Z</time>
      </trkpt>
      <trkpt lat="48.52426" lon="-2.64831">
        <ele>25</ele>
        <time>2019-03-01T08:51:18Z</time>
      </trkpt>
      <trkpt lat="48.52429" lon="-2.64827">
        <ele>23</ele>
        <time>2019-03-01T08:51:22Z</time>
      </trkpt>
      <trkpt lat="48.52433" lon="-2.64826">
        <ele>21</ele>
        <time>2019-03-01T08:51:26Z</time>
      </trkpt>
      <trkpt lat="48.52436" lon="-2.64825">
        <ele>20</ele>
        <time>2019-03-01T08:51:29Z</time>
      </trkpt>
      <trkpt lat="48.52439" lon="-2.64822">
        <ele>19</ele>
        <time>2019-03-01T08:51:32Z</time>
      </trkpt>
      <trkpt lat="48.52444" lon="-2.64818">
        <ele>19</ele>
        <time>2019-03-01T08:51:35Z</time>
      </trkpt>
      <trkpt lat="48.52445" lon="-2.64813">
        <ele>19</ele>
        <time>2019-03-01T08:51:38Z</time>
      </trkpt>
      <trkpt lat="48.52445" lon="-2.64808">
        <ele>19</ele>
        <time>2019-03-01T08:51:41Z</time>
      </trkpt>
      <trkpt lat="48.52446" lon="-2.64803">
        <ele>19</ele>
        <time>2019-03-01T08:51:44Z</time>
      </trkpt>
      <trkpt lat="48.52447" lon="-2.64797">
        <ele>19</ele>
        <time>2019-03-01T08:51:48Z</time>
      </trkpt>
      <trkpt lat="48.52447" lon="-2.64791">
        <ele>19</ele>
        <time>2019-03-01T08:51:51Z</time>
      </trkpt>
      <trkpt lat="48.52447" lon="-2.64785">
        <ele>19</ele>
        <time>2019-03-01T08:51:54Z</time>
      </trkpt>
      <trkpt lat="48.52446" lon="-2.64781">
        <ele>19</ele>
        <time>2019-03-01T08:51:57Z</time>
      </trkpt>
      <trkpt lat="48.52443" lon="-2.64775">
        <ele>19</ele>
        <time>2019-03-01T08:52:01Z</time>
      </trkpt>
      <trkpt lat="48.5244" lon="-2.64769">
        <ele>19</ele>
        <time>2019-03-01T08:52:05Z</time>
      </trkpt>
      <trkpt lat="48.52436" lon="-2.64766">
        <ele>19</ele>
        <time>2019-03-01T08:52:08Z</time>
      </trkpt>
      <trkpt lat="48.52432" lon="-2.64762">
        <ele>19</ele>
        <time>2019-03-01T08:52:12Z</time>
      </trkpt>
      <trkpt lat="48.52429" lon="-2.64756">
        <ele>19</ele>
        <time>2019-03-01T08:52:15Z</time>
      </trkpt>
      <trkpt lat="48.52427" lon="-2.64751">
        <ele>19</ele>
        <time>2019-03-01T08:52:19Z</time>
      </trkpt>
      <trkpt lat="48.52424" lon="-2.64747">
        <ele>19</ele>
        <time>2019-03-01T08:52:23Z</time>
      </trkpt>
      <trkpt lat="48.52422" lon="-2.64741">
        <ele>19</ele>
        <time>2019-03-01T08:52:28Z</time>
      </trkpt>
      <trkpt lat="48.5242" lon="-2.64736">
        <ele>19</ele>
        <time>2019-03-01T08:52:31Z</time>
      </trkpt>
      <trkpt lat="48.52419" lon="-2.64731">
        <ele>19</ele>
        <time>2019-03-01T08:52:35Z</time>
      </trkpt>
      <trkpt lat="48.52417" lon="-2.64725">
        <ele>18</ele>
        <time>2019-03-01T08:52:39Z</time>
      </trkpt>
      <trkpt lat="48.52417" lon="-2.64722">
        <ele>17</ele>
        <time>2019-03-01T08:52:42Z</time>
      </trkpt>
      <trkpt lat="48.52416" lon="-2.64717">
        <ele>17</ele>
        <time>2019-03-01T08:52:45Z</time>
      </trkpt>
      <trkpt lat="48.52416" lon="-2.6471">
        <ele>17</ele>
        <time>2019-03-01T08:52:48Z</time>
      </trkpt>
      <trkpt lat="48.52415" lon="-2.64705">
        <ele>17</ele>
        <time>2019-03-01T08:52:51Z</time>
      </trkpt>
      <trkpt lat="48.52414" lon="-2.64699">
        <ele>17</ele>
        <time>2019-03-01T08:52:54Z</time>
      </trkpt>
      <trkpt lat="48.52412" lon="-2.64694">
        <ele>17</ele>
        <time>2019-03-01T08:52:57Z</time>
      </trkpt>
      <trkpt lat="48.52411" lon="-2.64688">
        <ele>17</ele>
        <time>2019-03-01T08:53:01Z</time>
      </trkpt>
      <trkpt lat="48.5241" lon="-2.64683">
        <ele>18</ele>
        <time>2019-03-01T08:53:05Z</time>
      </trkpt>
      <trkpt lat="48.52411" lon="-2.64679">
        <ele>18</ele>
        <time>2019-03-01T08:53:08Z</time>
      </trkpt>
      <trkpt lat="48.52412" lon="-2.64672">
        <ele>19</ele>
        <time>2019-03-01T08:53:11Z</time>
      </trkpt>
      <trkpt lat="48.52411" lon="-2.64665">
        <ele>19</ele>
        <time>2019-03-01T08:53:14Z</time>
      </trkpt>
      <trkpt lat="48.5241" lon="-2.64658">
        <ele>19</ele>
        <time>2019-03-01T08:53:17Z</time>
      </trkpt>
      <trkpt lat="48.52409" lon="-2.64651">
        <ele>19</ele>
        <time>2019-03-01T08:53:20Z</time>
      </trkpt>
      <trkpt lat="48.52408" lon="-2.64645">
        <ele>19</ele>
        <time>2019-03-01T08:53:23Z</time>
      </trkpt>
      <trkpt lat="48.52408" lon="-2.64639">
        <ele>19</ele>
        <time>2019-03-01T08:53:26Z</time>
      </trkpt>
      <trkpt lat="48.52409" lon="-2.64633">
        <ele>19</ele>
        <time>2019-03-01T08:53:29Z</time>
      </trkpt>
      <trkpt lat="48.52409" lon="-2.64628">
        <ele>19</ele>
        <time>2019-03-01T08:53:32Z</time>
      </trkpt>
      <trkpt lat="48.52409" lon="-2.64623">
        <ele>19</ele>
        <time>2019-03-01T08:53:35Z</time>
      </trkpt>
      <trkpt lat="48.52409" lon="-2.64617">
        <ele>19</ele>
        <time>2019-03-01T08:53:38Z</time>
      </trkpt>
      <trkpt lat="48.5241" lon="-2.64611">
        <ele>19</ele>
        <time>2019-03-01T08:53:41Z</time>
      </trkpt>
      <trkpt lat="48.52411" lon="-2.64605">
        <ele>19</ele>
        <time>2019-03-01T08:53:44Z</time>
      </trkpt>
      <trkpt lat="48.52412" lon="-2.64599">
        <ele>19</ele>
        <time>2019-03-01T08:53:47Z</time>
      </trkpt>
      <trkpt lat="48.52414" lon="-2.64593">
        <ele>19</ele>
        <time>2019-03-01T08:53:50Z</time>
      </trkpt>
      <trkpt lat="48.52417" lon="-2.64587">
        <ele>19</ele>
        <time>2019-03-01T08:53:53Z</time>
      </trkpt>
      <trkpt lat="48.52417" lon="-2.64582">
        <ele>18</ele>
        <time>2019-03-01T08:53:56Z</time>
      </trkpt>
      <trkpt lat="48.52418" lon="-2.64577">
        <ele>18</ele>
        <time>2019-03-01T08:53:59Z</time>
      </trkpt>
      <trkpt lat="48.5242" lon="-2.64571">
        <ele>18</ele>
        <time>2019-03-01T08:54:02Z</time>
      </trkpt>
      <trkpt lat="48.52421" lon="-2.64565">
        <ele>17</ele>
        <time>2019-03-01T08:54:05Z</time>
      </trkpt>
      <trkpt lat="48.52422" lon="-2.6456">
        <ele>17</ele>
        <time>2019-03-01T08:54:08Z</time>
      </trkpt>
      <trkpt lat="48.52423" lon="-2.64554">
        <ele>17</ele>
        <time>2019-03-01T08:54:12Z</time>
      </trkpt>
      <trkpt lat="48.52425" lon="-2.64549">
        <ele>17</ele>
        <time>2019-03-01T08:54:15Z</time>
      </trkpt>
      <trkpt lat="48.52428" lon="-2.64544">
        <ele>17</ele>
        <time>2019-03-01T08:54:18Z</time>
      </trkpt>
      <trkpt lat="48.5243" lon="-2.64537">
        <ele>17</ele>
        <time>2019-03-01T08:54:21Z</time>
      </trkpt>
      <trkpt lat="48.52431" lon="-2.6453">
        <ele>17</ele>
        <time>2019-03-01T08:54:24Z</time>
      </trkpt>
      <trkpt lat="48.52433" lon="-2.64525">
        <ele>17</ele>
        <time>2019-03-01T08:54:27Z</time>
      </trkpt>
      <trkpt lat="48.52435" lon="-2.64519">
        <ele>17</ele>
        <time>2019-03-01T08:54:30Z</time>
      </trkpt>
      <trkpt lat="48.52436" lon="-2.64513">
        <ele>17</ele>
        <time>2019-03-01T08:54:33Z</time>
      </trkpt>
      <trkpt lat="48.52437" lon="-2.64508">
        <ele>17</ele>
        <time>2019-03-01T08:54:37Z</time>
      </trkpt>
      <trkpt lat="48.52438" lon="-2.64502">
        <ele>17</ele>
        <time>2019-03-01T08:54:40Z</time>
      </trkpt>
      <trkpt lat="48.52436" lon="-2.64498">
        <ele>17</ele>
        <time>2019-03-01T08:54:43Z</time>
      </trkpt>
      <trkpt lat="48.52433" lon="-2.64494">
        <ele>17</ele>
        <time>2019-03-01T08:54:47Z</time>
      </trkpt>
      <trkpt lat="48.5243" lon="-2.64493">
        <ele>17</ele>
        <time>2019-03-01T08:54:50Z</time>
      </trkpt>
      <trkpt lat="48.52427" lon="-2.6449">
        <ele>17</ele>
        <time>2019-03-01T08:54:53Z</time>
      </trkpt>
      <trkpt lat="48.52423" lon="-2.64487">
        <ele>17</ele>
        <time>2019-03-01T08:54:57Z</time>
      </trkpt>
      <trkpt lat="48.52418" lon="-2.64483">
        <ele>17</ele>
        <time>2019-03-01T08:55:01Z</time>
      </trkpt>
      <trkpt lat="48.52415" lon="-2.64479">
        <ele>17</ele>
        <time>2019-03-01T08:55:04Z</time>
      </trkpt>
      <trkpt lat="48.52411" lon="-2.64475">
        <ele>17</ele>
        <time>2019-03-01T08:55:08Z</time>
      </trkpt>
      <trkpt lat="48.52407" lon="-2.6447">
        <ele>17</ele>
        <time>2019-03-01T08:55:12Z</time>
      </trkpt>
      <trkpt lat="48.52405" lon="-2.64465">
        <ele>17</ele>
        <time>2019-03-01T08:55:16Z</time>
      </trkpt>
      <trkpt lat="48.52403" lon="-2.6446">
        <ele>17</ele>
        <time>2019-03-01T08:55:19Z</time>
      </trkpt>
      <trkpt lat="48.52402" lon="-2.64454">
        <ele>17</ele>
        <time>2019-03-01T08:55:22Z</time>
      </trkpt>
      <trkpt lat="48.52401" lon="-2.64448">
        <ele>17</ele>
        <time>2019-03-01T08:55:25Z</time>
      </trkpt>
      <trkpt lat="48.52398" lon="-2.64444">
        <ele>17</ele>
        <time>2019-03-01T08:55:28Z</time>
      </trkpt>
      <trkpt lat="48.52397" lon="-2.64439">
        <ele>17</ele>
        <time>2019-03-01T08:55:31Z</time>
      </trkpt>
      <trkpt lat="48.52395" lon="-2.64433">
        <ele>17</ele>
        <time>2019-03-01T08:55:35Z</time>
      </trkpt>
      <trkpt lat="48.52394" lon="-2.64427">
        <ele>17</ele>
        <time>2019-03-01T08:55:38Z</time>
      </trkpt>
      <trkpt lat="48.52393" lon="-2.64423">
        <ele>17</ele>
        <time>2019-03-01T08:55:41Z</time>
      </trkpt>
      <trkpt lat="48.52392" lon="-2.64418">
        <ele>17</ele>
        <time>2019-03-01T08:55:44Z</time>
      </trkpt>
      <trkpt lat="48.52389" lon="-2.64411">
        <ele>17</ele>
        <time>2019-03-01T08:55:48Z</time>
      </trkpt>
      <trkpt lat="48.52387" lon="-2.64406">
        <ele>17</ele>
        <time>2019-03-01T08:55:51Z</time>
      </trkpt>
      <trkpt lat="48.52385" lon="-2.644">
        <ele>17</ele>
        <time>2019-03-01T08:55:54Z</time>
      </trkpt>
      <trkpt lat="48.52383" lon="-2.64395">
        <ele>17</ele>
        <time>2019-03-01T08:55:57Z</time>
      </trkpt>
      <trkpt lat="48.52382" lon="-2.64389">
        <ele>17</ele>
        <time>2019-03-01T08:56:00Z</time>
      </trkpt>
      <trkpt lat="48.52382" lon="-2.64385">
        <ele>16</ele>
        <time>2019-03-01T08:56:03Z</time>
      </trkpt>
      <trkpt lat="48.5238" lon="-2.64379">
        <ele>16</ele>
        <time>2019-03-01T08:56:06Z</time>
      </trkpt>
      <trkpt lat="48.52379" lon="-2.64375">
        <ele>16</ele>
        <time>2019-03-01T08:56:09Z</time>
      </trkpt>
      <trkpt lat="48.52377" lon="-2.6437">
        <ele>16</ele>
        <time>2019-03-01T08:56:12Z</time>
      </trkpt>
      <trkpt lat="48.52375" lon="-2.64365">
        <ele>16</ele>
        <time>2019-03-01T08:56:15Z</time>
      </trkpt>
      <trkpt lat="48.52374" lon="-2.64358">
        <ele>16</ele>
        <time>2019-03-01T08:56:18Z</time>
      </trkpt>
      <trkpt lat="48.52372" lon="-2.64353">
        <ele>16</ele>
        <time>2019-03-01T08:56:21Z</time>
      </trkpt>
      <trkpt lat="48.52372" lon="-2.64347">
        <ele>16</ele>
        <time>2019-03-01T08:56:24Z</time>
      </trkpt>
      <trkpt lat="48.52372" lon="-2.64341">
        <ele>16</ele>
        <time>2019-03-01T08:56:27Z</time>
      </trkpt>
      <trkpt lat="48.52372" lon="-2.64335">
        <ele>16</ele>
        <time>2019-03-01T08:56:30Z</time>
      </trkpt>
      <trkpt lat="48.52373" lon="-2.64329">
        <ele>16</ele>
        <time>2019-03-01T08:56:33Z</time>
      </trkpt>
      <trkpt lat="48.52373" lon="-2.64324">
        <ele>16</ele>
        <time>2019-03-01T08:56:36Z</time>
      </trkpt>
      <trkpt lat="48.52374" lon="-2.64318">
        <ele>16</ele>
        <time>2019-03-01T08:56:39Z</time>
      </trkpt>
      <trkpt lat="48.52375" lon="-2.64313">
        <ele>16</ele>
        <time>2019-03-01T08:56:42Z</time>
      </trkpt>
      <trkpt lat="48.52375" lon="-2.64307">
        <ele>16</ele>
        <time>2019-03-01T08:56:46Z</time>
      </trkpt>
      <trkpt lat="48.52374" lon="-2.64302">
        <ele>16</ele>
        <time>2019-03-01T08:56:49Z</time>
      </trkpt>
      <trkpt lat="48.52373" lon="-2.64296">
        <ele>16</ele>
        <time>2019-03-01T08:56:53Z</time>
      </trkpt>
      <trkpt lat="48.52372" lon="-2.64291">
        <ele>16</ele>
        <time>2019-03-01T08:56:56Z</time>
      </trkpt>
      <trkpt lat="48.52368" lon="-2.64284">
        <ele>16</ele>
        <time>2019-03-01T08:57:00Z</time>
      </trkpt>
      <trkpt lat="48.52367" lon="-2.64282">
        <ele>16</ele>
        <time>2019-03-01T08:57:03Z</time>
      </trkpt>
      <trkpt lat="48.52365" lon="-2.64276">
        <ele>16</ele>
        <time>2019-03-01T08:57:07Z</time>
      </trkpt>
      <trkpt lat="48.52362" lon="-2.64271">
        <ele>16</ele>
        <time>2019-03-01T08:57:10Z</time>
      </trkpt>
      <trkpt lat="48.5236" lon="-2.64265">
        <ele>16</ele>
        <time>2019-03-01T08:57:13Z</time>
      </trkpt>
      <trkpt lat="48.52358" lon="-2.64259">
        <ele>16</ele>
        <time>2019-03-01T08:57:16Z</time>
      </trkpt>
      <trkpt lat="48.52358" lon="-2.64253">
        <ele>16</ele>
        <time>2019-03-01T08:57:19Z</time>
      </trkpt>
      <trkpt lat="48.52357" lon="-2.64248">
        <ele>16</ele>
        <time>2019-03-01T08:57:22Z</time>
      </trkpt>
      <trkpt lat="48.52357" lon="-2.64242">
        <ele>16</ele>
        <time>2019-03-01T08:57:25Z</time>
      </trkpt>
      <trkpt lat="48.52357" lon="-2.64235">
        <ele>16</ele>
        <time>2019-03-01T08:57:28Z</time>
      </trkpt>
      <trkpt lat="48.52356" lon="-2.64229">
        <ele>16</ele>
        <time>2019-03-01T08:57:32Z</time>
      </trkpt>
      <trkpt lat="48.52353" lon="-2.64223">
        <ele>16</ele>
        <time>2019-03-01T08:57:35Z</time>
      </trkpt>
      <trkpt lat="48.52351" lon="-2.64218">
        <ele>16</ele>
        <time>2019-03-01T08:57:38Z</time>
      </trkpt>
      <trkpt lat="48.52349" lon="-2.64213">
        <ele>16</ele>
        <time>2019-03-01T08:57:41Z</time>
      </trkpt>
      <trkpt lat="48.52346" lon="-2.64208">
        <ele>16</ele>
        <time>2019-03-01T08:57:44Z</time>
      </trkpt>
      <trkpt lat="48.52345" lon="-2.64202">
        <ele>16</ele>
        <time>2019-03-01T08:57:47Z</time>
      </trkpt>
      <trkpt lat="48.52344" lon="-2.64197">
        <ele>16</ele>
        <time>2019-03-01T08:57:50Z</time>
      </trkpt>
      <trkpt lat="48.52344" lon="-2.64191">
        <ele>16</ele>
        <time>2019-03-01T08:57:53Z</time>
      </trkpt>
      <trkpt lat="48.52345" lon="-2.64184">
        <ele>16</ele>
        <time>2019-03-01T08:57:56Z</time>
      </trkpt>
      <trkpt lat="48.52345" lon="-2.64177">
        <ele>16</ele>
        <time>2019-03-01T08:57:59Z</time>
      </trkpt>
      <trkpt lat="48.52344" lon="-2.64171">
        <ele>16</ele>
        <time>2019-03-01T08:58:02Z</time>
      </trkpt>
      <trkpt lat="48.52341" lon="-2.64164">
        <ele>16</ele>
        <time>2019-03-01T08:58:06Z</time>
      </trkpt>
      <trkpt lat="48.52341" lon="-2.64159">
        <ele>16</ele>
        <time>2019-03-01T08:58:09Z</time>
      </trkpt>
      <trkpt lat="48.5234" lon="-2.64152">
        <ele>16</ele>
        <time>2019-03-01T08:58:12Z</time>
      </trkpt>
      <trkpt lat="48.52341" lon="-2.64147">
        <ele>16</ele>
        <time>2019-03-01T08:58:15Z</time>
      </trkpt>
      <trkpt lat="48.5234" lon="-2.6414">
        <ele>16</ele>
        <time>2019-03-01T08:58:18Z</time>
      </trkpt>
      <trkpt lat="48.52341" lon="-2.64136">
        <ele>16</ele>
        <time>2019-03-01T08:58:22Z</time>
      </trkpt>
      <trkpt lat="48.5234" lon="-2.6413">
        <ele>16</ele>
        <time>2019-03-01T08:58:25Z</time>
      </trkpt>
      <trkpt lat="48.52338" lon="-2.64125">
        <ele>16</ele>
        <time>2019-03-01T08:58:28Z</time>
      </trkpt>
      <trkpt lat="48.52338" lon="-2.6412">
        <ele>16</ele>
        <time>2019-03-01T08:58:31Z</time>
      </trkpt>
      <trkpt lat="48.52338" lon="-2.64113">
        <ele>16</ele>
        <time>2019-03-01T08:58:35Z</time>
      </trkpt>
      <trkpt lat="48.52335" lon="-2.64106">
        <ele>16</ele>
        <time>2019-03-01T08:58:39Z</time>
      </trkpt>
      <trkpt lat="48.52335" lon="-2.641">
        <ele>16</ele>
        <time>2019-03-01T08:58:42Z</time>
      </trkpt>
      <trkpt lat="48.52336" lon="-2.64094">
        <ele>16</ele>
        <time>2019-03-01T08:58:45Z</time>
      </trkpt>
      <trkpt lat="48.52338" lon="-2.64089">
        <ele>16</ele>
        <time>2019-03-01T08:58:48Z</time>
      </trkpt>
      <trkpt lat="48.52338" lon="-2.64083">
        <ele>16</ele>
        <time>2019-03-01T08:58:51Z</time>
      </trkpt>
      <trkpt lat="48.52337" lon="-2.64076">
        <ele>16</ele>
        <time>2019-03-01T08:58:55Z</time>
      </trkpt>
      <trkpt lat="48.52337" lon="-2.64071">
        <ele>16</ele>
        <time>2019-03-01T08:58:59Z</time>
      </trkpt>
      <trkpt lat="48.52337" lon="-2.64067">
        <ele>16</ele>
        <time>2019-03-01T08:59:03Z</time>
      </trkpt>
      <trkpt lat="48.52335" lon="-2.64065">
        <ele>16</ele>
        <time>2019-03-01T08:59:06Z</time>
      </trkpt>
      <trkpt lat="48.52335" lon="-2.64063">
        <ele>16</ele>
        <time>2019-03-01T08:59:09Z</time>
      </trkpt>
      <trkpt lat="48.52335" lon="-2.64061">
        <ele>16</ele>
        <time>2019-03-01T08:59:12Z</time>
      </trkpt>
      <trkpt lat="48.52335" lon="-2.64059">
        <ele>15</ele>
        <time>2019-03-01T08:59:15Z</time>
      </trkpt>
      <trkpt lat="48.52334" lon="-2.64057">
        <ele>14</ele>
        <time>2019-03-01T08:59:18Z</time>
      </trkpt>
      <trkpt lat="48.52334" lon="-2.64055">
        <ele>13</ele>
        <time>2019-03-01T08:59:22Z</time>
      </trkpt>
      <trkpt lat="48.52334" lon="-2.64053">
        <ele>12</ele>
        <time>2019-03-01T08:59:25Z</time>
      </trkpt>
      <trkpt lat="48.52334" lon="-2.64049">
        <ele>9</ele>
        <time>2019-03-01T08:59:29Z</time>
      </trkpt>
      <trkpt lat="48.52332" lon="-2.64044">
        <ele>7</ele>
        <time>2019-03-01T08:59:33Z</time>
      </trkpt>
      <trkpt lat="48.52331" lon="-2.6404">
        <ele>5</ele>
        <time>2019-03-01T08:59:37Z</time>
      </trkpt>
      <trkpt lat="48.52331" lon="-2.64036">
        <ele>3</ele>
        <time>2019-03-01T08:59:41Z</time>
      </trkpt>
      <trkpt lat="48.52331" lon="-2.64032">
        <ele>3</ele>
        <time>2019-03-01T08:59:46Z</time>
      </trkpt>
      <trkpt lat="48.5233" lon="-2.64031">
        <ele>3</ele>
        <time>2019-03-01T08:59:49Z</time>
      </trkpt>
      <trkpt lat="48.52328" lon="-2.64029">
        <ele>3</ele>
        <time>2019-03-01T08:59:52Z</time>
      </trkpt>
      <trkpt lat="48.52327" lon="-2.64026">
        <ele>3</ele>
        <time>2019-03-01T08:59:56Z</time>
      </trkpt>
      <trkpt lat="48.52327" lon="-2.64024">
        <ele>3</ele>
        <time>2019-03-01T09:00:03Z</time>
      </trkpt>
      <trkpt lat="48.52326" lon="-2.64023">
        <ele>3</ele>
        <time>2019-03-01T09:00:06Z</time>
      </trkpt>
      <trkpt lat="48.52327" lon="-2.64024">
        <ele>5</ele>
        <time>2019-03-01T09:00:25Z</time>
      </trkpt>
      <trkpt lat="48.52328" lon="-2.64025">
        <ele>6</ele>
        <time>2019-03-01T09:00:47Z</time>
      </trkpt>
      <trkpt lat="48.52327" lon="-2.64024">
        <ele>6</ele>
        <time>2019-03-01T09:00:56Z</time>
      </trkpt>
      <trkpt lat="48.52327" lon="-2.64026">
        <ele>6</ele>
        <time>2019-03-01T09:01:01Z</time>
      </trkpt>
      <trkpt lat="48.52328" lon="-2.64027">
        <ele>6</ele>
        <time>2019-03-01T09:01:12Z</time>
      </trkpt>
      <trkpt lat="48.52327" lon="-2.64025">
        <ele>6</ele>
        <time>2019-03-01T09:01:16Z</time>
      </trkpt>
      <trkpt lat="48.52326" lon="-2.64023">
        <ele>6</ele>
        <time>2019-03-01T09:01:26Z</time>
      </trkpt>
      <trkpt lat="48.52327" lon="-2.64019">
        <ele>6</ele>
        <time>2019-03-01T09:01:30Z</time>
      </trkpt>
      <trkpt lat="48.52327" lon="-2.64015">
        <ele>6</ele>
        <time>2019-03-01T09:01:36Z</time>
      </trkpt>
      <trkpt lat="48.52326" lon="-2.6401">
        <ele>6</ele>
        <time>2019-03-01T09:01:41Z</time>
      </trkpt>
      <trkpt lat="48.52324" lon="-2.64005">
        <ele>6</ele>
        <time>2019-03-01T09:01:45Z</time>
      </trkpt>
      <trkpt lat="48.52325" lon="-2.63999">
        <ele>6</ele>
        <time>2019-03-01T09:01:49Z</time>
      </trkpt>
      <trkpt lat="48.52327" lon="-2.63995">
        <ele>7</ele>
        <time>2019-03-01T09:01:53Z</time>
      </trkpt>
      <trkpt lat="48.5233" lon="-2.6399">
        <ele>7</ele>
        <time>2019-03-01T09:01:57Z</time>
      </trkpt>
      <trkpt lat="48.52328" lon="-2.63984">
        <ele>7</ele>
        <time>2019-03-01T09:02:02Z</time>
      </trkpt>
      <trkpt lat="48.52328" lon="-2.63981">
        <ele>7</ele>
        <time>2019-03-01T09:02:05Z</time>
      </trkpt>
      <trkpt lat="48.52331" lon="-2.63978">
        <ele>7</ele>
        <time>2019-03-01T09:02:08Z</time>
      </trkpt>
      <trkpt lat="48.52337" lon="-2.63974">
        <ele>7</ele>
        <time>2019-03-01T09:02:11Z</time>
      </trkpt>
      <trkpt lat="48.5234" lon="-2.63969">
        <ele>9</ele>
        <time>2019-03-01T09:02:15Z</time>
      </trkpt>
      <trkpt lat="48.52342" lon="-2.63964">
        <ele>10</ele>
        <time>2019-03-01T09:02:19Z</time>
      </trkpt>
      <trkpt lat="48.52346" lon="-2.63958">
        <ele>10</ele>
        <time>2019-03-01T09:02:23Z</time>
      </trkpt>
      <trkpt lat="48.52346" lon="-2.63952">
        <ele>11</ele>
        <time>2019-03-01T09:02:27Z</time>
      </trkpt>
      <trkpt lat="48.52346" lon="-2.63947">
        <ele>13</ele>
        <time>2019-03-01T09:02:31Z</time>
      </trkpt>
      <trkpt lat="48.52346" lon="-2.63943">
        <ele>15</ele>
        <time>2019-03-01T09:02:35Z</time>
      </trkpt>
      <trkpt lat="48.52349" lon="-2.63938">
        <ele>16</ele>
        <time>2019-03-01T09:02:39Z</time>
      </trkpt>
      <trkpt lat="48.52351" lon="-2.63933">
        <ele>17</ele>
        <time>2019-03-01T09:02:43Z</time>
      </trkpt>
      <trkpt lat="48.5235" lon="-2.63928">
        <ele>17</ele>
        <time>2019-03-01T09:02:46Z</time>
      </trkpt>
      <trkpt lat="48.5235" lon="-2.63921">
        <ele>17</ele>
        <time>2019-03-01T09:02:50Z</time>
      </trkpt>
      <trkpt lat="48.52351" lon="-2.63916">
        <ele>17</ele>
        <time>2019-03-01T09:02:54Z</time>
      </trkpt>
      <trkpt lat="48.52354" lon="-2.63911">
        <ele>17</ele>
        <time>2019-03-01T09:02:58Z</time>
      </trkpt>
      <trkpt lat="48.52357" lon="-2.63906">
        <ele>17</ele>
        <time>2019-03-01T09:03:02Z</time>
      </trkpt>
      <trkpt lat="48.52359" lon="-2.63901">
        <ele>17</ele>
        <time>2019-03-01T09:03:06Z</time>
      </trkpt>
      <trkpt lat="48.52362" lon="-2.63897">
        <ele>17</ele>
        <time>2019-03-01T09:03:10Z</time>
      </trkpt>
      <trkpt lat="48.52364" lon="-2.63893">
        <ele>17</ele>
        <time>2019-03-01T09:03:14Z</time>
      </trkpt>
      <trkpt lat="48.52363" lon="-2.63887">
        <ele>16</ele>
        <time>2019-03-01T09:03:18Z</time>
      </trkpt>
      <trkpt lat="48.52362" lon="-2.63883">
        <ele>14</ele>
        <time>2019-03-01T09:03:22Z</time>
      </trkpt>
      <trkpt lat="48.52363" lon="-2.63878">
        <ele>12</ele>
        <time>2019-03-01T09:03:26Z</time>
      </trkpt>
      <trkpt lat="48.52363" lon="-2.63873">
        <ele>10</ele>
        <time>2019-03-01T09:03:30Z</time>
      </trkpt>
      <trkpt lat="48.52362" lon="-2.63869">
        <ele>10</ele>
        <time>2019-03-01T09:03:34Z</time>
      </trkpt>
      <trkpt lat="48.52362" lon="-2.63865">
        <ele>10</ele>
        <time>2019-03-01T09:03:37Z</time>
      </trkpt>
      <trkpt lat="48.5236" lon="-2.63859">
        <ele>9</ele>
        <time>2019-03-01T09:03:41Z</time>
      </trkpt>
      <trkpt lat="48.52359" lon="-2.63853">
        <ele>9</ele>
        <time>2019-03-01T09:03:45Z</time>
      </trkpt>
      <trkpt lat="48.52358" lon="-2.63849">
        <ele>9</ele>
        <time>2019-03-01T09:03:48Z</time>
      </trkpt>
      <trkpt lat="48.52357" lon="-2.63843">
        <ele>9</ele>
        <time>2019-03-01T09:03:51Z</time>
      </trkpt>
      <trkpt lat="48.52356" lon="-2.63838">
        <ele>8</ele>
        <time>2019-03-01T09:03:54Z</time>
      </trkpt>
      <trkpt lat="48.52355" lon="-2.63832">
        <ele>7</ele>
        <time>2019-03-01T09:03:57Z</time>
      </trkpt>
      <trkpt lat="48.52355" lon="-2.63828">
        <ele>7</ele>
        <time>2019-03-01T09:04:00Z</time>
      </trkpt>
      <trkpt lat="48.52354" lon="-2.63821">
        <ele>6</ele>
        <time>2019-03-01T09:04:04Z</time>
      </trkpt>
      <trkpt lat="48.52354" lon="-2.63816">
        <ele>6</ele>
        <time>2019-03-01T09:04:07Z</time>
      </trkpt>
      <trkpt lat="48.52355" lon="-2.6381">
        <ele>6</ele>
        <time>2019-03-01T09:04:10Z</time>
      </trkpt>
      <trkpt lat="48.52356" lon="-2.63805">
        <ele>6</ele>
        <time>2019-03-01T09:04:13Z</time>
      </trkpt>
      <trkpt lat="48.52357" lon="-2.63801">
        <ele>6</ele>
        <time>2019-03-01T09:04:17Z</time>
      </trkpt>
      <trkpt lat="48.52361" lon="-2.63797">
        <ele>6</ele>
        <time>2019-03-01T09:04:21Z</time>
      </trkpt>
      <trkpt lat="48.52363" lon="-2.63797">
        <ele>6</ele>
        <time>2019-03-01T09:04:24Z</time>
      </trkpt>
      <trkpt lat="48.52367" lon="-2.63798">
        <ele>6</ele>
        <time>2019-03-01T09:04:27Z</time>
      </trkpt>
      <trkpt lat="48.5237" lon="-2.63801">
        <ele>6</ele>
        <time>2019-03-01T09:04:30Z</time>
      </trkpt>
      <trkpt lat="48.52373" lon="-2.63802">
        <ele>6</ele>
        <time>2019-03-01T09:04:33Z</time>
      </trkpt>
      <trkpt lat="48.5238" lon="-2.63804">
        <ele>6</ele>
        <time>2019-03-01T09:04:37Z</time>
      </trkpt>
      <trkpt lat="48.52384" lon="-2.63801">
        <ele>6</ele>
        <time>2019-03-01T09:04:40Z</time>
      </trkpt>
      <trkpt lat="48.52387" lon="-2.63797">
        <ele>6</ele>
        <time>2019-03-01T09:04:44Z</time>
      </trkpt>
      <trkpt lat="48.52391" lon="-2.63794">
        <ele>7</ele>
        <time>2019-03-01T09:04:48Z</time>
      </trkpt>
      <trkpt lat="48.52394" lon="-2.63791">
        <ele>8</ele>
        <time>2019-03-01T09:04:52Z</time>
      </trkpt>
      <trkpt lat="48.52394" lon="-2.63787">
        <ele>9</ele>
        <time>2019-03-01T09:04:55Z</time>
      </trkpt>
      <trkpt lat="48.52395" lon="-2.63782">
        <ele>10</ele>
        <time>2019-03-01T09:04:58Z</time>
      </trkpt>
      <trkpt lat="48.52395" lon="-2.63777">
        <ele>11</ele>
        <time>2019-03-01T09:05:01Z</time>
      </trkpt>
      <trkpt lat="48.52396" lon="-2.63772">
        <ele>13</ele>
        <time>2019-03-01T09:05:04Z</time>
      </trkpt>
      <trkpt lat="48.52398" lon="-2.63768">
        <ele>14</ele>
        <time>2019-03-01T09:05:07Z</time>
      </trkpt>
      <trkpt lat="48.52399" lon="-2.63763">
        <ele>15</ele>
        <time>2019-03-01T09:05:10Z</time>
      </trkpt>
      <trkpt lat="48.52401" lon="-2.63758">
        <ele>16</ele>
        <time>2019-03-01T09:05:13Z</time>
      </trkpt>
      <trkpt lat="48.52403" lon="-2.63752">
        <ele>17</ele>
        <time>2019-03-01T09:05:17Z</time>
      </trkpt>
      <trkpt lat="48.52404" lon="-2.63746">
        <ele>17</ele>
        <time>2019-03-01T09:05:20Z</time>
      </trkpt>
      <trkpt lat="48.52406" lon="-2.63741">
        <ele>17</ele>
        <time>2019-03-01T09:05:23Z</time>
      </trkpt>
      <trkpt lat="48.52409" lon="-2.63735">
        <ele>17</ele>
        <time>2019-03-01T09:05:27Z</time>
      </trkpt>
      <trkpt lat="48.52412" lon="-2.6373">
        <ele>17</ele>
        <time>2019-03-01T09:05:31Z</time>
      </trkpt>
      <trkpt lat="48.52415" lon="-2.63724">
        <ele>17</ele>
        <time>2019-03-01T09:05:35Z</time>
      </trkpt>
      <trkpt lat="48.52416" lon="-2.63718">
        <ele>17</ele>
        <time>2019-03-01T09:05:38Z</time>
      </trkpt>
      <trkpt lat="48.52418" lon="-2.63712">
        <ele>17</ele>
        <time>2019-03-01T09:05:41Z</time>
      </trkpt>
      <trkpt lat="48.52419" lon="-2.63707">
        <ele>17</ele>
        <time>2019-03-01T09:05:44Z</time>
      </trkpt>
      <trkpt lat="48.52421" lon="-2.63702">
        <ele>17</ele>
        <time>2019-03-01T09:05:47Z</time>
      </trkpt>
      <trkpt lat="48.52422" lon="-2.63696">
        <ele>17</ele>
        <time>2019-03-01T09:05:50Z</time>
      </trkpt>
      <trkpt lat="48.52422" lon="-2.6369">
        <ele>17</ele>
        <time>2019-03-01T09:05:53Z</time>
      </trkpt>
      <trkpt lat="48.52422" lon="-2.63684">
        <ele>17</ele>
        <time>2019-03-01T09:05:56Z</time>
      </trkpt>
      <trkpt lat="48.52423" lon="-2.63678">
        <ele>17</ele>
        <time>2019-03-01T09:05:59Z</time>
      </trkpt>
      <trkpt lat="48.52423" lon="-2.63672">
        <ele>17</ele>
        <time>2019-03-01T09:06:02Z</time>
      </trkpt>
      <trkpt lat="48.52422" lon="-2.63667">
        <ele>17</ele>
        <time>2019-03-01T09:06:05Z</time>
      </trkpt>
      <trkpt lat="48.5242" lon="-2.63661">
        <ele>17</ele>
        <time>2019-03-01T09:06:08Z</time>
      </trkpt>
      <trkpt lat="48.52418" lon="-2.63656">
        <ele>17</ele>
        <time>2019-03-01T09:06:11Z</time>
      </trkpt>
      <trkpt lat="48.52416" lon="-2.6365">
        <ele>17</ele>
        <time>2019-03-01T09:06:15Z</time>
      </trkpt>
      <trkpt lat="48.52416" lon="-2.63644">
        <ele>17</ele>
        <time>2019-03-01T09:06:19Z</time>
      </trkpt>
      <trkpt lat="48.52417" lon="-2.63638">
        <ele>17</ele>
        <time>2019-03-01T09:06:22Z</time>
      </trkpt>
      <trkpt lat="48.52418" lon="-2.63633">
        <ele>17</ele>
        <time>2019-03-01T09:06:25Z</time>
      </trkpt>
      <trkpt lat="48.52419" lon="-2.63628">
        <ele>17</ele>
        <time>2019-03-01T09:06:28Z</time>
      </trkpt>
      <trkpt lat="48.5242" lon="-2.63623">
        <ele>17</ele>
        <time>2019-03-01T09:06:31Z</time>
      </trkpt>
      <trkpt lat="48.52422" lon="-2.63617">
        <ele>17</ele>
        <time>2019-03-01T09:06:34Z</time>
      </trkpt>
      <trkpt lat="48.52423" lon="-2.63612">
        <ele>18</ele>
        <time>2019-03-01T09:06:37Z</time>
      </trkpt>
      <trkpt lat="48.52424" lon="-2.63606">
        <ele>19</ele>
        <time>2019-03-01T09:06:40Z</time>
      </trkpt>
      <trkpt lat="48.52425" lon="-2.636">
        <ele>19</ele>
        <time>2019-03-01T09:06:43Z</time>
      </trkpt>
      <trkpt lat="48.52426" lon="-2.63596">
        <ele>20</ele>
        <time>2019-03-01T09:06:46Z</time>
      </trkpt>
      <trkpt lat="48.52427" lon="-2.6359">
        <ele>20</ele>
        <time>2019-03-01T09:06:49Z</time>
      </trkpt>
      <trkpt lat="48.52428" lon="-2.63584">
        <ele>20</ele>
        <time>2019-03-01T09:06:52Z</time>
      </trkpt>
      <trkpt lat="48.5243" lon="-2.63578">
        <ele>20</ele>
        <time>2019-03-01T09:06:56Z</time>
      </trkpt>
      <trkpt lat="48.52432" lon="-2.63573">
        <ele>20</ele>
        <time>2019-03-01T09:06:59Z</time>
      </trkpt>
      <trkpt lat="48.52435" lon="-2.63566">
        <ele>21</ele>
        <time>2019-03-01T09:07:03Z</time>
      </trkpt>
      <trkpt lat="48.52437" lon="-2.63561">
        <ele>21</ele>
        <time>2019-03-01T09:07:06Z</time>
      </trkpt>
      <trkpt lat="48.52439" lon="-2.63556">
        <ele>21</ele>
        <time>2019-03-01T09:07:09Z</time>
      </trkpt>
      <trkpt lat="48.52442" lon="-2.63549">
        <ele>21</ele>
        <time>2019-03-01T09:07:13Z</time>
      </trkpt>
      <trkpt lat="48.52445" lon="-2.63543">
        <ele>21</ele>
        <time>2019-03-01T09:07:17Z</time>
      </trkpt>
      <trkpt lat="48.52448" lon="-2.63538">
        <ele>22</ele>
        <time>2019-03-01T09:07:21Z</time>
      </trkpt>
      <trkpt lat="48.52452" lon="-2.63533">
        <ele>22</ele>
        <time>2019-03-01T09:07:24Z</time>
      </trkpt>
      <trkpt lat="48.52455" lon="-2.6353">
        <ele>22</ele>
        <time>2019-03-01T09:07:27Z</time>
      </trkpt>
      <trkpt lat="48.52459" lon="-2.63526">
        <ele>22</ele>
        <time>2019-03-01T09:07:30Z</time>
      </trkpt>
      <trkpt lat="48.52461" lon="-2.63521">
        <ele>22</ele>
        <time>2019-03-01T09:07:33Z</time>
      </trkpt>
      <trkpt lat="48.52462" lon="-2.63515">
        <ele>22</ele>
        <time>2019-03-01T09:07:36Z</time>
      </trkpt>
      <trkpt lat="48.52462" lon="-2.63509">
        <ele>22</ele>
        <time>2019-03-01T09:07:39Z</time>
      </trkpt>
      <trkpt lat="48.52464" lon="-2.63503">
        <ele>22</ele>
        <time>2019-03-01T09:07:42Z</time>
      </trkpt>
      <trkpt lat="48.52464" lon="-2.63497">
        <ele>22</ele>
        <time>2019-03-01T09:07:45Z</time>
      </trkpt>
      <trkpt lat="48.52464" lon="-2.63491">
        <ele>22</ele>
        <time>2019-03-01T09:07:48Z</time>
      </trkpt>
      <trkpt lat="48.52464" lon="-2.63486">
        <ele>22</ele>
        <time>2019-03-01T09:07:51Z</time>
      </trkpt>
      <trkpt lat="48.52463" lon="-2.6348">
        <ele>22</ele>
        <time>2019-03-01T09:07:54Z</time>
      </trkpt>
      <trkpt lat="48.52461" lon="-2.63474">
        <ele>22</ele>
        <time>2019-03-01T09:07:57Z</time>
      </trkpt>
      <trkpt lat="48.52461" lon="-2.63469">
        <ele>22</ele>
        <time>2019-03-01T09:08:00Z</time>
      </trkpt>
      <trkpt lat="48.5246" lon="-2.63463">
        <ele>22</ele>
        <time>2019-03-01T09:08:03Z</time>
      </trkpt>
      <trkpt lat="48.5246" lon="-2.63458">
        <ele>22</ele>
        <time>2019-03-01T09:08:06Z</time>
      </trkpt>
      <trkpt lat="48.52462" lon="-2.63453">
        <ele>22</ele>
        <time>2019-03-01T09:08:09Z</time>
      </trkpt>
      <trkpt lat="48.52462" lon="-2.63448">
        <ele>22</ele>
        <time>2019-03-01T09:08:12Z</time>
      </trkpt>
      <trkpt lat="48.52462" lon="-2.63443">
        <ele>22</ele>
        <time>2019-03-01T09:08:15Z</time>
      </trkpt>
      <trkpt lat="48.52459" lon="-2.63438">
        <ele>22</ele>
        <time>2019-03-01T09:08:18Z</time>
      </trkpt>
      <trkpt lat="48.52457" lon="-2.63432">
        <ele>22</ele>
        <time>2019-03-01T09:08:22Z</time>
      </trkpt>
      <trkpt lat="48.52456" lon="-2.6343">
        <ele>22</ele>
        <time>2019-03-01T09:08:26Z</time>
      </trkpt>
      <trkpt lat="48.52453" lon="-2.63425">
        <ele>22</ele>
        <time>2019-03-01T09:08:30Z</time>
      </trkpt>
      <trkpt lat="48.52452" lon="-2.63421">
        <ele>22</ele>
        <time>2019-03-01T09:08:36Z</time>
      </trkpt>
      <trkpt lat="48.52452" lon="-2.63419">
        <ele>22</ele>
        <time>2019-03-01T09:08:39Z</time>
      </trkpt>
      <trkpt lat="48.52451" lon="-2.63414">
        <ele>22</ele>
        <time>2019-03-01T09:08:42Z</time>
      </trkpt>
      <trkpt lat="48.52453" lon="-2.63408">
        <ele>22</ele>
        <time>2019-03-01T09:08:46Z</time>
      </trkpt>
      <trkpt lat="48.52454" lon="-2.63404">
        <ele>22</ele>
        <time>2019-03-01T09:08:51Z</time>
      </trkpt>
      <trkpt lat="48.52455" lon="-2.63401">
        <ele>22</ele>
        <time>2019-03-01T09:08:55Z</time>
      </trkpt>
      <trkpt lat="48.52457" lon="-2.63396">
        <ele>22</ele>
        <time>2019-03-01T09:08:59Z</time>
      </trkpt>
      <trkpt lat="48.52459" lon="-2.63391">
        <ele>22</ele>
        <time>2019-03-01T09:09:02Z</time>
      </trkpt>
      <trkpt lat="48.52462" lon="-2.63385">
        <ele>22</ele>
        <time>2019-03-01T09:09:06Z</time>
      </trkpt>
      <trkpt lat="48.52464" lon="-2.63381">
        <ele>22</ele>
        <time>2019-03-01T09:09:09Z</time>
      </trkpt>
      <trkpt lat="48.52466" lon="-2.63376">
        <ele>22</ele>
        <time>2019-03-01T09:09:12Z</time>
      </trkpt>
      <trkpt lat="48.52469" lon="-2.63372">
        <ele>21</ele>
        <time>2019-03-01T09:09:16Z</time>
      </trkpt>
      <trkpt lat="48.52472" lon="-2.63368">
        <ele>21</ele>
        <time>2019-03-01T09:09:19Z</time>
      </trkpt>
      <trkpt lat="48.52475" lon="-2.63363">
        <ele>21</ele>
        <time>2019-03-01T09:09:22Z</time>
      </trkpt>
      <trkpt lat="48.5248" lon="-2.63358">
        <ele>21</ele>
        <time>2019-03-01T09:09:26Z</time>
      </trkpt>
      <trkpt lat="48.52483" lon="-2.63353">
        <ele>21</ele>
        <time>2019-03-01T09:09:29Z</time>
      </trkpt>
      <trkpt lat="48.52483" lon="-2.63348">
        <ele>21</ele>
        <time>2019-03-01T09:09:32Z</time>
      </trkpt>
      <trkpt lat="48.52484" lon="-2.63342">
        <ele>21</ele>
        <time>2019-03-01T09:09:36Z</time>
      </trkpt>
      <trkpt lat="48.52485" lon="-2.63336">
        <ele>21</ele>
        <time>2019-03-01T09:09:39Z</time>
      </trkpt>
      <trkpt lat="48.52486" lon="-2.6333">
        <ele>20</ele>
        <time>2019-03-01T09:09:42Z</time>
      </trkpt>
      <trkpt lat="48.52488" lon="-2.63324">
        <ele>20</ele>
        <time>2019-03-01T09:09:45Z</time>
      </trkpt>
      <trkpt lat="48.52491" lon="-2.63319">
        <ele>19</ele>
        <time>2019-03-01T09:09:48Z</time>
      </trkpt>
      <trkpt lat="48.52495" lon="-2.63314">
        <ele>19</ele>
        <time>2019-03-01T09:09:51Z</time>
      </trkpt>
      <trkpt lat="48.52497" lon="-2.63308">
        <ele>19</ele>
        <time>2019-03-01T09:09:54Z</time>
      </trkpt>
      <trkpt lat="48.52502" lon="-2.63303">
        <ele>19</ele>
        <time>2019-03-01T09:09:58Z</time>
      </trkpt>
      <trkpt lat="48.52504" lon="-2.63296">
        <ele>19</ele>
        <time>2019-03-01T09:10:02Z</time>
      </trkpt>
      <trkpt lat="48.52505" lon="-2.63294">
        <ele>19</ele>
        <time>2019-03-01T09:10:05Z</time>
      </trkpt>
      <trkpt lat="48.52507" lon="-2.63291">
        <ele>19</ele>
        <time>2019-03-01T09:10:08Z</time>
      </trkpt>
      <trkpt lat="48.5251" lon="-2.63286">
        <ele>19</ele>
        <time>2019-03-01T09:10:11Z</time>
      </trkpt>
      <trkpt lat="48.52512" lon="-2.63282">
        <ele>19</ele>
        <time>2019-03-01T09:10:14Z</time>
      </trkpt>
      <trkpt lat="48.52515" lon="-2.63277">
        <ele>19</ele>
        <time>2019-03-01T09:10:17Z</time>
      </trkpt>
      <trkpt lat="48.52517" lon="-2.63272">
        <ele>19</ele>
        <time>2019-03-01T09:10:20Z</time>
      </trkpt>
      <trkpt lat="48.52519" lon="-2.63268">
        <ele>19</ele>
        <time>2019-03-01T09:10:24Z</time>
      </trkpt>
      <trkpt lat="48.52522" lon="-2.63263">
        <ele>19</ele>
        <time>2019-03-01T09:10:27Z</time>
      </trkpt>
      <trkpt lat="48.52523" lon="-2.63256">
        <ele>19</ele>
        <time>2019-03-01T09:10:30Z</time>
      </trkpt>
      <trkpt lat="48.52524" lon="-2.6325">
        <ele>19</ele>
        <time>2019-03-01T09:10:33Z</time>
      </trkpt>
      <trkpt lat="48.52525" lon="-2.63245">
        <ele>19</ele>
        <time>2019-03-01T09:10:37Z</time>
      </trkpt>
      <trkpt lat="48.52527" lon="-2.6324">
        <ele>19</ele>
        <time>2019-03-01T09:10:42Z</time>
      </trkpt>
      <trkpt lat="48.52528" lon="-2.63234">
        <ele>19</ele>
        <time>2019-03-01T09:10:46Z</time>
      </trkpt>
      <trkpt lat="48.52529" lon="-2.6323">
        <ele>19</ele>
        <time>2019-03-01T09:10:50Z</time>
      </trkpt>
      <trkpt lat="48.52531" lon="-2.63225">
        <ele>19</ele>
        <time>2019-03-01T09:10:53Z</time>
      </trkpt>
      <trkpt lat="48.52533" lon="-2.6322">
        <ele>19</ele>
        <time>2019-03-01T09:10:56Z</time>
      </trkpt>
      <trkpt lat="48.52535" lon="-2.63214">
        <ele>19</ele>
        <time>2019-03-01T09:10:59Z</time>
      </trkpt>
      <trkpt lat="48.52537" lon="-2.63209">
        <ele>19</ele>
        <time>2019-03-01T09:11:02Z</time>
      </trkpt>
      <trkpt lat="48.52538" lon="-2.63204">
        <ele>19</ele>
        <time>2019-03-01T09:11:05Z</time>
      </trkpt>
      <trkpt lat="48.52541" lon="-2.63199">
        <ele>19</ele>
        <time>2019-03-01T09:11:08Z</time>
      </trkpt>
      <trkpt lat="48.52542" lon="-2.63195">
        <ele>19</ele>
        <time>2019-03-01T09:11:12Z</time>
      </trkpt>
      <trkpt lat="48.52545" lon="-2.63192">
        <ele>19</ele>
        <time>2019-03-01T09:11:16Z</time>
      </trkpt>
      <trkpt lat="48.52547" lon="-2.63191">
        <ele>19</ele>
        <time>2019-03-01T09:11:19Z</time>
      </trkpt>
      <trkpt lat="48.52551" lon="-2.63185">
        <ele>19</ele>
        <time>2019-03-01T09:11:23Z</time>
      </trkpt>
      <trkpt lat="48.52553" lon="-2.6318">
        <ele>18</ele>
        <time>2019-03-01T09:11:26Z</time>
      </trkpt>
      <trkpt lat="48.52556" lon="-2.63174">
        <ele>18</ele>
        <time>2019-03-01T09:11:30Z</time>
      </trkpt>
      <trkpt lat="48.5256" lon="-2.6317">
        <ele>18</ele>
        <time>2019-03-01T09:11:35Z</time>
      </trkpt>
      <trkpt lat="48.52562" lon="-2.63165">
        <ele>18</ele>
        <time>2019-03-01T09:11:39Z</time>
      </trkpt>
      <trkpt lat="48.52565" lon="-2.63162">
        <ele>18</ele>
        <time>2019-03-01T09:11:42Z</time>
      </trkpt>
      <trkpt lat="48.52569" lon="-2.63157">
        <ele>18</ele>
        <time>2019-03-01T09:11:46Z</time>
      </trkpt>
      <trkpt lat="48.52571" lon="-2.63152">
        <ele>18</ele>
        <time>2019-03-01T09:11:49Z</time>
      </trkpt>
      <trkpt lat="48.52574" lon="-2.63147">
        <ele>17</ele>
        <time>2019-03-01T09:11:52Z</time>
      </trkpt>
      <trkpt lat="48.52576" lon="-2.63142">
        <ele>17</ele>
        <time>2019-03-01T09:11:55Z</time>
      </trkpt>
      <trkpt lat="48.52577" lon="-2.63138">
        <ele>16</ele>
        <time>2019-03-01T09:11:59Z</time>
      </trkpt>
      <trkpt lat="48.52577" lon="-2.63133">
        <ele>16</ele>
        <time>2019-03-01T09:12:02Z</time>
      </trkpt>
      <trkpt lat="48.52579" lon="-2.63127">
        <ele>16</ele>
        <time>2019-03-01T09:12:06Z</time>
      </trkpt>
      <trkpt lat="48.52581" lon="-2.63124">
        <ele>15</ele>
        <time>2019-03-01T09:12:09Z</time>
      </trkpt>
      <trkpt lat="48.52581" lon="-2.63118">
        <ele>15</ele>
        <time>2019-03-01T09:12:12Z</time>
      </trkpt>
      <trkpt lat="48.52582" lon="-2.63112">
        <ele>15</ele>
        <time>2019-03-01T09:12:15Z</time>
      </trkpt>
      <trkpt lat="48.52583" lon="-2.63106">
        <ele>14</ele>
        <time>2019-03-01T09:12:18Z</time>
      </trkpt>
      <trkpt lat="48.52583" lon="-2.63099">
        <ele>14</ele>
        <time>2019-03-01T09:12:21Z</time>
      </trkpt>
      <trkpt lat="48.52583" lon="-2.63093">
        <ele>14</ele>
        <time>2019-03-01T09:12:24Z</time>
      </trkpt>
      <trkpt lat="48.52584" lon="-2.63088">
        <ele>14</ele>
        <time>2019-03-01T09:12:27Z</time>
      </trkpt>
      <trkpt lat="48.52584" lon="-2.63082">
        <ele>14</ele>
        <time>2019-03-01T09:12:30Z</time>
      </trkpt>
      <trkpt lat="48.52582" lon="-2.63076">
        <ele>14</ele>
        <time>2019-03-01T09:12:33Z</time>
      </trkpt>
      <trkpt lat="48.52581" lon="-2.63071">
        <ele>14</ele>
        <time>2019-03-01T09:12:36Z</time>
      </trkpt>
      <trkpt lat="48.52582" lon="-2.63064">
        <ele>14</ele>
        <time>2019-03-01T09:12:39Z</time>
      </trkpt>
      <trkpt lat="48.52581" lon="-2.63056">
        <ele>14</ele>
        <time>2019-03-01T09:12:42Z</time>
      </trkpt>
      <trkpt lat="48.5258" lon="-2.6305">
        <ele>14</ele>
        <time>2019-03-01T09:12:45Z</time>
      </trkpt>
      <trkpt lat="48.5258" lon="-2.63045">
        <ele>14</ele>
        <time>2019-03-01T09:12:48Z</time>
      </trkpt>
      <trkpt lat="48.5258" lon="-2.6304">
        <ele>14</ele>
        <time>2019-03-01T09:12:51Z</time>
      </trkpt>
      <trkpt lat="48.5258" lon="-2.63034">
        <ele>14</ele>
        <time>2019-03-01T09:12:54Z</time>
      </trkpt>
      <trkpt lat="48.52582" lon="-2.63029">
        <ele>14</ele>
        <time>2019-03-01T09:12:58Z</time>
      </trkpt>
      <trkpt lat="48.52584" lon="-2.63023">
        <ele>14</ele>
        <time>2019-03-01T09:13:01Z</time>
      </trkpt>
      <trkpt lat="48.52584" lon="-2.63016">
        <ele>14</ele>
        <time>2019-03-01T09:13:05Z</time>
      </trkpt>
      <trkpt lat="48.52584" lon="-2.63011">
        <ele>12</ele>
        <time>2019-03-01T09:13:09Z</time>
      </trkpt>
      <trkpt lat="48.52583" lon="-2.63005">
        <ele>12</ele>
        <time>2019-03-01T09:13:12Z</time>
      </trkpt>
      <trkpt lat="48.52582" lon="-2.63">
        <ele>12</ele>
        <time>2019-03-01T09:13:15Z</time>
      </trkpt>
      <trkpt lat="48.52579" lon="-2.62994">
        <ele>12</ele>
        <time>2019-03-01T09:13:19Z</time>
      </trkpt>
      <trkpt lat="48.52576" lon="-2.6299">
        <ele>12</ele>
        <time>2019-03-01T09:13:23Z</time>
      </trkpt>
      <trkpt lat="48.52573" lon="-2.62989">
        <ele>12</ele>
        <time>2019-03-01T09:13:26Z</time>
      </trkpt>
      <trkpt lat="48.5257" lon="-2.62989">
        <ele>12</ele>
        <time>2019-03-01T09:13:30Z</time>
      </trkpt>
      <trkpt lat="48.52565" lon="-2.62988">
        <ele>12</ele>
        <time>2019-03-01T09:13:33Z</time>
      </trkpt>
      <trkpt lat="48.52562" lon="-2.62988">
        <ele>12</ele>
        <time>2019-03-01T09:13:36Z</time>
      </trkpt>
      <trkpt lat="48.52558" lon="-2.62988">
        <ele>12</ele>
        <time>2019-03-01T09:13:40Z</time>
      </trkpt>
      <trkpt lat="48.52555" lon="-2.62987">
        <ele>12</ele>
        <time>2019-03-01T09:13:43Z</time>
      </trkpt>
      <trkpt lat="48.52551" lon="-2.62986">
        <ele>12</ele>
        <time>2019-03-01T09:13:46Z</time>
      </trkpt>
      <trkpt lat="48.52547" lon="-2.62987">
        <ele>12</ele>
        <time>2019-03-01T09:13:49Z</time>
      </trkpt>
      <trkpt lat="48.52542" lon="-2.62988">
        <ele>12</ele>
        <time>2019-03-01T09:13:53Z</time>
      </trkpt>
      <trkpt lat="48.52539" lon="-2.6299">
        <ele>12</ele>
        <time>2019-03-01T09:13:56Z</time>
      </trkpt>
      <trkpt lat="48.52536" lon="-2.62991">
        <ele>12</ele>
        <time>2019-03-01T09:13:59Z</time>
      </trkpt>
      <trkpt lat="48.52532" lon="-2.62993">
        <ele>12</ele>
        <time>2019-03-01T09:14:02Z</time>
      </trkpt>
      <trkpt lat="48.52527" lon="-2.62995">
        <ele>12</ele>
        <time>2019-03-01T09:14:05Z</time>
      </trkpt>
      <trkpt lat="48.52523" lon="-2.62997">
        <ele>12</ele>
        <time>2019-03-01T09:14:08Z</time>
      </trkpt>
      <trkpt lat="48.52519" lon="-2.62998">
        <ele>12</ele>
        <time>2019-03-01T09:14:11Z</time>
      </trkpt>
      <trkpt lat="48.52515" lon="-2.62996">
        <ele>12</ele>
        <time>2019-03-01T09:14:14Z</time>
      </trkpt>
      <trkpt lat="48.5251" lon="-2.62994">
        <ele>12</ele>
        <time>2019-03-01T09:14:17Z</time>
      </trkpt>
      <trkpt lat="48.52505" lon="-2.62991">
        <ele>12</ele>
        <time>2019-03-01T09:14:21Z</time>
      </trkpt>
      <trkpt lat="48.52502" lon="-2.6299">
        <ele>12</ele>
        <time>2019-03-01T09:14:24Z</time>
      </trkpt>
      <trkpt lat="48.52497" lon="-2.62988">
        <ele>12</ele>
        <time>2019-03-01T09:14:27Z</time>
      </trkpt>
      <trkpt lat="48.52492" lon="-2.62985">
        <ele>12</ele>
        <time>2019-03-01T09:14:31Z</time>
      </trkpt>
      <trkpt lat="48.52489" lon="-2.62984">
        <ele>12</ele>
        <time>2019-03-01T09:14:34Z</time>
      </trkpt>
      <trkpt lat="48.52486" lon="-2.62981">
        <ele>12</ele>
        <time>2019-03-01T09:14:37Z</time>
      </trkpt>
      <trkpt lat="48.52482" lon="-2.62978">
        <ele>14</ele>
        <time>2019-03-01T09:14:42Z</time>
      </trkpt>
      <trkpt lat="48.52479" lon="-2.62975">
        <ele>14</ele>
        <time>2019-03-01T09:14:45Z</time>
      </trkpt>
      <trkpt lat="48.52476" lon="-2.62972">
        <ele>16</ele>
        <time>2019-03-01T09:14:49Z</time>
      </trkpt>
      <trkpt lat="48.52473" lon="-2.62969">
        <ele>16</ele>
        <time>2019-03-01T09:14:52Z</time>
      </trkpt>
      <trkpt lat="48.52468" lon="-2.62965">
        <ele>16</ele>
        <time>2019-03-01T09:14:56Z</time>
      </trkpt>
      <trkpt lat="48.52465" lon="-2.62959">
        <ele>16</ele>
        <time>2019-03-01T09:14:59Z</time>
      </trkpt>
      <trkpt lat="48.52462" lon="-2.62955">
        <ele>17</ele>
        <time>2019-03-01T09:15:03Z</time>
      </trkpt>
      <trkpt lat="48.52459" lon="-2.62952">
        <ele>17</ele>
        <time>2019-03-01T09:15:07Z</time>
      </trkpt>
      <trkpt lat="48.52456" lon="-2.62948">
        <ele>16</ele>
        <time>2019-03-01T09:15:11Z</time>
      </trkpt>
      <trkpt lat="48.52454" lon="-2.62945">
        <ele>14</ele>
        <time>2019-03-01T09:15:14Z</time>
      </trkpt>
      <trkpt lat="48.52452" lon="-2.62943">
        <ele>11</ele>
        <time>2019-03-01T09:15:18Z</time>
      </trkpt>
      <trkpt lat="48.5245" lon="-2.62938">
        <ele>10</ele>
        <time>2019-03-01T09:15:22Z</time>
      </trkpt>
      <trkpt lat="48.52447" lon="-2.62933">
        <ele>10</ele>
        <time>2019-03-01T09:15:25Z</time>
      </trkpt>
      <trkpt lat="48.52446" lon="-2.6293">
        <ele>10</ele>
        <time>2019-03-01T09:15:28Z</time>
      </trkpt>
      <trkpt lat="48.52444" lon="-2.62925">
        <ele>8</ele>
        <time>2019-03-01T09:15:32Z</time>
      </trkpt>
      <trkpt lat="48.52443" lon="-2.6292">
        <ele>7</ele>
        <time>2019-03-01T09:15:35Z</time>
      </trkpt>
      <trkpt lat="48.52441" lon="-2.62913">
        <ele>7</ele>
        <time>2019-03-01T09:15:39Z</time>
      </trkpt>
      <trkpt lat="48.5244" lon="-2.62909">
        <ele>7</ele>
        <time>2019-03-01T09:15:42Z</time>
      </trkpt>
      <trkpt lat="48.52438" lon="-2.62902">
        <ele>7</ele>
        <time>2019-03-01T09:15:45Z</time>
      </trkpt>
      <trkpt lat="48.52437" lon="-2.62897">
        <ele>7</ele>
        <time>2019-03-01T09:15:49Z</time>
      </trkpt>
      <trkpt lat="48.52436" lon="-2.62893">
        <ele>6</ele>
        <time>2019-03-01T09:15:53Z</time>
      </trkpt>
      <trkpt lat="48.52434" lon="-2.62886">
        <ele>2</ele>
        <time>2019-03-01T09:15:57Z</time>
      </trkpt>
      <trkpt lat="48.52433" lon="-2.62878">
        <ele>2</ele>
        <time>2019-03-01T09:16:01Z</time>
      </trkpt>
      <trkpt lat="48.52433" lon="-2.62873">
        <ele>2</ele>
        <time>2019-03-01T09:16:04Z</time>
      </trkpt>
      <trkpt lat="48.52431" lon="-2.62867">
        <ele>3</ele>
        <time>2019-03-01T09:16:08Z</time>
      </trkpt>
      <trkpt lat="48.52431" lon="-2.6286">
        <ele>5</ele>
        <time>2019-03-01T09:16:11Z</time>
      </trkpt>
      <trkpt lat="48.52431" lon="-2.62854">
        <ele>6</ele>
        <time>2019-03-01T09:16:14Z</time>
      </trkpt>
      <trkpt lat="48.52429" lon="-2.6285">
        <ele>6</ele>
        <time>2019-03-01T09:16:17Z</time>
      </trkpt>
      <trkpt lat="48.52428" lon="-2.62844">
        <ele>6</ele>
        <time>2019-03-01T09:16:21Z</time>
      </trkpt>
      <trkpt lat="48.5243" lon="-2.62838">
        <ele>6</ele>
        <time>2019-03-01T09:16:24Z</time>
      </trkpt>
      <trkpt lat="48.52425" lon="-2.62832">
        <ele>6</ele>
        <time>2019-03-01T09:16:27Z</time>
      </trkpt>
      <trkpt lat="48.52422" lon="-2.62827">
        <ele>6</ele>
        <time>2019-03-01T09:16:30Z</time>
      </trkpt>
      <trkpt lat="48.5242" lon="-2.62823">
        <ele>6</ele>
        <time>2019-03-01T09:16:34Z</time>
      </trkpt>
      <trkpt lat="48.52418" lon="-2.6282">
        <ele>6</ele>
        <time>2019-03-01T09:16:38Z</time>
      </trkpt>
      <trkpt lat="48.52415" lon="-2.62816">
        <ele>6</ele>
        <time>2019-03-01T09:16:42Z</time>
      </trkpt>
      <trkpt lat="48.52411" lon="-2.62813">
        <ele>6</ele>
        <time>2019-03-01T09:16:45Z</time>
      </trkpt>
      <trkpt lat="48.52407" lon="-2.62811">
        <ele>5</ele>
        <time>2019-03-01T09:16:49Z</time>
      </trkpt>
      <trkpt lat="48.52405" lon="-2.62807">
        <ele>5</ele>
        <time>2019-03-01T09:16:53Z</time>
      </trkpt>
      <trkpt lat="48.52403" lon="-2.62802">
        <ele>5</ele>
        <time>2019-03-01T09:16:56Z</time>
      </trkpt>
      <trkpt lat="48.524" lon="-2.62797">
        <ele>6</ele>
        <time>2019-03-01T09:16:59Z</time>
      </trkpt>
      <trkpt lat="48.52397" lon="-2.62795">
        <ele>8</ele>
        <time>2019-03-01T09:17:02Z</time>
      </trkpt>
      <trkpt lat="48.52393" lon="-2.62794">
        <ele>8</ele>
        <time>2019-03-01T09:17:05Z</time>
      </trkpt>
      <trkpt lat="48.5239" lon="-2.62794">
        <ele>8</ele>
        <time>2019-03-01T09:17:08Z</time>
      </trkpt>
      <trkpt lat="48.52386" lon="-2.62796">
        <ele>8</ele>
        <time>2019-03-01T09:17:12Z</time>
      </trkpt>
      <trkpt lat="48.52381" lon="-2.62798">
        <ele>8</ele>
        <time>2019-03-01T09:17:16Z</time>
      </trkpt>
      <trkpt lat="48.52378" lon="-2.62798">
        <ele>8</ele>
        <time>2019-03-01T09:17:19Z</time>
      </trkpt>
      <trkpt lat="48.52376" lon="-2.62801">
        <ele>8</ele>
        <time>2019-03-01T09:17:23Z</time>
      </trkpt>
      <trkpt lat="48.52373" lon="-2.62804">
        <ele>9</ele>
        <time>2019-03-01T09:17:27Z</time>
      </trkpt>
      <trkpt lat="48.5237" lon="-2.62807">
        <ele>10</ele>
        <time>2019-03-01T09:17:31Z</time>
      </trkpt>
      <trkpt lat="48.52367" lon="-2.62811">
        <ele>13</ele>
        <time>2019-03-01T09:17:35Z</time>
      </trkpt>
      <trkpt lat="48.52364" lon="-2.62816">
        <ele>16</ele>
        <time>2019-03-01T09:17:39Z</time>
      </trkpt>
      <trkpt lat="48.52362" lon="-2.62821">
        <ele>17</ele>
        <time>2019-03-01T09:17:43Z</time>
      </trkpt>
      <trkpt lat="48.52359" lon="-2.62825">
        <ele>18</ele>
        <time>2019-03-01T09:17:47Z</time>
      </trkpt>
      <trkpt lat="48.52357" lon="-2.62829">
        <ele>18</ele>
        <time>2019-03-01T09:17:51Z</time>
      </trkpt>
      <trkpt lat="48.52356" lon="-2.62834">
        <ele>18</ele>
        <time>2019-03-01T09:17:55Z</time>
      </trkpt>
      <trkpt lat="48.52354" lon="-2.62836">
        <ele>19</ele>
        <time>2019-03-01T09:17:58Z</time>
      </trkpt>
      <trkpt lat="48.52353" lon="-2.62837">
        <ele>21</ele>
        <time>2019-03-01T09:18:01Z</time>
      </trkpt>
      <trkpt lat="48.5235" lon="-2.62838">
        <ele>24</ele>
        <time>2019-03-01T09:18:05Z</time>
      </trkpt>
      <trkpt lat="48.52349" lon="-2.62839">
        <ele>27</ele>
        <time>2019-03-01T09:18:11Z</time>
      </trkpt>
      <trkpt lat="48.52348" lon="-2.62843">
        <ele>31</ele>
        <time>2019-03-01T09:18:21Z</time>
      </trkpt>
      <trkpt lat="48.5235" lon="-2.62843">
        <ele>30</ele>
        <time>2019-03-01T09:18:27Z</time>
      </trkpt>
      <trkpt lat="48.52349" lon="-2.62844">
        <ele>30</ele>
        <time>2019-03-01T09:18:46Z</time>
      </trkpt>
      <trkpt lat="48.52348" lon="-2.62845">
        <ele>30</ele>
        <time>2019-03-01T09:18:53Z</time>
      </trkpt>
      <trkpt lat="48.52348" lon="-2.62842">
        <ele>30</ele>
        <time>2019-03-01T09:19:04Z</time>
      </trkpt>
      <trkpt lat="48.52349" lon="-2.62839">
        <ele>30</ele>
        <time>2019-03-01T09:19:11Z</time>
      </trkpt>
      <trkpt lat="48.5235" lon="-2.62839">
        <ele>30</ele>
        <time>2019-03-01T09:19:19Z</time>
      </trkpt>
      <trkpt lat="48.52351" lon="-2.62841">
        <ele>30</ele>
        <time>2019-03-01T09:19:27Z</time>
      </trkpt>
      <trkpt lat="48.5235" lon="-2.6284">
        <ele>30</ele>
        <time>2019-03-01T09:19:32Z</time>
      </trkpt>
      <trkpt lat="48.52348" lon="-2.62842">
        <ele>30</ele>
        <time>2019-03-01T09:19:35Z</time>
      </trkpt>
      <trkpt lat="48.52345" lon="-2.62842">
        <ele>30</ele>
        <time>2019-03-01T09:19:42Z</time>
      </trkpt>
      <trkpt lat="48.52347" lon="-2.62842">
        <ele>30</ele>
        <time>2019-03-01T09:19:52Z</time>
      </trkpt>
      <trkpt lat="48.52349" lon="-2.62838">
        <ele>31</ele>
        <time>2019-03-01T09:19:56Z</time>
      </trkpt>
      <trkpt lat="48.52348" lon="-2.62835">
        <ele>36</ele>
        <time>2019-03-01T09:20:05Z</time>
      </trkpt>
      <trkpt lat="48.52347" lon="-2.62838">
        <ele>38</ele>
        <time>2019-03-01T09:20:08Z</time>
      </trkpt>
      <trkpt lat="48.52344" lon="-2.62841">
        <ele>39</ele>
        <time>2019-03-01T09:20:11Z</time>
      </trkpt>
      <trkpt lat="48.52341" lon="-2.62845">
        <ele>39</ele>
        <time>2019-03-01T09:20:14Z</time>
      </trkpt>
      <trkpt lat="48.52338" lon="-2.6285">
        <ele>39</ele>
        <time>2019-03-01T09:20:18Z</time>
      </trkpt>
      <trkpt lat="48.52334" lon="-2.62854">
        <ele>39</ele>
        <time>2019-03-01T09:20:21Z</time>
      </trkpt>
      <trkpt lat="48.52331" lon="-2.62858">
        <ele>39</ele>
        <time>2019-03-01T09:20:24Z</time>
      </trkpt>
      <trkpt lat="48.52328" lon="-2.62861">
        <ele>39</ele>
        <time>2019-03-01T09:20:27Z</time>
      </trkpt>
      <trkpt lat="48.52324" lon="-2.62864">
        <ele>39</ele>
        <time>2019-03-01T09:20:30Z</time>
      </trkpt>
      <trkpt lat="48.52322" lon="-2.6287">
        <ele>39</ele>
        <time>2019-03-01T09:20:33Z</time>
      </trkpt>
      <trkpt lat="48.5232" lon="-2.62873">
        <ele>39</ele>
        <time>2019-03-01T09:20:36Z</time>
      </trkpt>
      <trkpt lat="48.52317" lon="-2.62876">
        <ele>39</ele>
        <time>2019-03-01T09:20:39Z</time>
      </trkpt>
      <trkpt lat="48.52312" lon="-2.62881">
        <ele>37</ele>
        <time>2019-03-01T09:20:43Z</time>
      </trkpt>
      <trkpt lat="48.52311" lon="-2.62883">
        <ele>37</ele>
        <time>2019-03-01T09:20:46Z</time>
      </trkpt>
      <trkpt lat="48.52306" lon="-2.62889">
        <ele>37</ele>
        <time>2019-03-01T09:20:52Z</time>
      </trkpt>
      <trkpt lat="48.52302" lon="-2.62894">
        <ele>37</ele>
        <time>2019-03-01T09:20:56Z</time>
      </trkpt>
      <trkpt lat="48.52301" lon="-2.62894">
        <ele>37</ele>
        <time>2019-03-01T09:21:02Z</time>
      </trkpt>
      <trkpt lat="48.52299" lon="-2.62894">
        <ele>37</ele>
        <time>2019-03-01T09:21:05Z</time>
      </trkpt>
      <trkpt lat="48.52299" lon="-2.62895">
        <ele>36</ele>
        <time>2019-03-01T09:21:08Z</time>
      </trkpt>
      <trkpt lat="48.52298" lon="-2.62897">
        <ele>36</ele>
        <time>2019-03-01T09:21:21Z</time>
      </trkpt>
      <trkpt lat="48.52295" lon="-2.62902">
        <ele>39</ele>
        <time>2019-03-01T09:21:27Z</time>
      </trkpt>
      <trkpt lat="48.52293" lon="-2.62905">
        <ele>39</ele>
        <time>2019-03-01T09:21:31Z</time>
      </trkpt>
      <trkpt lat="48.52289" lon="-2.62909">
        <ele>39</ele>
        <time>2019-03-01T09:21:35Z</time>
      </trkpt>
      <trkpt lat="48.52285" lon="-2.62911">
        <ele>38</ele>
        <time>2019-03-01T09:21:39Z</time>
      </trkpt>
      <trkpt lat="48.52282" lon="-2.62913">
        <ele>37</ele>
        <time>2019-03-01T09:21:43Z</time>
      </trkpt>
      <trkpt lat="48.52279" lon="-2.62913">
        <ele>35</ele>
        <time>2019-03-01T09:21:47Z</time>
      </trkpt>
      <trkpt lat="48.52274" lon="-2.62913">
        <ele>31</ele>
        <time>2019-03-01T09:21:52Z</time>
      </trkpt>
      <trkpt lat="48.5227" lon="-2.62916">
        <ele>27</ele>
        <time>2019-03-01T09:21:56Z</time>
      </trkpt>
      <trkpt lat="48.52266" lon="-2.62919">
        <ele>23</ele>
        <time>2019-03-01T09:22:00Z</time>
      </trkpt>
      <trkpt lat="48.52264" lon="-2.62923">
        <ele>19</ele>
        <time>2019-03-01T09:22:04Z</time>
      </trkpt>
      <trkpt lat="48.52261" lon="-2.62925">
        <ele>15</ele>
        <time>2019-03-01T09:22:10Z</time>
      </trkpt>
      <trkpt lat="48.52258" lon="-2.62931">
        <ele>15</ele>
        <time>2019-03-01T09:22:15Z</time>
      </trkpt>
      <trkpt lat="48.52253" lon="-2.62935">
        <ele>15</ele>
        <time>2019-03-01T09:22:19Z</time>
      </trkpt>
      <trkpt lat="48.52248" lon="-2.62937">
        <ele>15</ele>
        <time>2019-03-01T09:22:22Z</time>
      </trkpt>
      <trkpt lat="48.52244" lon="-2.62942">
        <ele>15</ele>
        <time>2019-03-01T09:22:25Z</time>
      </trkpt>
      <trkpt lat="48.52241" lon="-2.62946">
        <ele>15</ele>
        <time>2019-03-01T09:22:28Z</time>
      </trkpt>
      <trkpt lat="48.52238" lon="-2.62947">
        <ele>13</ele>
        <time>2019-03-01T09:22:32Z</time>
      </trkpt>
      <trkpt lat="48.52233" lon="-2.62948">
        <ele>13</ele>
        <time>2019-03-01T09:22:35Z</time>
      </trkpt>
      <trkpt lat="48.52228" lon="-2.62948">
        <ele>11</ele>
        <time>2019-03-01T09:22:39Z</time>
      </trkpt>
      <trkpt lat="48.52224" lon="-2.62947">
        <ele>11</ele>
        <time>2019-03-01T09:22:42Z</time>
      </trkpt>
      <trkpt lat="48.5222" lon="-2.62945">
        <ele>11</ele>
        <time>2019-03-01T09:22:45Z</time>
      </trkpt>
      <trkpt lat="48.52214" lon="-2.62945">
        <ele>11</ele>
        <time>2019-03-01T09:22:49Z</time>
      </trkpt>
      <trkpt lat="48.52209" lon="-2.62944">
        <ele>11</ele>
        <time>2019-03-01T09:22:52Z</time>
      </trkpt>
      <trkpt lat="48.52205" lon="-2.62942">
        <ele>11</ele>
        <time>2019-03-01T09:22:55Z</time>
      </trkpt>
      <trkpt lat="48.52199" lon="-2.62943">
        <ele>11</ele>
        <time>2019-03-01T09:22:59Z</time>
      </trkpt>
      <trkpt lat="48.52195" lon="-2.62942">
        <ele>10</ele>
        <time>2019-03-01T09:23:02Z</time>
      </trkpt>
      <trkpt lat="48.52192" lon="-2.62942">
        <ele>10</ele>
        <time>2019-03-01T09:23:05Z</time>
      </trkpt>
      <trkpt lat="48.52186" lon="-2.62939">
        <ele>9</ele>
        <time>2019-03-01T09:23:10Z</time>
      </trkpt>
      <trkpt lat="48.5218" lon="-2.62935">
        <ele>8</ele>
        <time>2019-03-01T09:23:14Z</time>
      </trkpt>
      <trkpt lat="48.52176" lon="-2.62934">
        <ele>8</ele>
        <time>2019-03-01T09:23:17Z</time>
      </trkpt>
      <trkpt lat="48.52171" lon="-2.62938">
        <ele>8</ele>
        <time>2019-03-01T09:23:20Z</time>
      </trkpt>
      <trkpt lat="48.52163" lon="-2.62937">
        <ele>8</ele>
        <time>2019-03-01T09:23:25Z</time>
      </trkpt>
      <trkpt lat="48.52158" lon="-2.6294">
        <ele>8</ele>
        <time>2019-03-01T09:23:30Z</time>
      </trkpt>
      <trkpt lat="48.52152" lon="-2.62941">
        <ele>8</ele>
        <time>2019-03-01T09:23:34Z</time>
      </trkpt>
      <trkpt lat="48.52148" lon="-2.62942">
        <ele>9</ele>
        <time>2019-03-01T09:23:37Z</time>
      </trkpt>
      <trkpt lat="48.52144" lon="-2.62942">
        <ele>10</ele>
        <time>2019-03-01T09:23:40Z</time>
      </trkpt>
      <trkpt lat="48.52137" lon="-2.62944">
        <ele>10</ele>
        <time>2019-03-01T09:23:44Z</time>
      </trkpt>
      <trkpt lat="48.52132" lon="-2.62944">
        <ele>10</ele>
        <time>2019-03-01T09:23:47Z</time>
      </trkpt>
      <trkpt lat="48.52128" lon="-2.62943">
        <ele>10</ele>
        <time>2019-03-01T09:23:50Z</time>
      </trkpt>
      <trkpt lat="48.52119" lon="-2.6294">
        <ele>10</ele>
        <time>2019-03-01T09:23:55Z</time>
      </trkpt>
      <trkpt lat="48.52116" lon="-2.6294">
        <ele>10</ele>
        <time>2019-03-01T09:23:58Z</time>
      </trkpt>
      <trkpt lat="48.52112" lon="-2.62939">
        <ele>10</ele>
        <time>2019-03-01T09:24:02Z</time>
      </trkpt>
      <trkpt lat="48.52109" lon="-2.62937">
        <ele>7</ele>
        <time>2019-03-01T09:24:06Z</time>
      </trkpt>
      <trkpt lat="48.52108" lon="-2.62935">
        <ele>4</ele>
        <time>2019-03-01T09:24:10Z</time>
      </trkpt>
      <trkpt lat="48.52106" lon="-2.62931">
        <ele>2</ele>
        <time>2019-03-01T09:24:14Z</time>
      </trkpt>
      <trkpt lat="48.52104" lon="-2.62932">
        <ele>8.3</ele>
        <time>2019-03-01T09:24:17Z</time>
      </trkpt>
      <trkpt lat="48.521" lon="-2.62929">
        <ele>9</ele>
        <time>2019-03-01T09:24:21Z</time>
      </trkpt>
      <trkpt lat="48.52097" lon="-2.62929">
        <ele>9.5</ele>
        <time>2019-03-01T09:24:24Z</time>
      </trkpt>
      <trkpt lat="48.52097" lon="-2.62927">
        <ele>9.7</ele>
        <time>2019-03-01T09:24:28Z</time>
      </trkpt>
      <trkpt lat="48.52101" lon="-2.62924">
        <ele>1</ele>
        <time>2019-03-01T09:24:32Z</time>
      </trkpt>
      <trkpt lat="48.52103" lon="-2.62919">
        <ele>6</ele>
        <time>2019-03-01T09:24:36Z</time>
      </trkpt>
      <trkpt lat="48.52107" lon="-2.62915">
        <ele>13</ele>
        <time>2019-03-01T09:24:40Z</time>
      </trkpt>
      <trkpt lat="48.52116" lon="-2.62914">
        <ele>20</ele>
        <time>2019-03-01T09:24:44Z</time>
      </trkpt>
      <trkpt lat="48.52119" lon="-2.62907">
        <ele>23</ele>
        <time>2019-03-01T09:24:47Z</time>
      </trkpt>
      <trkpt lat="48.52121" lon="-2.62902">
        <ele>26</ele>
        <time>2019-03-01T09:24:50Z</time>
      </trkpt>
      <trkpt lat="48.52122" lon="-2.62896">
        <ele>27</ele>
        <time>2019-03-01T09:24:54Z</time>
      </trkpt>
      <trkpt lat="48.52125" lon="-2.62888">
        <ele>25</ele>
        <time>2019-03-01T09:24:59Z</time>
      </trkpt>
      <trkpt lat="48.52125" lon="-2.62882">
        <ele>23</ele>
        <time>2019-03-01T09:25:02Z</time>
      </trkpt>
      <trkpt lat="48.52125" lon="-2.62877">
        <ele>20</ele>
        <time>2019-03-01T09:25:05Z</time>
      </trkpt>
      <trkpt lat="48.52125" lon="-2.6287">
        <ele>17</ele>
        <time>2019-03-01T09:25:09Z</time>
      </trkpt>
      <trkpt lat="48.52126" lon="-2.62864">
        <ele>14</ele>
        <time>2019-03-01T09:25:13Z</time>
      </trkpt>
      <trkpt lat="48.52126" lon="-2.6286">
        <ele>13</ele>
        <time>2019-03-01T09:25:16Z</time>
      </trkpt>
      <trkpt lat="48.52129" lon="-2.62855">
        <ele>13</ele>
        <time>2019-03-01T09:25:20Z</time>
      </trkpt>
      <trkpt lat="48.52132" lon="-2.6285">
        <ele>13</ele>
        <time>2019-03-01T09:25:24Z</time>
      </trkpt>
      <trkpt lat="48.52136" lon="-2.6285">
        <ele>13</ele>
        <time>2019-03-01T09:25:30Z</time>
      </trkpt>
      <trkpt lat="48.52134" lon="-2.6285">
        <ele>13</ele>
        <time>2019-03-01T09:25:34Z</time>
      </trkpt>
      <trkpt lat="48.52133" lon="-2.62848">
        <ele>12</ele>
        <time>2019-03-01T09:25:38Z</time>
      </trkpt>
      <trkpt lat="48.52131" lon="-2.62847">
        <ele>12</ele>
        <time>2019-03-01T09:25:41Z</time>
      </trkpt>
      <trkpt lat="48.52129" lon="-2.62846">
        <ele>11</ele>
        <time>2019-03-01T09:25:45Z</time>
      </trkpt>
      <trkpt lat="48.52126" lon="-2.62844">
        <ele>6</ele>
        <time>2019-03-01T09:25:51Z</time>
      </trkpt>
      <trkpt lat="48.52129" lon="-2.62843">
        <ele>5</ele>
        <time>2019-03-01T09:25:55Z</time>
      </trkpt>
      <trkpt lat="48.52131" lon="-2.6284">
        <ele>5</ele>
        <time>2019-03-01T09:25:58Z</time>
      </trkpt>
      <trkpt lat="48.52133" lon="-2.62837">
        <ele>5</ele>
        <time>2019-03-01T09:26:02Z</time>
      </trkpt>
      <trkpt lat="48.52132" lon="-2.6283">
        <ele>5</ele>
        <time>2019-03-01T09:26:06Z</time>
      </trkpt>
      <trkpt lat="48.52131" lon="-2.62825">
        <ele>5</ele>
        <time>2019-03-01T09:26:10Z</time>
      </trkpt>
      <trkpt lat="48.52127" lon="-2.6282">
        <ele>5</ele>
        <time>2019-03-01T09:26:14Z</time>
      </trkpt>
      <trkpt lat="48.52126" lon="-2.62814">
        <ele>5</ele>
        <time>2019-03-01T09:26:18Z</time>
      </trkpt>
      <trkpt lat="48.52126" lon="-2.62809">
        <ele>6</ele>
        <time>2019-03-01T09:26:22Z</time>
      </trkpt>
      <trkpt lat="48.52126" lon="-2.62807">
        <ele>6</ele>
        <time>2019-03-01T09:26:25Z</time>
      </trkpt>
      <trkpt lat="48.52122" lon="-2.62802">
        <ele>6</ele>
        <time>2019-03-01T09:26:29Z</time>
      </trkpt>
      <trkpt lat="48.52122" lon="-2.62796">
        <ele>6</ele>
        <time>2019-03-01T09:26:33Z</time>
      </trkpt>
      <trkpt lat="48.52121" lon="-2.6279">
        <ele>6</ele>
        <time>2019-03-01T09:26:36Z</time>
      </trkpt>
      <trkpt lat="48.52118" lon="-2.62785">
        <ele>5</ele>
        <time>2019-03-01T09:26:40Z</time>
      </trkpt>
      <trkpt lat="48.52116" lon="-2.62781">
        <ele>4</ele>
        <time>2019-03-01T09:26:44Z</time>
      </trkpt>
      <trkpt lat="48.52113" lon="-2.62777">
        <ele>4</ele>
        <time>2019-03-01T09:26:47Z</time>
      </trkpt>
      <trkpt lat="48.52111" lon="-2.6277">
        <ele>4</ele>
        <time>2019-03-01T09:26:52Z</time>
      </trkpt>
      <trkpt lat="48.5211" lon="-2.62767">
        <ele>4</ele>
        <time>2019-03-01T09:26:56Z</time>
      </trkpt>
      <trkpt lat="48.52116" lon="-2.62766">
        <ele>7</ele>
        <time>2019-03-01T09:26:59Z</time>
      </trkpt>
      <trkpt lat="48.52119" lon="-2.62764">
        <ele>10</ele>
        <time>2019-03-01T09:27:02Z</time>
      </trkpt>
      <trkpt lat="48.52121" lon="-2.62761">
        <ele>14</ele>
        <time>2019-03-01T09:27:05Z</time>
      </trkpt>
      <trkpt lat="48.52126" lon="-2.62759">
        <ele>19</ele>
        <time>2019-03-01T09:27:10Z</time>
      </trkpt>
      <trkpt lat="48.52127" lon="-2.62758">
        <ele>23</ele>
        <time>2019-03-01T09:27:14Z</time>
      </trkpt>
      <trkpt lat="48.52127" lon="-2.62754">
        <ele>28</ele>
        <time>2019-03-01T09:27:19Z</time>
      </trkpt>
      <trkpt lat="48.52126" lon="-2.62752">
        <ele>29</ele>
        <time>2019-03-01T09:27:22Z</time>
      </trkpt>
      <trkpt lat="48.52125" lon="-2.62749">
        <ele>27</ele>
        <time>2019-03-01T09:27:30Z</time>
      </trkpt>
      <trkpt lat="48.52125" lon="-2.62746">
        <ele>25</ele>
        <time>2019-03-01T09:27:34Z</time>
      </trkpt>
      <trkpt lat="48.52126" lon="-2.62745">
        <ele>24</ele>
        <time>2019-03-01T09:27:37Z</time>
      </trkpt>
      <trkpt lat="48.52126" lon="-2.62741">
        <ele>23</ele>
        <time>2019-03-01T09:27:41Z</time>
      </trkpt>
      <trkpt lat="48.52128" lon="-2.62737">
        <ele>21</ele>
        <time>2019-03-01T09:27:44Z</time>
      </trkpt>
      <trkpt lat="48.5213" lon="-2.62732">
        <ele>20</ele>
        <time>2019-03-01T09:27:47Z</time>
      </trkpt>
      <trkpt lat="48.52126" lon="-2.62725">
        <ele>18</ele>
        <time>2019-03-01T09:27:50Z</time>
      </trkpt>
      <trkpt lat="48.52124" lon="-2.62721">
        <ele>15</ele>
        <time>2019-03-01T09:27:53Z</time>
      </trkpt>
      <trkpt lat="48.52122" lon="-2.62716">
        <ele>11</ele>
        <time>2019-03-01T09:27:57Z</time>
      </trkpt>
      <trkpt lat="48.52122" lon="-2.62711">
        <ele>10</ele>
        <time>2019-03-01T09:28:00Z</time>
      </trkpt>
      <trkpt lat="48.52122" lon="-2.62705">
        <ele>10</ele>
        <time>2019-03-01T09:28:03Z</time>
      </trkpt>
      <trkpt lat="48.5212" lon="-2.62698">
        <ele>10</ele>
        <time>2019-03-01T09:28:07Z</time>
      </trkpt>
      <trkpt lat="48.52119" lon="-2.62691">
        <ele>8</ele>
        <time>2019-03-01T09:28:11Z</time>
      </trkpt>
      <trkpt lat="48.5212" lon="-2.62685">
        <ele>8</ele>
        <time>2019-03-01T09:28:14Z</time>
      </trkpt>
      <trkpt lat="48.5212" lon="-2.62679">
        <ele>8</ele>
        <time>2019-03-01T09:28:17Z</time>
      </trkpt>
      <trkpt lat="48.52121" lon="-2.62675">
        <ele>8</ele>
        <time>2019-03-01T09:28:20Z</time>
      </trkpt>
      <trkpt lat="48.52122" lon="-2.62671">
        <ele>8</ele>
        <time>2019-03-01T09:28:24Z</time>
      </trkpt>
      <trkpt lat="48.52123" lon="-2.62667">
        <ele>8</ele>
        <time>2019-03-01T09:28:28Z</time>
      </trkpt>
      <trkpt lat="48.52124" lon="-2.62663">
        <ele>8</ele>
        <time>2019-03-01T09:28:32Z</time>
      </trkpt>
      <trkpt lat="48.52125" lon="-2.62658">
        <ele>7</ele>
        <time>2019-03-01T09:28:36Z</time>
      </trkpt>
      <trkpt lat="48.52127" lon="-2.62653">
        <ele>7</ele>
        <time>2019-03-01T09:28:40Z</time>
      </trkpt>
      <trkpt lat="48.52128" lon="-2.62648">
        <ele>7</ele>
        <time>2019-03-01T09:28:43Z</time>
      </trkpt>
      <trkpt lat="48.52129" lon="-2.62642">
        <ele>7</ele>
        <time>2019-03-01T09:28:46Z</time>
      </trkpt>
      <trkpt lat="48.5213" lon="-2.62637">
        <ele>7</ele>
        <time>2019-03-01T09:28:49Z</time>
      </trkpt>
      <trkpt lat="48.52132" lon="-2.62633">
        <ele>7</ele>
        <time>2019-03-01T09:28:52Z</time>
      </trkpt>
      <trkpt lat="48.52135" lon="-2.62629">
        <ele>7</ele>
        <time>2019-03-01T09:28:56Z</time>
      </trkpt>
      <trkpt lat="48.52137" lon="-2.62623">
        <ele>7</ele>
        <time>2019-03-01T09:29:00Z</time>
      </trkpt>
      <trkpt lat="48.52137" lon="-2.62617">
        <ele>7</ele>
        <time>2019-03-01T09:29:04Z</time>
      </trkpt>
      <trkpt lat="48.52137" lon="-2.62613">
        <ele>8</ele>
        <time>2019-03-01T09:29:07Z</time>
      </trkpt>
      <trkpt lat="48.52137" lon="-2.62608">
        <ele>10</ele>
        <time>2019-03-01T09:29:10Z</time>
      </trkpt>
      <trkpt lat="48.52137" lon="-2.62601">
        <ele>12</ele>
        <time>2019-03-01T09:29:13Z</time>
      </trkpt>
      <trkpt lat="48.52138" lon="-2.62597">
        <ele>13</ele>
        <time>2019-03-01T09:29:16Z</time>
      </trkpt>
      <trkpt lat="48.52138" lon="-2.62592">
        <ele>13</ele>
        <time>2019-03-01T09:29:19Z</time>
      </trkpt>
      <trkpt lat="48.52137" lon="-2.62588">
        <ele>13</ele>
        <time>2019-03-01T09:29:22Z</time>
      </trkpt>
      <trkpt lat="48.52139" lon="-2.62584">
        <ele>13</ele>
        <time>2019-03-01T09:29:25Z</time>
      </trkpt>
      <trkpt lat="48.52137" lon="-2.62579">
        <ele>15</ele>
        <time>2019-03-01T09:29:28Z</time>
      </trkpt>
      <trkpt lat="48.52137" lon="-2.62575">
        <ele>16</ele>
        <time>2019-03-01T09:29:31Z</time>
      </trkpt>
      <trkpt lat="48.5214" lon="-2.62569">
        <ele>16</ele>
        <time>2019-03-01T09:29:34Z</time>
      </trkpt>
      <trkpt lat="48.52142" lon="-2.62565">
        <ele>17</ele>
        <time>2019-03-01T09:29:37Z</time>
      </trkpt>
      <trkpt lat="48.52142" lon="-2.62561">
        <ele>19</ele>
        <time>2019-03-01T09:29:40Z</time>
      </trkpt>
      <trkpt lat="48.52141" lon="-2.62557">
        <ele>20</ele>
        <time>2019-03-01T09:29:43Z</time>
      </trkpt>
      <trkpt lat="48.52141" lon="-2.62553">
        <ele>20</ele>
        <time>2019-03-01T09:29:47Z</time>
      </trkpt>
      <trkpt lat="48.52141" lon="-2.62549">
        <ele>20</ele>
        <time>2019-03-01T09:29:52Z</time>
      </trkpt>
      <trkpt lat="48.52141" lon="-2.62545">
        <ele>20</ele>
        <time>2019-03-01T09:29:56Z</time>
      </trkpt>
      <trkpt lat="48.52141" lon="-2.6254">
        <ele>20</ele>
        <time>2019-03-01T09:30:00Z</time>
      </trkpt>
      <trkpt lat="48.52144" lon="-2.62534">
        <ele>20</ele>
        <time>2019-03-01T09:30:04Z</time>
      </trkpt>
      <trkpt lat="48.52147" lon="-2.6253">
        <ele>20</ele>
        <time>2019-03-01T09:30:08Z</time>
      </trkpt>
      <trkpt lat="48.52148" lon="-2.62524">
        <ele>20</ele>
        <time>2019-03-01T09:30:12Z</time>
      </trkpt>
      <trkpt lat="48.52149" lon="-2.62518">
        <ele>20</ele>
        <time>2019-03-01T09:30:16Z</time>
      </trkpt>
      <trkpt lat="48.5215" lon="-2.62514">
        <ele>20</ele>
        <time>2019-03-01T09:30:20Z</time>
      </trkpt>
      <trkpt lat="48.5215" lon="-2.62509">
        <ele>20</ele>
        <time>2019-03-01T09:30:24Z</time>
      </trkpt>
      <trkpt lat="48.52151" lon="-2.62505">
        <ele>20</ele>
        <time>2019-03-01T09:30:28Z</time>
      </trkpt>
      <trkpt lat="48.52151" lon="-2.62501">
        <ele>21</ele>
        <time>2019-03-01T09:30:32Z</time>
      </trkpt>
      <trkpt lat="48.5215" lon="-2.62498">
        <ele>21</ele>
        <time>2019-03-01T09:30:36Z</time>
      </trkpt>
      <trkpt lat="48.52148" lon="-2.62494">
        <ele>21</ele>
        <time>2019-03-01T09:30:40Z</time>
      </trkpt>
      <trkpt lat="48.52148" lon="-2.6249">
        <ele>21</ele>
        <time>2019-03-01T09:30:44Z</time>
      </trkpt>
      <trkpt lat="48.52146" lon="-2.62486">
        <ele>22</ele>
        <time>2019-03-01T09:30:49Z</time>
      </trkpt>
      <trkpt lat="48.52145" lon="-2.62484">
        <ele>24</ele>
        <time>2019-03-01T09:30:52Z</time>
      </trkpt>
      <trkpt lat="48.52145" lon="-2.6248">
        <ele>25</ele>
        <time>2019-03-01T09:30:56Z</time>
      </trkpt>
      <trkpt lat="48.52144" lon="-2.62477">
        <ele>27</ele>
        <time>2019-03-01T09:30:59Z</time>
      </trkpt>
      <trkpt lat="48.52143" lon="-2.62473">
        <ele>27</ele>
        <time>2019-03-01T09:31:03Z</time>
      </trkpt>
      <trkpt lat="48.52146" lon="-2.62469">
        <ele>27</ele>
        <time>2019-03-01T09:31:07Z</time>
      </trkpt>
      <trkpt lat="48.52146" lon="-2.62462">
        <ele>27</ele>
        <time>2019-03-01T09:31:10Z</time>
      </trkpt>
      <trkpt lat="48.52146" lon="-2.62458">
        <ele>27</ele>
        <time>2019-03-01T09:31:13Z</time>
      </trkpt>
      <trkpt lat="48.52144" lon="-2.62458">
        <ele>27</ele>
        <time>2019-03-01T09:31:20Z</time>
      </trkpt>
      <trkpt lat="48.52143" lon="-2.6246">
        <ele>27</ele>
        <time>2019-03-01T09:31:24Z</time>
      </trkpt>
      <trkpt lat="48.52142" lon="-2.62458">
        <ele>27</ele>
        <time>2019-03-01T09:31:29Z</time>
      </trkpt>
      <trkpt lat="48.52142" lon="-2.62454">
        <ele>31</ele>
        <time>2019-03-01T09:31:33Z</time>
      </trkpt>
      <trkpt lat="48.52143" lon="-2.62452">
        <ele>32</ele>
        <time>2019-03-01T09:31:36Z</time>
      </trkpt>
      <trkpt lat="48.52142" lon="-2.62451">
        <ele>33</ele>
        <time>2019-03-01T09:31:53Z</time>
      </trkpt>
      <trkpt lat="48.52142" lon="-2.62449">
        <ele>33</ele>
        <time>2019-03-01T09:31:57Z</time>
      </trkpt>
      <trkpt lat="48.52142" lon="-2.62447">
        <ele>35</ele>
        <time>2019-03-01T09:32:03Z</time>
      </trkpt>
      <trkpt lat="48.52143" lon="-2.62447">
        <ele>40</ele>
        <time>2019-03-01T09:32:20Z</time>
      </trkpt>
      <trkpt lat="48.52143" lon="-2.62448">
        <ele>40</ele>
        <time>2019-03-01T09:32:23Z</time>
      </trkpt>
      <trkpt lat="48.52142" lon="-2.6245">
        <ele>40</ele>
        <time>2019-03-01T09:32:28Z</time>
      </trkpt>
      <trkpt lat="48.52142" lon="-2.62452">
        <ele>40</ele>
        <time>2019-03-01T09:32:33Z</time>
      </trkpt>
      <trkpt lat="48.52141" lon="-2.62454">
        <ele>35</ele>
        <time>2019-03-01T09:32:39Z</time>
      </trkpt>
      <trkpt lat="48.5214" lon="-2.62456">
        <ele>31</ele>
        <time>2019-03-01T09:32:43Z</time>
      </trkpt>
      <trkpt lat="48.52142" lon="-2.62456">
        <ele>28</ele>
        <time>2019-03-01T09:32:52Z</time>
      </trkpt>
      <trkpt lat="48.52143" lon="-2.62457">
        <ele>28</ele>
        <time>2019-03-01T09:32:56Z</time>
      </trkpt>
      <trkpt lat="48.52142" lon="-2.62457">
        <ele>30</ele>
        <time>2019-03-01T09:33:00Z</time>
      </trkpt>
      <trkpt lat="48.5214" lon="-2.62458">
        <ele>30</ele>
        <time>2019-03-01T09:33:07Z</time>
      </trkpt>
      <trkpt lat="48.52138" lon="-2.62459">
        <ele>30</ele>
        <time>2019-03-01T09:33:15Z</time>
      </trkpt>
      <trkpt lat="48.5214" lon="-2.62458">
        <ele>30</ele>
        <time>2019-03-01T09:33:41Z</time>
      </trkpt>
      <trkpt lat="48.52138" lon="-2.6246">
        <ele>30</ele>
        <time>2019-03-01T09:33:50Z</time>
      </trkpt>
      <trkpt lat="48.52137" lon="-2.62459">
        <ele>26</ele>
        <time>2019-03-01T09:33:55Z</time>
      </trkpt>
      <trkpt lat="48.52138" lon="-2.62459">
        <ele>21</ele>
        <time>2019-03-01T09:34:01Z</time>
      </trkpt>
      <trkpt lat="48.5214" lon="-2.6246">
        <ele>20</ele>
        <time>2019-03-01T09:34:04Z</time>
      </trkpt>
      <trkpt lat="48.52142" lon="-2.6246">
        <ele>19</ele>
        <time>2019-03-01T09:34:07Z</time>
      </trkpt>
      <trkpt lat="48.5214" lon="-2.6246">
        <ele>19</ele>
        <time>2019-03-01T09:34:10Z</time>
      </trkpt>
      <trkpt lat="48.5214" lon="-2.62458">
        <ele>19</ele>
        <time>2019-03-01T09:34:14Z</time>
      </trkpt>
      <trkpt lat="48.52138" lon="-2.62454">
        <ele>19</ele>
        <time>2019-03-01T09:34:18Z</time>
      </trkpt>
      <trkpt lat="48.52135" lon="-2.62448">
        <ele>19</ele>
        <time>2019-03-01T09:34:22Z</time>
      </trkpt>
      <trkpt lat="48.52132" lon="-2.62445">
        <ele>19</ele>
        <time>2019-03-01T09:34:25Z</time>
      </trkpt>
      <trkpt lat="48.52131" lon="-2.6244">
        <ele>19</ele>
        <time>2019-03-01T09:34:29Z</time>
      </trkpt>
      <trkpt lat="48.5213" lon="-2.62436">
        <ele>19</ele>
        <time>2019-03-01T09:34:33Z</time>
      </trkpt>
      <trkpt lat="48.52126" lon="-2.62432">
        <ele>20</ele>
        <time>2019-03-01T09:34:37Z</time>
      </trkpt>
      <trkpt lat="48.52124" lon="-2.62427">
        <ele>20</ele>
        <time>2019-03-01T09:34:40Z</time>
      </trkpt>
      <trkpt lat="48.52121" lon="-2.62424">
        <ele>20</ele>
        <time>2019-03-01T09:34:44Z</time>
      </trkpt>
      <trkpt lat="48.52121" lon="-2.62422">
        <ele>20</ele>
        <time>2019-03-01T09:34:47Z</time>
      </trkpt>
      <trkpt lat="48.5212" lon="-2.62418">
        <ele>20</ele>
        <time>2019-03-01T09:34:51Z</time>
      </trkpt>
      <trkpt lat="48.52119" lon="-2.62413">
        <ele>20</ele>
        <time>2019-03-01T09:34:54Z</time>
      </trkpt>
      <trkpt lat="48.52115" lon="-2.62407">
        <ele>20</ele>
        <time>2019-03-01T09:34:57Z</time>
      </trkpt>
      <trkpt lat="48.52112" lon="-2.62402">
        <ele>20</ele>
        <time>2019-03-01T09:35:00Z</time>
      </trkpt>
      <trkpt lat="48.52108" lon="-2.62397">
        <ele>20</ele>
        <time>2019-03-01T09:35:04Z</time>
      </trkpt>
      <trkpt lat="48.52106" lon="-2.62394">
        <ele>21</ele>
        <time>2019-03-01T09:35:08Z</time>
      </trkpt>
      <trkpt lat="48.52104" lon="-2.62391">
        <ele>21</ele>
        <time>2019-03-01T09:35:11Z</time>
      </trkpt>
      <trkpt lat="48.52101" lon="-2.6239">
        <ele>21</ele>
        <time>2019-03-01T09:35:15Z</time>
      </trkpt>
      <trkpt lat="48.52097" lon="-2.62388">
        <ele>22</ele>
        <time>2019-03-01T09:35:19Z</time>
      </trkpt>
      <trkpt lat="48.52094" lon="-2.62387">
        <ele>22</ele>
        <time>2019-03-01T09:35:22Z</time>
      </trkpt>
      <trkpt lat="48.52091" lon="-2.62385">
        <ele>22</ele>
        <time>2019-03-01T09:35:25Z</time>
      </trkpt>
      <trkpt lat="48.5209" lon="-2.62379">
        <ele>22</ele>
        <time>2019-03-01T09:35:28Z</time>
      </trkpt>
      <trkpt lat="48.52089" lon="-2.62373">
        <ele>22</ele>
        <time>2019-03-01T09:35:31Z</time>
      </trkpt>
      <trkpt lat="48.52086" lon="-2.6237">
        <ele>23</ele>
        <time>2019-03-01T09:35:35Z</time>
      </trkpt>
      <trkpt lat="48.52082" lon="-2.62367">
        <ele>24</ele>
        <time>2019-03-01T09:35:38Z</time>
      </trkpt>
      <trkpt lat="48.52079" lon="-2.62366">
        <ele>26</ele>
        <time>2019-03-01T09:35:42Z</time>
      </trkpt>
      <trkpt lat="48.52077" lon="-2.62364">
        <ele>29</ele>
        <time>2019-03-01T09:35:47Z</time>
      </trkpt>
      <trkpt lat="48.52073" lon="-2.62359">
        <ele>32</ele>
        <time>2019-03-01T09:35:51Z</time>
      </trkpt>
      <trkpt lat="48.52069" lon="-2.62356">
        <ele>33</ele>
        <time>2019-03-01T09:35:54Z</time>
      </trkpt>
      <trkpt lat="48.52066" lon="-2.62355">
        <ele>34</ele>
        <time>2019-03-01T09:35:58Z</time>
      </trkpt>
      <trkpt lat="48.52064" lon="-2.62356">
        <ele>36</ele>
        <time>2019-03-01T09:36:01Z</time>
      </trkpt>
      <trkpt lat="48.5206" lon="-2.62355">
        <ele>37</ele>
        <time>2019-03-01T09:36:04Z</time>
      </trkpt>
      <trkpt lat="48.52056" lon="-2.62356">
        <ele>37</ele>
        <time>2019-03-01T09:36:08Z</time>
      </trkpt>
      <trkpt lat="48.52052" lon="-2.62357">
        <ele>38</ele>
        <time>2019-03-01T09:36:11Z</time>
      </trkpt>
      <trkpt lat="48.52048" lon="-2.62358">
        <ele>40</ele>
        <time>2019-03-01T09:36:14Z</time>
      </trkpt>
      <trkpt lat="48.52045" lon="-2.62359">
        <ele>41</ele>
        <time>2019-03-01T09:36:17Z</time>
      </trkpt>
      <trkpt lat="48.52041" lon="-2.62359">
        <ele>41</ele>
        <time>2019-03-01T09:36:20Z</time>
      </trkpt>
      <trkpt lat="48.52039" lon="-2.6236">
        <ele>41</ele>
        <time>2019-03-01T09:36:23Z</time>
      </trkpt>
      <trkpt lat="48.52036" lon="-2.6236">
        <ele>41</ele>
        <time>2019-03-01T09:36:26Z</time>
      </trkpt>
      <trkpt lat="48.52031" lon="-2.62361">
        <ele>41</ele>
        <time>2019-03-01T09:36:30Z</time>
      </trkpt>
      <trkpt lat="48.52028" lon="-2.62363">
        <ele>41</ele>
        <time>2019-03-01T09:36:33Z</time>
      </trkpt>
      <trkpt lat="48.52024" lon="-2.62364">
        <ele>41</ele>
        <time>2019-03-01T09:36:36Z</time>
      </trkpt>
      <trkpt lat="48.52021" lon="-2.62364">
        <ele>41</ele>
        <time>2019-03-01T09:36:39Z</time>
      </trkpt>
      <trkpt lat="48.52018" lon="-2.62363">
        <ele>41</ele>
        <time>2019-03-01T09:36:43Z</time>
      </trkpt>
      <trkpt lat="48.52016" lon="-2.62362">
        <ele>41</ele>
        <time>2019-03-01T09:36:46Z</time>
      </trkpt>
      <trkpt lat="48.52013" lon="-2.62359">
        <ele>40</ele>
        <time>2019-03-01T09:36:50Z</time>
      </trkpt>
      <trkpt lat="48.52007" lon="-2.62359">
        <ele>37</ele>
        <time>2019-03-01T09:36:53Z</time>
      </trkpt>
      <trkpt lat="48.52005" lon="-2.62359">
        <ele>34</ele>
        <time>2019-03-01T09:36:56Z</time>
      </trkpt>
      <trkpt lat="48.52001" lon="-2.62358">
        <ele>33</ele>
        <time>2019-03-01T09:37:00Z</time>
      </trkpt>
      <trkpt lat="48.51997" lon="-2.62357">
        <ele>32</ele>
        <time>2019-03-01T09:37:04Z</time>
      </trkpt>
      <trkpt lat="48.51994" lon="-2.62358">
        <ele>32</ele>
        <time>2019-03-01T09:37:07Z</time>
      </trkpt>
      <trkpt lat="48.51991" lon="-2.6236">
        <ele>30</ele>
        <time>2019-03-01T09:37:11Z</time>
      </trkpt>
      <trkpt lat="48.51987" lon="-2.62359">
        <ele>28</ele>
        <time>2019-03-01T09:37:14Z</time>
      </trkpt>
      <trkpt lat="48.51982" lon="-2.62357">
        <ele>27</ele>
        <time>2019-03-01T09:37:18Z</time>
      </trkpt>
      <trkpt lat="48.51981" lon="-2.62357">
        <ele>27</ele>
        <time>2019-03-01T09:37:21Z</time>
      </trkpt>
      <trkpt lat="48.51977" lon="-2.62355">
        <ele>26</ele>
        <time>2019-03-01T09:37:24Z</time>
      </trkpt>
      <trkpt lat="48.51973" lon="-2.62354">
        <ele>24</ele>
        <time>2019-03-01T09:37:27Z</time>
      </trkpt>
      <trkpt lat="48.5197" lon="-2.62351">
        <ele>22</ele>
        <time>2019-03-01T09:37:30Z</time>
      </trkpt>
      <trkpt lat="48.51971" lon="-2.62351">
        <ele>22</ele>
        <time>2019-03-01T09:37:33Z</time>
      </trkpt>
      <trkpt lat="48.51973" lon="-2.62351">
        <ele>22</ele>
        <time>2019-03-01T09:37:37Z</time>
      </trkpt>
      <trkpt lat="48.51971" lon="-2.62351">
        <ele>23</ele>
        <time>2019-03-01T09:37:40Z</time>
      </trkpt>
      <trkpt lat="48.51969" lon="-2.62352">
        <ele>27</ele>
        <time>2019-03-01T09:37:45Z</time>
      </trkpt>
      <trkpt lat="48.51965" lon="-2.62351">
        <ele>29</ele>
        <time>2019-03-01T09:37:48Z</time>
      </trkpt>
      <trkpt lat="48.51961" lon="-2.62349">
        <ele>29</ele>
        <time>2019-03-01T09:37:52Z</time>
      </trkpt>
      <trkpt lat="48.51958" lon="-2.62349">
        <ele>30</ele>
        <time>2019-03-01T09:37:55Z</time>
      </trkpt>
      <trkpt lat="48.51954" lon="-2.62346">
        <ele>30</ele>
        <time>2019-03-01T09:38:00Z</time>
      </trkpt>
      <trkpt lat="48.51953" lon="-2.62343">
        <ele>30</ele>
        <time>2019-03-01T09:38:03Z</time>
      </trkpt>
      <trkpt lat="48.51949" lon="-2.62341">
        <ele>30</ele>
        <time>2019-03-01T09:38:06Z</time>
      </trkpt>
      <trkpt lat="48.51944" lon="-2.6234">
        <ele>30</ele>
        <time>2019-03-01T09:38:09Z</time>
      </trkpt>
      <trkpt lat="48.5194" lon="-2.62338">
        <ele>29</ele>
        <time>2019-03-01T09:38:12Z</time>
      </trkpt>
      <trkpt lat="48.51936" lon="-2.62337">
        <ele>29</ele>
        <time>2019-03-01T09:38:16Z</time>
      </trkpt>
      <trkpt lat="48.51933" lon="-2.62334">
        <ele>29</ele>
        <time>2019-03-01T09:38:20Z</time>
      </trkpt>
      <trkpt lat="48.51931" lon="-2.62332">
        <ele>29</ele>
        <time>2019-03-01T09:38:23Z</time>
      </trkpt>
      <trkpt lat="48.51929" lon="-2.62331">
        <ele>29</ele>
        <time>2019-03-01T09:38:26Z</time>
      </trkpt>
      <trkpt lat="48.51925" lon="-2.62331">
        <ele>29</ele>
        <time>2019-03-01T09:38:29Z</time>
      </trkpt>
      <trkpt lat="48.5192" lon="-2.62331">
        <ele>29</ele>
        <time>2019-03-01T09:38:32Z</time>
      </trkpt>
      <trkpt lat="48.51917" lon="-2.62328">
        <ele>29</ele>
        <time>2019-03-01T09:38:35Z</time>
      </trkpt>
      <trkpt lat="48.51915" lon="-2.62323">
        <ele>30</ele>
        <time>2019-03-01T09:38:39Z</time>
      </trkpt>
      <trkpt lat="48.51913" lon="-2.62319">
        <ele>30</ele>
        <time>2019-03-01T09:38:43Z</time>
      </trkpt>
      <trkpt lat="48.51912" lon="-2.62315">
        <ele>29</ele>
        <time>2019-03-01T09:38:46Z</time>
      </trkpt>
      <trkpt lat="48.5191" lon="-2.6231">
        <ele>29</ele>
        <time>2019-03-01T09:38:50Z</time>
      </trkpt>
      <trkpt lat="48.51908" lon="-2.62304">
        <ele>29</ele>
        <time>2019-03-01T09:38:53Z</time>
      </trkpt>
      <trkpt lat="48.51906" lon="-2.62298">
        <ele>29</ele>
        <time>2019-03-01T09:38:56Z</time>
      </trkpt>
      <trkpt lat="48.51902" lon="-2.62292">
        <ele>29</ele>
        <time>2019-03-01T09:39:00Z</time>
      </trkpt>
      <trkpt lat="48.51901" lon="-2.62284">
        <ele>29</ele>
        <time>2019-03-01T09:39:04Z</time>
      </trkpt>
      <trkpt lat="48.51899" lon="-2.62279">
        <ele>30</ele>
        <time>2019-03-01T09:39:07Z</time>
      </trkpt>
      <trkpt lat="48.51898" lon="-2.62274">
        <ele>31</ele>
        <time>2019-03-01T09:39:11Z</time>
      </trkpt>
      <trkpt lat="48.51898" lon="-2.62266">
        <ele>33</ele>
        <time>2019-03-01T09:39:15Z</time>
      </trkpt>
      <trkpt lat="48.51896" lon="-2.62261">
        <ele>34</ele>
        <time>2019-03-01T09:39:18Z</time>
      </trkpt>
      <trkpt lat="48.51894" lon="-2.62256">
        <ele>34</ele>
        <time>2019-03-01T09:39:21Z</time>
      </trkpt>
      <trkpt lat="48.51893" lon="-2.62251">
        <ele>34</ele>
        <time>2019-03-01T09:39:24Z</time>
      </trkpt>
      <trkpt lat="48.51891" lon="-2.62246">
        <ele>34</ele>
        <time>2019-03-01T09:39:27Z</time>
      </trkpt>
      <trkpt lat="48.51888" lon="-2.6224">
        <ele>34</ele>
        <time>2019-03-01T09:39:31Z</time>
      </trkpt>
      <trkpt lat="48.51886" lon="-2.62236">
        <ele>34</ele>
        <time>2019-03-01T09:39:34Z</time>
      </trkpt>
      <trkpt lat="48.51883" lon="-2.62231">
        <ele>34</ele>
        <time>2019-03-01T09:39:37Z</time>
      </trkpt>
      <trkpt lat="48.51882" lon="-2.62223">
        <ele>35</ele>
        <time>2019-03-01T09:39:40Z</time>
      </trkpt>
      <trkpt lat="48.51879" lon="-2.62218">
        <ele>36</ele>
        <time>2019-03-01T09:39:43Z</time>
      </trkpt>
      <trkpt lat="48.51876" lon="-2.62212">
        <ele>39</ele>
        <time>2019-03-01T09:39:47Z</time>
      </trkpt>
      <trkpt lat="48.51874" lon="-2.62208">
        <ele>39</ele>
        <time>2019-03-01T09:39:50Z</time>
      </trkpt>
      <trkpt lat="48.51873" lon="-2.62201">
        <ele>39</ele>
        <time>2019-03-01T09:39:53Z</time>
      </trkpt>
      <trkpt lat="48.51872" lon="-2.62197">
        <ele>40</ele>
        <time>2019-03-01T09:39:56Z</time>
      </trkpt>
      <trkpt lat="48.5187" lon="-2.62193">
        <ele>40</ele>
        <time>2019-03-01T09:40:00Z</time>
      </trkpt>
      <trkpt lat="48.51868" lon="-2.62187">
        <ele>40</ele>
        <time>2019-03-01T09:40:04Z</time>
      </trkpt>
      <trkpt lat="48.51865" lon="-2.62183">
        <ele>40</ele>
        <time>2019-03-01T09:40:08Z</time>
      </trkpt>
      <trkpt lat="48.51862" lon="-2.62176">
        <ele>40</ele>
        <time>2019-03-01T09:40:12Z</time>
      </trkpt>
      <trkpt lat="48.51862" lon="-2.62171">
        <ele>41</ele>
        <time>2019-03-01T09:40:15Z</time>
      </trkpt>
      <trkpt lat="48.5186" lon="-2.62164">
        <ele>44</ele>
        <time>2019-03-01T09:40:18Z</time>
      </trkpt>
      <trkpt lat="48.51858" lon="-2.6216">
        <ele>47</ele>
        <time>2019-03-01T09:40:21Z</time>
      </trkpt>
      <trkpt lat="48.51857" lon="-2.62156">
        <ele>48</ele>
        <time>2019-03-01T09:40:24Z</time>
      </trkpt>
      <trkpt lat="48.51855" lon="-2.62152">
        <ele>48</ele>
        <time>2019-03-01T09:40:27Z</time>
      </trkpt>
      <trkpt lat="48.51853" lon="-2.62146">
        <ele>49</ele>
        <time>2019-03-01T09:40:30Z</time>
      </trkpt>
      <trkpt lat="48.51852" lon="-2.6214">
        <ele>50</ele>
        <time>2019-03-01T09:40:34Z</time>
      </trkpt>
      <trkpt lat="48.5185" lon="-2.62135">
        <ele>51</ele>
        <time>2019-03-01T09:40:37Z</time>
      </trkpt>
      <trkpt lat="48.51848" lon="-2.6213">
        <ele>51</ele>
        <time>2019-03-01T09:40:40Z</time>
      </trkpt>
      <trkpt lat="48.51846" lon="-2.62126">
        <ele>51</ele>
        <time>2019-03-01T09:40:43Z</time>
      </trkpt>
      <trkpt lat="48.51842" lon="-2.62123">
        <ele>51</ele>
        <time>2019-03-01T09:40:46Z</time>
      </trkpt>
      <trkpt lat="48.51836" lon="-2.62121">
        <ele>51</ele>
        <time>2019-03-01T09:40:50Z</time>
      </trkpt>
      <trkpt lat="48.51833" lon="-2.6212">
        <ele>51</ele>
        <time>2019-03-01T09:40:53Z</time>
      </trkpt>
      <trkpt lat="48.51831" lon="-2.62118">
        <ele>49</ele>
        <time>2019-03-01T09:40:57Z</time>
      </trkpt>
      <trkpt lat="48.51828" lon="-2.62117">
        <ele>48</ele>
        <time>2019-03-01T09:41:00Z</time>
      </trkpt>
      <trkpt lat="48.51825" lon="-2.62117">
        <ele>48</ele>
        <time>2019-03-01T09:41:03Z</time>
      </trkpt>
      <trkpt lat="48.51821" lon="-2.62117">
        <ele>48</ele>
        <time>2019-03-01T09:41:06Z</time>
      </trkpt>
      <trkpt lat="48.51817" lon="-2.62119">
        <ele>48</ele>
        <time>2019-03-01T09:41:09Z</time>
      </trkpt>
      <trkpt lat="48.51813" lon="-2.6212">
        <ele>46</ele>
        <time>2019-03-01T09:41:12Z</time>
      </trkpt>
      <trkpt lat="48.5181" lon="-2.6212">
        <ele>46</ele>
        <time>2019-03-01T09:41:15Z</time>
      </trkpt>
      <trkpt lat="48.51807" lon="-2.62121">
        <ele>46</ele>
        <time>2019-03-01T09:41:18Z</time>
      </trkpt>
      <trkpt lat="48.51802" lon="-2.6212">
        <ele>46</ele>
        <time>2019-03-01T09:41:22Z</time>
      </trkpt>
      <trkpt lat="48.51798" lon="-2.62119">
        <ele>46</ele>
        <time>2019-03-01T09:41:26Z</time>
      </trkpt>
      <trkpt lat="48.51794" lon="-2.62119">
        <ele>46</ele>
        <time>2019-03-01T09:41:29Z</time>
      </trkpt>
      <trkpt lat="48.51791" lon="-2.6212">
        <ele>46</ele>
        <time>2019-03-01T09:41:33Z</time>
      </trkpt>
      <trkpt lat="48.51786" lon="-2.62119">
        <ele>46</ele>
        <time>2019-03-01T09:41:37Z</time>
      </trkpt>
      <trkpt lat="48.51782" lon="-2.6212">
        <ele>46</ele>
        <time>2019-03-01T09:41:41Z</time>
      </trkpt>
      <trkpt lat="48.51778" lon="-2.62121">
        <ele>46</ele>
        <time>2019-03-01T09:41:44Z</time>
      </trkpt>
      <trkpt lat="48.51776" lon="-2.62121">
        <ele>46</ele>
        <time>2019-03-01T09:41:48Z</time>
      </trkpt>
      <trkpt lat="48.51775" lon="-2.62121">
        <ele>46</ele>
        <time>2019-03-01T09:41:51Z</time>
      </trkpt>
      <trkpt lat="48.51773" lon="-2.62122">
        <ele>46</ele>
        <time>2019-03-01T09:41:54Z</time>
      </trkpt>
      <trkpt lat="48.51775" lon="-2.62119">
        <ele>47</ele>
        <time>2019-03-01T09:41:57Z</time>
      </trkpt>
      <trkpt lat="48.51776" lon="-2.62119">
        <ele>50</ele>
        <time>2019-03-01T09:42:02Z</time>
      </trkpt>
      <trkpt lat="48.51776" lon="-2.62121">
        <ele>50</ele>
        <time>2019-03-01T09:42:14Z</time>
      </trkpt>
      <trkpt lat="48.51775" lon="-2.62124">
        <ele>50</ele>
        <time>2019-03-01T09:42:17Z</time>
      </trkpt>
      <trkpt lat="48.51774" lon="-2.62131">
        <ele>50</ele>
        <time>2019-03-01T09:42:22Z</time>
      </trkpt>
      <trkpt lat="48.51773" lon="-2.62136">
        <ele>50</ele>
        <time>2019-03-01T09:42:25Z</time>
      </trkpt>
      <trkpt lat="48.5177" lon="-2.62142">
        <ele>50</ele>
        <time>2019-03-01T09:42:28Z</time>
      </trkpt>
      <trkpt lat="48.5177" lon="-2.62151">
        <ele>49</ele>
        <time>2019-03-01T09:42:32Z</time>
      </trkpt>
      <trkpt lat="48.51767" lon="-2.62155">
        <ele>49</ele>
        <time>2019-03-01T09:42:35Z</time>
      </trkpt>
      <trkpt lat="48.51762" lon="-2.62159">
        <ele>49</ele>
        <time>2019-03-01T09:42:38Z</time>
      </trkpt>
      <trkpt lat="48.5176" lon="-2.62164">
        <ele>47</ele>
        <time>2019-03-01T09:42:41Z</time>
      </trkpt>
      <trkpt lat="48.51759" lon="-2.6217">
        <ele>46</ele>
        <time>2019-03-01T09:42:44Z</time>
      </trkpt>
      <trkpt lat="48.51759" lon="-2.62176">
        <ele>46</ele>
        <time>2019-03-01T09:42:47Z</time>
      </trkpt>
      <trkpt lat="48.51759" lon="-2.62181">
        <ele>46</ele>
        <time>2019-03-01T09:42:51Z</time>
      </trkpt>
      <trkpt lat="48.51756" lon="-2.62184">
        <ele>46</ele>
        <time>2019-03-01T09:42:54Z</time>
      </trkpt>
      <trkpt lat="48.51754" lon="-2.62189">
        <ele>46</ele>
        <time>2019-03-01T09:42:58Z</time>
      </trkpt>
      <trkpt lat="48.51753" lon="-2.62194">
        <ele>46</ele>
        <time>2019-03-01T09:43:01Z</time>
      </trkpt>
      <trkpt lat="48.51751" lon="-2.622">
        <ele>46</ele>
        <time>2019-03-01T09:43:05Z</time>
      </trkpt>
      <trkpt lat="48.51749" lon="-2.62206">
        <ele>46</ele>
        <time>2019-03-01T09:43:08Z</time>
      </trkpt>
      <trkpt lat="48.51748" lon="-2.62211">
        <ele>46</ele>
        <time>2019-03-01T09:43:11Z</time>
      </trkpt>
      <trkpt lat="48.51745" lon="-2.62217">
        <ele>46</ele>
        <time>2019-03-01T09:43:14Z</time>
      </trkpt>
      <trkpt lat="48.51743" lon="-2.62224">
        <ele>46</ele>
        <time>2019-03-01T09:43:17Z</time>
      </trkpt>
      <trkpt lat="48.51742" lon="-2.6223">
        <ele>45</ele>
        <time>2019-03-01T09:43:20Z</time>
      </trkpt>
      <trkpt lat="48.51741" lon="-2.62236">
        <ele>45</ele>
        <time>2019-03-01T09:43:23Z</time>
      </trkpt>
      <trkpt lat="48.51739" lon="-2.62241">
        <ele>44</ele>
        <time>2019-03-01T09:43:26Z</time>
      </trkpt>
      <trkpt lat="48.51739" lon="-2.62243">
        <ele>44</ele>
        <time>2019-03-01T09:43:29Z</time>
      </trkpt>
      <trkpt lat="48.51738" lon="-2.62245">
        <ele>43</ele>
        <time>2019-03-01T09:43:32Z</time>
      </trkpt>
      <trkpt lat="48.51737" lon="-2.62246">
        <ele>42</ele>
        <time>2019-03-01T09:43:35Z</time>
      </trkpt>
      <trkpt lat="48.51735" lon="-2.62245">
        <ele>42</ele>
        <time>2019-03-01T09:43:42Z</time>
      </trkpt>
      <trkpt lat="48.51733" lon="-2.62246">
        <ele>42</ele>
        <time>2019-03-01T09:43:45Z</time>
      </trkpt>
      <trkpt lat="48.51735" lon="-2.62249">
        <ele>39</ele>
        <time>2019-03-01T09:43:52Z</time>
      </trkpt>
      <trkpt lat="48.51736" lon="-2.62254">
        <ele>39</ele>
        <time>2019-03-01T09:43:55Z</time>
      </trkpt>
      <trkpt lat="48.51736" lon="-2.6226">
        <ele>39</ele>
        <time>2019-03-01T09:43:59Z</time>
      </trkpt>
      <trkpt lat="48.51735" lon="-2.62267">
        <ele>40</ele>
        <time>2019-03-01T09:44:03Z</time>
      </trkpt>
      <trkpt lat="48.51736" lon="-2.62272">
        <ele>44</ele>
        <time>2019-03-01T09:44:11Z</time>
      </trkpt>
      <trkpt lat="48.51736" lon="-2.62278">
        <ele>44</ele>
        <time>2019-03-01T09:44:14Z</time>
      </trkpt>
      <trkpt lat="48.51733" lon="-2.62286">
        <ele>44</ele>
        <time>2019-03-01T09:44:18Z</time>
      </trkpt>
      <trkpt lat="48.51732" lon="-2.6229">
        <ele>44</ele>
        <time>2019-03-01T09:44:21Z</time>
      </trkpt>
      <trkpt lat="48.51729" lon="-2.62297">
        <ele>44</ele>
        <time>2019-03-01T09:44:24Z</time>
      </trkpt>
      <trkpt lat="48.5173" lon="-2.62301">
        <ele>44</ele>
        <time>2019-03-01T09:44:27Z</time>
      </trkpt>
      <trkpt lat="48.51729" lon="-2.62307">
        <ele>44</ele>
        <time>2019-03-01T09:44:30Z</time>
      </trkpt>
      <trkpt lat="48.51728" lon="-2.62312">
        <ele>44</ele>
        <time>2019-03-01T09:44:33Z</time>
      </trkpt>
      <trkpt lat="48.51727" lon="-2.62318">
        <ele>44</ele>
        <time>2019-03-01T09:44:36Z</time>
      </trkpt>
      <trkpt lat="48.51726" lon="-2.62326">
        <ele>44</ele>
        <time>2019-03-01T09:44:39Z</time>
      </trkpt>
      <trkpt lat="48.51724" lon="-2.62332">
        <ele>44</ele>
        <time>2019-03-01T09:44:42Z</time>
      </trkpt>
      <trkpt lat="48.51723" lon="-2.62337">
        <ele>44</ele>
        <time>2019-03-01T09:44:45Z</time>
      </trkpt>
      <trkpt lat="48.51723" lon="-2.62343">
        <ele>41</ele>
        <time>2019-03-01T09:44:49Z</time>
      </trkpt>
      <trkpt lat="48.51722" lon="-2.6235">
        <ele>39</ele>
        <time>2019-03-01T09:44:52Z</time>
      </trkpt>
      <trkpt lat="48.51722" lon="-2.62356">
        <ele>37</ele>
        <time>2019-03-01T09:44:55Z</time>
      </trkpt>
      <trkpt lat="48.51722" lon="-2.62361">
        <ele>37</ele>
        <time>2019-03-01T09:44:58Z</time>
      </trkpt>
      <trkpt lat="48.51722" lon="-2.62366">
        <ele>37</ele>
        <time>2019-03-01T09:45:01Z</time>
      </trkpt>
      <trkpt lat="48.51721" lon="-2.62372">
        <ele>37</ele>
        <time>2019-03-01T09:45:04Z</time>
      </trkpt>
      <trkpt lat="48.5172" lon="-2.62379">
        <ele>41</ele>
        <time>2019-03-01T09:45:08Z</time>
      </trkpt>
      <trkpt lat="48.51717" lon="-2.62384">
        <ele>44</ele>
        <time>2019-03-01T09:45:12Z</time>
      </trkpt>
      <trkpt lat="48.51715" lon="-2.62389">
        <ele>45</ele>
        <time>2019-03-01T09:45:15Z</time>
      </trkpt>
      <trkpt lat="48.51714" lon="-2.62394">
        <ele>46</ele>
        <time>2019-03-01T09:45:18Z</time>
      </trkpt>
      <trkpt lat="48.51712" lon="-2.62398">
        <ele>46</ele>
        <time>2019-03-01T09:45:21Z</time>
      </trkpt>
      <trkpt lat="48.51709" lon="-2.62401">
        <ele>46</ele>
        <time>2019-03-01T09:45:25Z</time>
      </trkpt>
      <trkpt lat="48.51706" lon="-2.624">
        <ele>47</ele>
        <time>2019-03-01T09:45:28Z</time>
      </trkpt>
      <trkpt lat="48.51702" lon="-2.62402">
        <ele>47</ele>
        <time>2019-03-01T09:45:34Z</time>
      </trkpt>
      <trkpt lat="48.51701" lon="-2.62401">
        <ele>47</ele>
        <time>2019-03-01T09:45:39Z</time>
      </trkpt>
      <trkpt lat="48.51701" lon="-2.62398">
        <ele>47</ele>
        <time>2019-03-01T09:45:42Z</time>
      </trkpt>
      <trkpt lat="48.51703" lon="-2.62394">
        <ele>47</ele>
        <time>2019-03-01T09:45:48Z</time>
      </trkpt>
      <trkpt lat="48.51703" lon="-2.62395">
        <ele>56</ele>
        <time>2019-03-01T09:46:02Z</time>
      </trkpt>
      <trkpt lat="48.517" lon="-2.62398">
        <ele>56</ele>
        <time>2019-03-01T09:46:06Z</time>
      </trkpt>
      <trkpt lat="48.51697" lon="-2.62399">
        <ele>56</ele>
        <time>2019-03-01T09:46:10Z</time>
      </trkpt>
      <trkpt lat="48.51694" lon="-2.62397">
        <ele>56</ele>
        <time>2019-03-01T09:46:14Z</time>
      </trkpt>
      <trkpt lat="48.51691" lon="-2.62395">
        <ele>56</ele>
        <time>2019-03-01T09:46:17Z</time>
      </trkpt>
      <trkpt lat="48.51686" lon="-2.62393">
        <ele>56</ele>
        <time>2019-03-01T09:46:20Z</time>
      </trkpt>
      <trkpt lat="48.51682" lon="-2.62391">
        <ele>56</ele>
        <time>2019-03-01T09:46:23Z</time>
      </trkpt>
      <trkpt lat="48.51675" lon="-2.62389">
        <ele>56</ele>
        <time>2019-03-01T09:46:26Z</time>
      </trkpt>
      <trkpt lat="48.5167" lon="-2.62388">
        <ele>56</ele>
        <time>2019-03-01T09:46:29Z</time>
      </trkpt>
      <trkpt lat="48.51665" lon="-2.62386">
        <ele>56</ele>
        <time>2019-03-01T09:46:32Z</time>
      </trkpt>
      <trkpt lat="48.51661" lon="-2.62384">
        <ele>56</ele>
        <time>2019-03-01T09:46:36Z</time>
      </trkpt>
      <trkpt lat="48.51656" lon="-2.62382">
        <ele>55</ele>
        <time>2019-03-01T09:46:39Z</time>
      </trkpt>
      <trkpt lat="48.51651" lon="-2.62379">
        <ele>55</ele>
        <time>2019-03-01T09:46:43Z</time>
      </trkpt>
      <trkpt lat="48.51646" lon="-2.62378">
        <ele>55</ele>
        <time>2019-03-01T09:46:46Z</time>
      </trkpt>
      <trkpt lat="48.51642" lon="-2.62377">
        <ele>55</ele>
        <time>2019-03-01T09:46:49Z</time>
      </trkpt>
      <trkpt lat="48.51638" lon="-2.62373">
        <ele>55</ele>
        <time>2019-03-01T09:46:52Z</time>
      </trkpt>
      <trkpt lat="48.51634" lon="-2.6237">
        <ele>55</ele>
        <time>2019-03-01T09:46:55Z</time>
      </trkpt>
      <trkpt lat="48.51629" lon="-2.62368">
        <ele>55</ele>
        <time>2019-03-01T09:46:58Z</time>
      </trkpt>
      <trkpt lat="48.51624" lon="-2.62366">
        <ele>55</ele>
        <time>2019-03-01T09:47:01Z</time>
      </trkpt>
      <trkpt lat="48.51622" lon="-2.62364">
        <ele>55</ele>
        <time>2019-03-01T09:47:04Z</time>
      </trkpt>
      <trkpt lat="48.51619" lon="-2.62363">
        <ele>55</ele>
        <time>2019-03-01T09:47:07Z</time>
      </trkpt>
      <trkpt lat="48.51615" lon="-2.62361">
        <ele>54</ele>
        <time>2019-03-01T09:47:10Z</time>
      </trkpt>
      <trkpt lat="48.5161" lon="-2.62359">
        <ele>53</ele>
        <time>2019-03-01T09:47:13Z</time>
      </trkpt>
      <trkpt lat="48.51606" lon="-2.62357">
        <ele>53</ele>
        <time>2019-03-01T09:47:16Z</time>
      </trkpt>
      <trkpt lat="48.516" lon="-2.62356">
        <ele>52</ele>
        <time>2019-03-01T09:47:19Z</time>
      </trkpt>
      <trkpt lat="48.51597" lon="-2.62354">
        <ele>52</ele>
        <time>2019-03-01T09:47:23Z</time>
      </trkpt>
      <trkpt lat="48.51593" lon="-2.62352">
        <ele>52</ele>
        <time>2019-03-01T09:47:27Z</time>
      </trkpt>
      <trkpt lat="48.51589" lon="-2.62352">
        <ele>52</ele>
        <time>2019-03-01T09:47:31Z</time>
      </trkpt>
      <trkpt lat="48.51585" lon="-2.62352">
        <ele>52</ele>
        <time>2019-03-01T09:47:34Z</time>
      </trkpt>
      <trkpt lat="48.5158" lon="-2.62351">
        <ele>52</ele>
        <time>2019-03-01T09:47:37Z</time>
      </trkpt>
      <trkpt lat="48.51574" lon="-2.62351">
        <ele>52</ele>
        <time>2019-03-01T09:47:41Z</time>
      </trkpt>
      <trkpt lat="48.51571" lon="-2.6235">
        <ele>52</ele>
        <time>2019-03-01T09:47:44Z</time>
      </trkpt>
      <trkpt lat="48.51565" lon="-2.6235">
        <ele>52</ele>
        <time>2019-03-01T09:47:47Z</time>
      </trkpt>
      <trkpt lat="48.5156" lon="-2.6235">
        <ele>52</ele>
        <time>2019-03-01T09:47:50Z</time>
      </trkpt>
      <trkpt lat="48.51554" lon="-2.6235">
        <ele>52</ele>
        <time>2019-03-01T09:47:54Z</time>
      </trkpt>
      <trkpt lat="48.51548" lon="-2.62349">
        <ele>52</ele>
        <time>2019-03-01T09:47:57Z</time>
      </trkpt>
      <trkpt lat="48.51543" lon="-2.62349">
        <ele>52</ele>
        <time>2019-03-01T09:48:00Z</time>
      </trkpt>
      <trkpt lat="48.51539" lon="-2.62348">
        <ele>52</ele>
        <time>2019-03-01T09:48:03Z</time>
      </trkpt>
      <trkpt lat="48.51535" lon="-2.62346">
        <ele>52</ele>
        <time>2019-03-01T09:48:06Z</time>
      </trkpt>
      <trkpt lat="48.51531" lon="-2.62344">
        <ele>52</ele>
        <time>2019-03-01T09:48:09Z</time>
      </trkpt>
      <trkpt lat="48.51526" lon="-2.62342">
        <ele>52</ele>
        <time>2019-03-01T09:48:12Z</time>
      </trkpt>
      <trkpt lat="48.51521" lon="-2.62341">
        <ele>51</ele>
        <time>2019-03-01T09:48:15Z</time>
      </trkpt>
      <trkpt lat="48.51517" lon="-2.62339">
        <ele>51</ele>
        <time>2019-03-01T09:48:18Z</time>
      </trkpt>
      <trkpt lat="48.51513" lon="-2.62338">
        <ele>51</ele>
        <time>2019-03-01T09:48:21Z</time>
      </trkpt>
      <trkpt lat="48.51511" lon="-2.62338">
        <ele>50</ele>
        <time>2019-03-01T09:48:24Z</time>
      </trkpt>
      <trkpt lat="48.51505" lon="-2.62337">
        <ele>50</ele>
        <time>2019-03-01T09:48:27Z</time>
      </trkpt>
      <trkpt lat="48.51499" lon="-2.62335">
        <ele>50</ele>
        <time>2019-03-01T09:48:30Z</time>
      </trkpt>
      <trkpt lat="48.51495" lon="-2.62336">
        <ele>50</ele>
        <time>2019-03-01T09:48:33Z</time>
      </trkpt>
      <trkpt lat="48.51492" lon="-2.62335">
        <ele>50</ele>
        <time>2019-03-01T09:48:36Z</time>
      </trkpt>
      <trkpt lat="48.51487" lon="-2.62335">
        <ele>50</ele>
        <time>2019-03-01T09:48:40Z</time>
      </trkpt>
      <trkpt lat="48.51482" lon="-2.62335">
        <ele>50</ele>
        <time>2019-03-01T09:48:43Z</time>
      </trkpt>
      <trkpt lat="48.51475" lon="-2.62335">
        <ele>50</ele>
        <time>2019-03-01T09:48:46Z</time>
      </trkpt>
      <trkpt lat="48.5147" lon="-2.62335">
        <ele>50</ele>
        <time>2019-03-01T09:48:49Z</time>
      </trkpt>
      <trkpt lat="48.51466" lon="-2.62334">
        <ele>50</ele>
        <time>2019-03-01T09:48:53Z</time>
      </trkpt>
      <trkpt lat="48.51461" lon="-2.62332">
        <ele>51</ele>
        <time>2019-03-01T09:48:57Z</time>
      </trkpt>
      <trkpt lat="48.51458" lon="-2.62331">
        <ele>51</ele>
        <time>2019-03-01T09:49:00Z</time>
      </trkpt>
      <trkpt lat="48.51454" lon="-2.62329">
        <ele>51</ele>
        <time>2019-03-01T09:49:03Z</time>
      </trkpt>
      <trkpt lat="48.51452" lon="-2.62326">
        <ele>51</ele>
        <time>2019-03-01T09:49:06Z</time>
      </trkpt>
      <trkpt lat="48.51447" lon="-2.62322">
        <ele>51</ele>
        <time>2019-03-01T09:49:09Z</time>
      </trkpt>
      <trkpt lat="48.51443" lon="-2.62319">
        <ele>51</ele>
        <time>2019-03-01T09:49:12Z</time>
      </trkpt>
      <trkpt lat="48.51438" lon="-2.62316">
        <ele>51</ele>
        <time>2019-03-01T09:49:15Z</time>
      </trkpt>
      <trkpt lat="48.51433" lon="-2.62312">
        <ele>51</ele>
        <time>2019-03-01T09:49:19Z</time>
      </trkpt>
      <trkpt lat="48.51429" lon="-2.6231">
        <ele>51</ele>
        <time>2019-03-01T09:49:22Z</time>
      </trkpt>
      <trkpt lat="48.51424" lon="-2.62306">
        <ele>51</ele>
        <time>2019-03-01T09:49:25Z</time>
      </trkpt>
      <trkpt lat="48.51419" lon="-2.62301">
        <ele>51</ele>
        <time>2019-03-01T09:49:29Z</time>
      </trkpt>
      <trkpt lat="48.51415" lon="-2.62296">
        <ele>51</ele>
        <time>2019-03-01T09:49:33Z</time>
      </trkpt>
      <trkpt lat="48.51412" lon="-2.62293">
        <ele>53</ele>
        <time>2019-03-01T09:49:36Z</time>
      </trkpt>
      <trkpt lat="48.51409" lon="-2.6229">
        <ele>54</ele>
        <time>2019-03-01T09:49:39Z</time>
      </trkpt>
      <trkpt lat="48.51404" lon="-2.62285">
        <ele>55</ele>
        <time>2019-03-01T09:49:43Z</time>
      </trkpt>
      <trkpt lat="48.514" lon="-2.62282">
        <ele>56</ele>
        <time>2019-03-01T09:49:46Z</time>
      </trkpt>
      <trkpt lat="48.51395" lon="-2.62278">
        <ele>56</ele>
        <time>2019-03-01T09:49:49Z</time>
      </trkpt>
      <trkpt lat="48.51392" lon="-2.62276">
        <ele>56</ele>
        <time>2019-03-01T09:49:52Z</time>
      </trkpt>
      <trkpt lat="48.51387" lon="-2.62273">
        <ele>57</ele>
        <time>2019-03-01T09:49:55Z</time>
      </trkpt>
      <trkpt lat="48.51383" lon="-2.62269">
        <ele>57</ele>
        <time>2019-03-01T09:49:58Z</time>
      </trkpt>
      <trkpt lat="48.51377" lon="-2.62267">
        <ele>57</ele>
        <time>2019-03-01T09:50:02Z</time>
      </trkpt>
      <trkpt lat="48.51374" lon="-2.62265">
        <ele>57</ele>
        <time>2019-03-01T09:50:05Z</time>
      </trkpt>
      <trkpt lat="48.51369" lon="-2.62262">
        <ele>57</ele>
        <time>2019-03-01T09:50:08Z</time>
      </trkpt>
      <trkpt lat="48.51365" lon="-2.62259">
        <ele>57</ele>
        <time>2019-03-01T09:50:11Z</time>
      </trkpt>
      <trkpt lat="48.51361" lon="-2.62257">
        <ele>57</ele>
        <time>2019-03-01T09:50:14Z</time>
      </trkpt>
      <trkpt lat="48.51357" lon="-2.62254">
        <ele>57</ele>
        <time>2019-03-01T09:50:17Z</time>
      </trkpt>
      <trkpt lat="48.51354" lon="-2.62252">
        <ele>57</ele>
        <time>2019-03-01T09:50:20Z</time>
      </trkpt>
      <trkpt lat="48.5135" lon="-2.62249">
        <ele>57</ele>
        <time>2019-03-01T09:50:23Z</time>
      </trkpt>
      <trkpt lat="48.51345" lon="-2.62246">
        <ele>57</ele>
        <time>2019-03-01T09:50:26Z</time>
      </trkpt>
      <trkpt lat="48.51342" lon="-2.62243">
        <ele>57</ele>
        <time>2019-03-01T09:50:29Z</time>
      </trkpt>
      <trkpt lat="48.51337" lon="-2.6224">
        <ele>57</ele>
        <time>2019-03-01T09:50:32Z</time>
      </trkpt>
      <trkpt lat="48.51332" lon="-2.62238">
        <ele>57</ele>
        <time>2019-03-01T09:50:35Z</time>
      </trkpt>
      <trkpt lat="48.51327" lon="-2.62237">
        <ele>57</ele>
        <time>2019-03-01T09:50:39Z</time>
      </trkpt>
      <trkpt lat="48.51322" lon="-2.62236">
        <ele>58</ele>
        <time>2019-03-01T09:50:42Z</time>
      </trkpt>
      <trkpt lat="48.51317" lon="-2.62235">
        <ele>59</ele>
        <time>2019-03-01T09:50:45Z</time>
      </trkpt>
      <trkpt lat="48.51313" lon="-2.62234">
        <ele>59</ele>
        <time>2019-03-01T09:50:48Z</time>
      </trkpt>
      <trkpt lat="48.51309" lon="-2.62234">
        <ele>60</ele>
        <time>2019-03-01T09:50:51Z</time>
      </trkpt>
      <trkpt lat="48.51306" lon="-2.62232">
        <ele>60</ele>
        <time>2019-03-01T09:50:54Z</time>
      </trkpt>
      <trkpt lat="48.51302" lon="-2.62232">
        <ele>61</ele>
        <time>2019-03-01T09:50:57Z</time>
      </trkpt>
      <trkpt lat="48.51299" lon="-2.62232">
        <ele>61</ele>
        <time>2019-03-01T09:51:00Z</time>
      </trkpt>
      <trkpt lat="48.51295" lon="-2.62228">
        <ele>61</ele>
        <time>2019-03-01T09:51:08Z</time>
      </trkpt>
      <trkpt lat="48.51294" lon="-2.62224">
        <ele>61</ele>
        <time>2019-03-01T09:51:11Z</time>
      </trkpt>
      <trkpt lat="48.5129" lon="-2.62219">
        <ele>61</ele>
        <time>2019-03-01T09:51:15Z</time>
      </trkpt>
      <trkpt lat="48.51287" lon="-2.62213">
        <ele>61</ele>
        <time>2019-03-01T09:51:18Z</time>
      </trkpt>
      <trkpt lat="48.51285" lon="-2.62208">
        <ele>62</ele>
        <time>2019-03-01T09:51:21Z</time>
      </trkpt>
      <trkpt lat="48.51283" lon="-2.62204">
        <ele>62</ele>
        <time>2019-03-01T09:51:24Z</time>
      </trkpt>
      <trkpt lat="48.5128" lon="-2.62198">
        <ele>64</ele>
        <time>2019-03-01T09:51:28Z</time>
      </trkpt>
      <trkpt lat="48.51284" lon="-2.62199">
        <ele>64</ele>
        <time>2019-03-01T09:51:32Z</time>
      </trkpt>
      <trkpt lat="48.51286" lon="-2.62204">
        <ele>64</ele>
        <time>2019-03-01T09:51:36Z</time>
      </trkpt>
      <trkpt lat="48.5129" lon="-2.62207">
        <ele>64</ele>
        <time>2019-03-01T09:51:40Z</time>
      </trkpt>
      <trkpt lat="48.51293" lon="-2.62213">
        <ele>64</ele>
        <time>2019-03-01T09:51:44Z</time>
      </trkpt>
      <trkpt lat="48.51296" lon="-2.62218">
        <ele>64</ele>
        <time>2019-03-01T09:51:48Z</time>
      </trkpt>
      <trkpt lat="48.51298" lon="-2.62221">
        <ele>62</ele>
        <time>2019-03-01T09:52:09Z</time>
      </trkpt>
      <trkpt lat="48.51298" lon="-2.62223">
        <ele>62</ele>
        <time>2019-03-01T09:52:12Z</time>
      </trkpt>
      <trkpt lat="48.51297" lon="-2.62226">
        <ele>62</ele>
        <time>2019-03-01T09:52:15Z</time>
      </trkpt>
      <trkpt lat="48.51296" lon="-2.62228">
        <ele>62</ele>
        <time>2019-03-01T09:52:18Z</time>
      </trkpt>
      <trkpt lat="48.51293" lon="-2.62231">
        <ele>62</ele>
        <time>2019-03-01T09:52:22Z</time>
      </trkpt>
      <trkpt lat="48.5129" lon="-2.62234">
        <ele>62</ele>
        <time>2019-03-01T09:52:25Z</time>
      </trkpt>
      <trkpt lat="48.51285" lon="-2.62239">
        <ele>62</ele>
        <time>2019-03-01T09:52:29Z</time>
      </trkpt>
      <trkpt lat="48.51284" lon="-2.62244">
        <ele>62</ele>
        <time>2019-03-01T09:52:32Z</time>
      </trkpt>
      <trkpt lat="48.51283" lon="-2.62249">
        <ele>62</ele>
        <time>2019-03-01T09:52:35Z</time>
      </trkpt>
      <trkpt lat="48.51283" lon="-2.62256">
        <ele>62</ele>
        <time>2019-03-01T09:52:38Z</time>
      </trkpt>
      <trkpt lat="48.51282" lon="-2.62261">
        <ele>62</ele>
        <time>2019-03-01T09:52:41Z</time>
      </trkpt>
      <trkpt lat="48.51282" lon="-2.62266">
        <ele>62</ele>
        <time>2019-03-01T09:52:46Z</time>
      </trkpt>
      <trkpt lat="48.51282" lon="-2.62271">
        <ele>62</ele>
        <time>2019-03-01T09:52:49Z</time>
      </trkpt>
      <trkpt lat="48.51282" lon="-2.62277">
        <ele>62</ele>
        <time>2019-03-01T09:52:52Z</time>
      </trkpt>
      <trkpt lat="48.51281" lon="-2.62282">
        <ele>62</ele>
        <time>2019-03-01T09:52:55Z</time>
      </trkpt>
      <trkpt lat="48.51281" lon="-2.62287">
        <ele>62</ele>
        <time>2019-03-01T09:52:58Z</time>
      </trkpt>
      <trkpt lat="48.51278" lon="-2.62291">
        <ele>62</ele>
        <time>2019-03-01T09:53:01Z</time>
      </trkpt>
      <trkpt lat="48.51277" lon="-2.62297">
        <ele>62</ele>
        <time>2019-03-01T09:53:04Z</time>
      </trkpt>
      <trkpt lat="48.51276" lon="-2.62302">
        <ele>62</ele>
        <time>2019-03-01T09:53:07Z</time>
      </trkpt>
      <trkpt lat="48.51275" lon="-2.62308">
        <ele>62</ele>
        <time>2019-03-01T09:53:10Z</time>
      </trkpt>
      <trkpt lat="48.51274" lon="-2.62313">
        <ele>62</ele>
        <time>2019-03-01T09:53:13Z</time>
      </trkpt>
      <trkpt lat="48.51272" lon="-2.62319">
        <ele>62</ele>
        <time>2019-03-01T09:53:16Z</time>
      </trkpt>
      <trkpt lat="48.51271" lon="-2.62325">
        <ele>62</ele>
        <time>2019-03-01T09:53:19Z</time>
      </trkpt>
      <trkpt lat="48.51269" lon="-2.6233">
        <ele>62</ele>
        <time>2019-03-01T09:53:22Z</time>
      </trkpt>
      <trkpt lat="48.51266" lon="-2.62336">
        <ele>62</ele>
        <time>2019-03-01T09:53:26Z</time>
      </trkpt>
      <trkpt lat="48.51264" lon="-2.62342">
        <ele>62</ele>
        <time>2019-03-01T09:53:29Z</time>
      </trkpt>
      <trkpt lat="48.51263" lon="-2.62348">
        <ele>62</ele>
        <time>2019-03-01T09:53:32Z</time>
      </trkpt>
      <trkpt lat="48.51263" lon="-2.62353">
        <ele>62</ele>
        <time>2019-03-01T09:53:35Z</time>
      </trkpt>
      <trkpt lat="48.51261" lon="-2.6236">
        <ele>63</ele>
        <time>2019-03-01T09:53:38Z</time>
      </trkpt>
      <trkpt lat="48.5126" lon="-2.62366">
        <ele>63</ele>
        <time>2019-03-01T09:53:41Z</time>
      </trkpt>
      <trkpt lat="48.51258" lon="-2.62372">
        <ele>63</ele>
        <time>2019-03-01T09:53:44Z</time>
      </trkpt>
      <trkpt lat="48.51257" lon="-2.62379">
        <ele>63</ele>
        <time>2019-03-01T09:53:47Z</time>
      </trkpt>
      <trkpt lat="48.51255" lon="-2.62385">
        <ele>63</ele>
        <time>2019-03-01T09:53:50Z</time>
      </trkpt>
      <trkpt lat="48.51252" lon="-2.6239">
        <ele>63</ele>
        <time>2019-03-01T09:53:53Z</time>
      </trkpt>
      <trkpt lat="48.51249" lon="-2.62394">
        <ele>63</ele>
        <time>2019-03-01T09:53:56Z</time>
      </trkpt>
      <trkpt lat="48.51244" lon="-2.62396">
        <ele>63</ele>
        <time>2019-03-01T09:53:59Z</time>
      </trkpt>
      <trkpt lat="48.51239" lon="-2.62395">
        <ele>63</ele>
        <time>2019-03-01T09:54:02Z</time>
      </trkpt>
      <trkpt lat="48.51233" lon="-2.62395">
        <ele>63</ele>
        <time>2019-03-01T09:54:05Z</time>
      </trkpt>
      <trkpt lat="48.51229" lon="-2.62395">
        <ele>63</ele>
        <time>2019-03-01T09:54:08Z</time>
      </trkpt>
      <trkpt lat="48.51225" lon="-2.62394">
        <ele>63</ele>
        <time>2019-03-01T09:54:11Z</time>
      </trkpt>
      <trkpt lat="48.51221" lon="-2.62393">
        <ele>63</ele>
        <time>2019-03-01T09:54:14Z</time>
      </trkpt>
      <trkpt lat="48.51217" lon="-2.62392">
        <ele>63</ele>
        <time>2019-03-01T09:54:17Z</time>
      </trkpt>
      <trkpt lat="48.51214" lon="-2.62391">
        <ele>63</ele>
        <time>2019-03-01T09:54:20Z</time>
      </trkpt>
      <trkpt lat="48.5121" lon="-2.62391">
        <ele>63</ele>
        <time>2019-03-01T09:54:24Z</time>
      </trkpt>
      <trkpt lat="48.51206" lon="-2.62389">
        <ele>63</ele>
        <time>2019-03-01T09:54:27Z</time>
      </trkpt>
      <trkpt lat="48.51201" lon="-2.62388">
        <ele>63</ele>
        <time>2019-03-01T09:54:30Z</time>
      </trkpt>
      <trkpt lat="48.51197" lon="-2.62386">
        <ele>63</ele>
        <time>2019-03-01T09:54:33Z</time>
      </trkpt>
      <trkpt lat="48.51193" lon="-2.62384">
        <ele>63</ele>
        <time>2019-03-01T09:54:36Z</time>
      </trkpt>
      <trkpt lat="48.5119" lon="-2.62383">
        <ele>63</ele>
        <time>2019-03-01T09:54:39Z</time>
      </trkpt>
      <trkpt lat="48.51185" lon="-2.62382">
        <ele>63</ele>
        <time>2019-03-01T09:54:42Z</time>
      </trkpt>
      <trkpt lat="48.51182" lon="-2.6238">
        <ele>63</ele>
        <time>2019-03-01T09:54:45Z</time>
      </trkpt>
      <trkpt lat="48.51178" lon="-2.62379">
        <ele>63</ele>
        <time>2019-03-01T09:54:48Z</time>
      </trkpt>
      <trkpt lat="48.51175" lon="-2.62378">
        <ele>63</ele>
        <time>2019-03-01T09:54:51Z</time>
      </trkpt>
      <trkpt lat="48.51172" lon="-2.62379">
        <ele>63</ele>
        <time>2019-03-01T09:54:54Z</time>
      </trkpt>
      <trkpt lat="48.51168" lon="-2.62381">
        <ele>63</ele>
        <time>2019-03-01T09:54:58Z</time>
      </trkpt>
      <trkpt lat="48.51167" lon="-2.62383">
        <ele>63</ele>
        <time>2019-03-01T09:55:01Z</time>
      </trkpt>
      <trkpt lat="48.51167" lon="-2.62388">
        <ele>63</ele>
        <time>2019-03-01T09:55:04Z</time>
      </trkpt>
      <trkpt lat="48.51165" lon="-2.62392">
        <ele>63</ele>
        <time>2019-03-01T09:55:07Z</time>
      </trkpt>
      <trkpt lat="48.51163" lon="-2.62397">
        <ele>63</ele>
        <time>2019-03-01T09:55:10Z</time>
      </trkpt>
      <trkpt lat="48.51162" lon="-2.62403">
        <ele>63</ele>
        <time>2019-03-01T09:55:13Z</time>
      </trkpt>
      <trkpt lat="48.51161" lon="-2.62408">
        <ele>64</ele>
        <time>2019-03-01T09:55:16Z</time>
      </trkpt>
      <trkpt lat="48.5116" lon="-2.62413">
        <ele>65</ele>
        <time>2019-03-01T09:55:19Z</time>
      </trkpt>
      <trkpt lat="48.51159" lon="-2.62418">
        <ele>66</ele>
        <time>2019-03-01T09:55:22Z</time>
      </trkpt>
      <trkpt lat="48.51157" lon="-2.62424">
        <ele>66</ele>
        <time>2019-03-01T09:55:25Z</time>
      </trkpt>
      <trkpt lat="48.51155" lon="-2.6243">
        <ele>67</ele>
        <time>2019-03-01T09:55:28Z</time>
      </trkpt>
      <trkpt lat="48.51155" lon="-2.62436">
        <ele>67</ele>
        <time>2019-03-01T09:55:31Z</time>
      </trkpt>
      <trkpt lat="48.51154" lon="-2.62442">
        <ele>67</ele>
        <time>2019-03-01T09:55:34Z</time>
      </trkpt>
      <trkpt lat="48.51153" lon="-2.62447">
        <ele>67</ele>
        <time>2019-03-01T09:55:37Z</time>
      </trkpt>
      <trkpt lat="48.51152" lon="-2.62452">
        <ele>67</ele>
        <time>2019-03-01T09:55:40Z</time>
      </trkpt>
      <trkpt lat="48.51151" lon="-2.62458">
        <ele>67</ele>
        <time>2019-03-01T09:55:43Z</time>
      </trkpt>
      <trkpt lat="48.5115" lon="-2.62464">
        <ele>67</ele>
        <time>2019-03-01T09:55:46Z</time>
      </trkpt>
      <trkpt lat="48.51149" lon="-2.62472">
        <ele>67</ele>
        <time>2019-03-01T09:55:50Z</time>
      </trkpt>
      <trkpt lat="48.51149" lon="-2.62478">
        <ele>67</ele>
        <time>2019-03-01T09:55:53Z</time>
      </trkpt>
      <trkpt lat="48.51145" lon="-2.62483">
        <ele>67</ele>
        <time>2019-03-01T09:55:56Z</time>
      </trkpt>
      <trkpt lat="48.51143" lon="-2.6249">
        <ele>67</ele>
        <time>2019-03-01T09:55:59Z</time>
      </trkpt>
      <trkpt lat="48.51141" lon="-2.62496">
        <ele>67</ele>
        <time>2019-03-01T09:56:02Z</time>
      </trkpt>
      <trkpt lat="48.51139" lon="-2.62501">
        <ele>67</ele>
        <time>2019-03-01T09:56:05Z</time>
      </trkpt>
      <trkpt lat="48.51138" lon="-2.62508">
        <ele>67</ele>
        <time>2019-03-01T09:56:08Z</time>
      </trkpt>
      <trkpt lat="48.51136" lon="-2.62514">
        <ele>67</ele>
        <time>2019-03-01T09:56:11Z</time>
      </trkpt>
      <trkpt lat="48.51134" lon="-2.6252">
        <ele>67</ele>
        <time>2019-03-01T09:56:14Z</time>
      </trkpt>
      <trkpt lat="48.51132" lon="-2.62526">
        <ele>67</ele>
        <time>2019-03-01T09:56:17Z</time>
      </trkpt>
      <trkpt lat="48.5113" lon="-2.62532">
        <ele>67</ele>
        <time>2019-03-01T09:56:20Z</time>
      </trkpt>
      <trkpt lat="48.51129" lon="-2.62538">
        <ele>67</ele>
        <time>2019-03-01T09:56:23Z</time>
      </trkpt>
      <trkpt lat="48.51128" lon="-2.62544">
        <ele>67</ele>
        <time>2019-03-01T09:56:26Z</time>
      </trkpt>
      <trkpt lat="48.51128" lon="-2.62549">
        <ele>67</ele>
        <time>2019-03-01T09:56:29Z</time>
      </trkpt>
      <trkpt lat="48.51132" lon="-2.62552">
        <ele>67</ele>
        <time>2019-03-01T09:56:33Z</time>
      </trkpt>
      <trkpt lat="48.51136" lon="-2.62553">
        <ele>67</ele>
        <time>2019-03-01T09:56:36Z</time>
      </trkpt>
      <trkpt lat="48.51139" lon="-2.62552">
        <ele>67</ele>
        <time>2019-03-01T09:56:39Z</time>
      </trkpt>
      <trkpt lat="48.51143" lon="-2.62553">
        <ele>67</ele>
        <time>2019-03-01T09:56:42Z</time>
      </trkpt>
      <trkpt lat="48.51147" lon="-2.62554">
        <ele>67</ele>
        <time>2019-03-01T09:56:46Z</time>
      </trkpt>
      <trkpt lat="48.51152" lon="-2.62555">
        <ele>67</ele>
        <time>2019-03-01T09:56:49Z</time>
      </trkpt>
      <trkpt lat="48.51155" lon="-2.62557">
        <ele>67</ele>
        <time>2019-03-01T09:56:52Z</time>
      </trkpt>
      <trkpt lat="48.51159" lon="-2.62558">
        <ele>67</ele>
        <time>2019-03-01T09:56:55Z</time>
      </trkpt>
      <trkpt lat="48.51164" lon="-2.6256">
        <ele>67</ele>
        <time>2019-03-01T09:56:58Z</time>
      </trkpt>
      <trkpt lat="48.51168" lon="-2.62562">
        <ele>67</ele>
        <time>2019-03-01T09:57:02Z</time>
      </trkpt>
      <trkpt lat="48.5117" lon="-2.62563">
        <ele>67</ele>
        <time>2019-03-01T09:57:05Z</time>
      </trkpt>
      <trkpt lat="48.51172" lon="-2.62566">
        <ele>67</ele>
        <time>2019-03-01T09:57:08Z</time>
      </trkpt>
      <trkpt lat="48.51176" lon="-2.62568">
        <ele>67</ele>
        <time>2019-03-01T09:57:11Z</time>
      </trkpt>
      <trkpt lat="48.5118" lon="-2.6257">
        <ele>67</ele>
        <time>2019-03-01T09:57:15Z</time>
      </trkpt>
      <trkpt lat="48.51184" lon="-2.62572">
        <ele>67</ele>
        <time>2019-03-01T09:57:18Z</time>
      </trkpt>
      <trkpt lat="48.51187" lon="-2.62574">
        <ele>67</ele>
        <time>2019-03-01T09:57:21Z</time>
      </trkpt>
      <trkpt lat="48.5119" lon="-2.62575">
        <ele>67</ele>
        <time>2019-03-01T09:57:24Z</time>
      </trkpt>
      <trkpt lat="48.51194" lon="-2.62577">
        <ele>67</ele>
        <time>2019-03-01T09:57:27Z</time>
      </trkpt>
      <trkpt lat="48.51197" lon="-2.6258">
        <ele>67</ele>
        <time>2019-03-01T09:57:32Z</time>
      </trkpt>
      <trkpt lat="48.51201" lon="-2.62582">
        <ele>67</ele>
        <time>2019-03-01T09:57:35Z</time>
      </trkpt>
      <trkpt lat="48.51206" lon="-2.62583">
        <ele>68</ele>
        <time>2019-03-01T09:57:38Z</time>
      </trkpt>
      <trkpt lat="48.5121" lon="-2.62585">
        <ele>69</ele>
        <time>2019-03-01T09:57:41Z</time>
      </trkpt>
      <trkpt lat="48.51214" lon="-2.62585">
        <ele>69</ele>
        <time>2019-03-01T09:57:44Z</time>
      </trkpt>
      <trkpt lat="48.51217" lon="-2.62587">
        <ele>70</ele>
        <time>2019-03-01T09:57:47Z</time>
      </trkpt>
      <trkpt lat="48.51219" lon="-2.62588">
        <ele>70</ele>
        <time>2019-03-01T09:57:50Z</time>
      </trkpt>
      <trkpt lat="48.51221" lon="-2.62591">
        <ele>69</ele>
        <time>2019-03-01T09:58:03Z</time>
      </trkpt>
      <trkpt lat="48.51223" lon="-2.62592">
        <ele>68</ele>
        <time>2019-03-01T09:58:06Z</time>
      </trkpt>
      <trkpt lat="48.51226" lon="-2.62594">
        <ele>67</ele>
        <time>2019-03-01T09:58:09Z</time>
      </trkpt>
      <trkpt lat="48.5123" lon="-2.62597">
        <ele>67</ele>
        <time>2019-03-01T09:58:12Z</time>
      </trkpt>
      <trkpt lat="48.51233" lon="-2.62599">
        <ele>65</ele>
        <time>2019-03-01T09:58:16Z</time>
      </trkpt>
      <trkpt lat="48.51235" lon="-2.62603">
        <ele>63</ele>
        <time>2019-03-01T09:58:20Z</time>
      </trkpt>
      <trkpt lat="48.51239" lon="-2.62606">
        <ele>63</ele>
        <time>2019-03-01T09:58:24Z</time>
      </trkpt>
      <trkpt lat="48.51241" lon="-2.62609">
        <ele>62</ele>
        <time>2019-03-01T09:58:27Z</time>
      </trkpt>
      <trkpt lat="48.51245" lon="-2.62613">
        <ele>61</ele>
        <time>2019-03-01T09:58:30Z</time>
      </trkpt>
      <trkpt lat="48.51249" lon="-2.62617">
        <ele>59</ele>
        <time>2019-03-01T09:58:34Z</time>
      </trkpt>
      <trkpt lat="48.51252" lon="-2.6262">
        <ele>59</ele>
        <time>2019-03-01T09:58:37Z</time>
      </trkpt>
      <trkpt lat="48.51256" lon="-2.62624">
        <ele>58</ele>
        <time>2019-03-01T09:58:41Z</time>
      </trkpt>
      <trkpt lat="48.51259" lon="-2.62626">
        <ele>58</ele>
        <time>2019-03-01T09:58:44Z</time>
      </trkpt>
      <trkpt lat="48.51263" lon="-2.62627">
        <ele>57</ele>
        <time>2019-03-01T09:58:48Z</time>
      </trkpt>
      <trkpt lat="48.51267" lon="-2.62631">
        <ele>57</ele>
        <time>2019-03-01T09:58:52Z</time>
      </trkpt>
      <trkpt lat="48.5127" lon="-2.62634">
        <ele>57</ele>
        <time>2019-03-01T09:58:56Z</time>
      </trkpt>
      <trkpt lat="48.51274" lon="-2.62638">
        <ele>57</ele>
        <time>2019-03-01T09:59:00Z</time>
      </trkpt>
      <trkpt lat="48.51277" lon="-2.62642">
        <ele>57</ele>
        <time>2019-03-01T09:59:03Z</time>
      </trkpt>
      <trkpt lat="48.5128" lon="-2.62646">
        <ele>57</ele>
        <time>2019-03-01T09:59:06Z</time>
      </trkpt>
      <trkpt lat="48.51283" lon="-2.62648">
        <ele>57</ele>
        <time>2019-03-01T09:59:09Z</time>
      </trkpt>
      <trkpt lat="48.51287" lon="-2.62653">
        <ele>57</ele>
        <time>2019-03-01T09:59:13Z</time>
      </trkpt>
      <trkpt lat="48.5129" lon="-2.62657">
        <ele>57</ele>
        <time>2019-03-01T09:59:16Z</time>
      </trkpt>
      <trkpt lat="48.51295" lon="-2.62662">
        <ele>57</ele>
        <time>2019-03-01T09:59:20Z</time>
      </trkpt>
      <trkpt lat="48.51298" lon="-2.62666">
        <ele>57</ele>
        <time>2019-03-01T09:59:23Z</time>
      </trkpt>
      <trkpt lat="48.51301" lon="-2.6267">
        <ele>57</ele>
        <time>2019-03-01T09:59:26Z</time>
      </trkpt>
      <trkpt lat="48.51304" lon="-2.62675">
        <ele>57</ele>
        <time>2019-03-01T09:59:30Z</time>
      </trkpt>
      <trkpt lat="48.51307" lon="-2.62678">
        <ele>57</ele>
        <time>2019-03-01T09:59:33Z</time>
      </trkpt>
      <trkpt lat="48.51311" lon="-2.62681">
        <ele>57</ele>
        <time>2019-03-01T09:59:36Z</time>
      </trkpt>
      <trkpt lat="48.51316" lon="-2.62685">
        <ele>57</ele>
        <time>2019-03-01T09:59:40Z</time>
      </trkpt>
      <trkpt lat="48.51319" lon="-2.62688">
        <ele>57</ele>
        <time>2019-03-01T09:59:43Z</time>
      </trkpt>
      <trkpt lat="48.51324" lon="-2.62694">
        <ele>57</ele>
        <time>2019-03-01T09:59:47Z</time>
      </trkpt>
      <trkpt lat="48.51328" lon="-2.62699">
        <ele>57</ele>
        <time>2019-03-01T09:59:50Z</time>
      </trkpt>
      <trkpt lat="48.51332" lon="-2.62706">
        <ele>57</ele>
        <time>2019-03-01T09:59:54Z</time>
      </trkpt>
      <trkpt lat="48.51334" lon="-2.6271">
        <ele>57</ele>
        <time>2019-03-01T09:59:57Z</time>
      </trkpt>
      <trkpt lat="48.51336" lon="-2.62715">
        <ele>57</ele>
        <time>2019-03-01T10:00:00Z</time>
      </trkpt>
      <trkpt lat="48.51339" lon="-2.62718">
        <ele>57</ele>
        <time>2019-03-01T10:00:05Z</time>
      </trkpt>
      <trkpt lat="48.51337" lon="-2.62719">
        <ele>55</ele>
        <time>2019-03-01T10:00:15Z</time>
      </trkpt>
      <trkpt lat="48.51338" lon="-2.62721">
        <ele>52</ele>
        <time>2019-03-01T10:00:21Z</time>
      </trkpt>
      <trkpt lat="48.51339" lon="-2.62723">
        <ele>52</ele>
        <time>2019-03-01T10:00:25Z</time>
      </trkpt>
      <trkpt lat="48.51339" lon="-2.62729">
        <ele>52</ele>
        <time>2019-03-01T10:00:29Z</time>
      </trkpt>
      <trkpt lat="48.51341" lon="-2.62735">
        <ele>52</ele>
        <time>2019-03-01T10:00:33Z</time>
      </trkpt>
      <trkpt lat="48.51344" lon="-2.62739">
        <ele>52</ele>
        <time>2019-03-01T10:00:36Z</time>
      </trkpt>
      <trkpt lat="48.51345" lon="-2.62746">
        <ele>52</ele>
        <time>2019-03-01T10:00:40Z</time>
      </trkpt>
      <trkpt lat="48.51348" lon="-2.62752">
        <ele>52</ele>
        <time>2019-03-01T10:00:44Z</time>
      </trkpt>
      <trkpt lat="48.5135" lon="-2.62758">
        <ele>52</ele>
        <time>2019-03-01T10:00:48Z</time>
      </trkpt>
      <trkpt lat="48.51352" lon="-2.62762">
        <ele>52</ele>
        <time>2019-03-01T10:00:51Z</time>
      </trkpt>
      <trkpt lat="48.51354" lon="-2.62766">
        <ele>52</ele>
        <time>2019-03-01T10:00:54Z</time>
      </trkpt>
      <trkpt lat="48.51357" lon="-2.62771">
        <ele>52</ele>
        <time>2019-03-01T10:00:57Z</time>
      </trkpt>
      <trkpt lat="48.5136" lon="-2.62776">
        <ele>52</ele>
        <time>2019-03-01T10:01:00Z</time>
      </trkpt>
      <trkpt lat="48.51363" lon="-2.62781">
        <ele>52</ele>
        <time>2019-03-01T10:01:03Z</time>
      </trkpt>
      <trkpt lat="48.51368" lon="-2.62788">
        <ele>52</ele>
        <time>2019-03-01T10:01:07Z</time>
      </trkpt>
      <trkpt lat="48.51369" lon="-2.62794">
        <ele>52</ele>
        <time>2019-03-01T10:01:10Z</time>
      </trkpt>
      <trkpt lat="48.51372" lon="-2.62801">
        <ele>52</ele>
        <time>2019-03-01T10:01:14Z</time>
      </trkpt>
      <trkpt lat="48.51373" lon="-2.62805">
        <ele>52</ele>
        <time>2019-03-01T10:01:17Z</time>
      </trkpt>
      <trkpt lat="48.51374" lon="-2.6281">
        <ele>52</ele>
        <time>2019-03-01T10:01:20Z</time>
      </trkpt>
      <trkpt lat="48.51375" lon="-2.62815">
        <ele>52</ele>
        <time>2019-03-01T10:01:23Z</time>
      </trkpt>
      <trkpt lat="48.51376" lon="-2.62821">
        <ele>51</ele>
        <time>2019-03-01T10:01:26Z</time>
      </trkpt>
      <trkpt lat="48.5138" lon="-2.62827">
        <ele>51</ele>
        <time>2019-03-01T10:01:30Z</time>
      </trkpt>
      <trkpt lat="48.51382" lon="-2.62832">
        <ele>50</ele>
        <time>2019-03-01T10:01:33Z</time>
      </trkpt>
      <trkpt lat="48.51384" lon="-2.62837">
        <ele>50</ele>
        <time>2019-03-01T10:01:36Z</time>
      </trkpt>
      <trkpt lat="48.51386" lon="-2.62843">
        <ele>50</ele>
        <time>2019-03-01T10:01:39Z</time>
      </trkpt>
      <trkpt lat="48.51388" lon="-2.62848">
        <ele>50</ele>
        <time>2019-03-01T10:01:42Z</time>
      </trkpt>
      <trkpt lat="48.51389" lon="-2.62854">
        <ele>49</ele>
        <time>2019-03-01T10:01:45Z</time>
      </trkpt>
      <trkpt lat="48.51392" lon="-2.62859">
        <ele>49</ele>
        <time>2019-03-01T10:01:48Z</time>
      </trkpt>
      <trkpt lat="48.51394" lon="-2.62864">
        <ele>49</ele>
        <time>2019-03-01T10:01:51Z</time>
      </trkpt>
      <trkpt lat="48.51397" lon="-2.62869">
        <ele>49</ele>
        <time>2019-03-01T10:01:54Z</time>
      </trkpt>
      <trkpt lat="48.51399" lon="-2.62875">
        <ele>49</ele>
        <time>2019-03-01T10:01:57Z</time>
      </trkpt>
      <trkpt lat="48.51401" lon="-2.6288">
        <ele>49</ele>
        <time>2019-03-01T10:02:01Z</time>
      </trkpt>
      <trkpt lat="48.51403" lon="-2.62885">
        <ele>49</ele>
        <time>2019-03-01T10:02:04Z</time>
      </trkpt>
      <trkpt lat="48.51405" lon="-2.62891">
        <ele>49</ele>
        <time>2019-03-01T10:02:07Z</time>
      </trkpt>
      <trkpt lat="48.51407" lon="-2.62896">
        <ele>49</ele>
        <time>2019-03-01T10:02:10Z</time>
      </trkpt>
      <trkpt lat="48.5141" lon="-2.62902">
        <ele>49</ele>
        <time>2019-03-01T10:02:13Z</time>
      </trkpt>
      <trkpt lat="48.51411" lon="-2.62909">
        <ele>49</ele>
        <time>2019-03-01T10:02:16Z</time>
      </trkpt>
      <trkpt lat="48.51411" lon="-2.62915">
        <ele>49</ele>
        <time>2019-03-01T10:02:19Z</time>
      </trkpt>
      <trkpt lat="48.51409" lon="-2.6292">
        <ele>49</ele>
        <time>2019-03-01T10:02:22Z</time>
      </trkpt>
      <trkpt lat="48.51408" lon="-2.62927">
        <ele>49</ele>
        <time>2019-03-01T10:02:26Z</time>
      </trkpt>
      <trkpt lat="48.51406" lon="-2.62934">
        <ele>48</ele>
        <time>2019-03-01T10:02:30Z</time>
      </trkpt>
      <trkpt lat="48.51408" lon="-2.6294">
        <ele>48</ele>
        <time>2019-03-01T10:02:33Z</time>
      </trkpt>
      <trkpt lat="48.51408" lon="-2.62946">
        <ele>48</ele>
        <time>2019-03-01T10:02:36Z</time>
      </trkpt>
      <trkpt lat="48.51411" lon="-2.62953">
        <ele>48</ele>
        <time>2019-03-01T10:02:39Z</time>
      </trkpt>
      <trkpt lat="48.51412" lon="-2.6296">
        <ele>48</ele>
        <time>2019-03-01T10:02:42Z</time>
      </trkpt>
      <trkpt lat="48.51412" lon="-2.62966">
        <ele>48</ele>
        <time>2019-03-01T10:02:45Z</time>
      </trkpt>
      <trkpt lat="48.51413" lon="-2.62973">
        <ele>46</ele>
        <time>2019-03-01T10:02:48Z</time>
      </trkpt>
      <trkpt lat="48.51414" lon="-2.62979">
        <ele>45</ele>
        <time>2019-03-01T10:02:51Z</time>
      </trkpt>
      <trkpt lat="48.51414" lon="-2.62984">
        <ele>45</ele>
        <time>2019-03-01T10:02:54Z</time>
      </trkpt>
      <trkpt lat="48.51414" lon="-2.62991">
        <ele>44</ele>
        <time>2019-03-01T10:02:57Z</time>
      </trkpt>
      <trkpt lat="48.51416" lon="-2.62998">
        <ele>44</ele>
        <time>2019-03-01T10:03:00Z</time>
      </trkpt>
      <trkpt lat="48.51417" lon="-2.63004">
        <ele>44</ele>
        <time>2019-03-01T10:03:03Z</time>
      </trkpt>
      <trkpt lat="48.51418" lon="-2.63011">
        <ele>44</ele>
        <time>2019-03-01T10:03:06Z</time>
      </trkpt>
      <trkpt lat="48.5142" lon="-2.63017">
        <ele>44</ele>
        <time>2019-03-01T10:03:09Z</time>
      </trkpt>
      <trkpt lat="48.51422" lon="-2.63023">
        <ele>44</ele>
        <time>2019-03-01T10:03:12Z</time>
      </trkpt>
      <trkpt lat="48.51425" lon="-2.63029">
        <ele>44</ele>
        <time>2019-03-01T10:03:15Z</time>
      </trkpt>
      <trkpt lat="48.51425" lon="-2.63035">
        <ele>44</ele>
        <time>2019-03-01T10:03:18Z</time>
      </trkpt>
      <trkpt lat="48.51426" lon="-2.63041">
        <ele>44</ele>
        <time>2019-03-01T10:03:21Z</time>
      </trkpt>
      <trkpt lat="48.51426" lon="-2.63047">
        <ele>44</ele>
        <time>2019-03-01T10:03:24Z</time>
      </trkpt>
      <trkpt lat="48.51427" lon="-2.63053">
        <ele>44</ele>
        <time>2019-03-01T10:03:27Z</time>
      </trkpt>
      <trkpt lat="48.51428" lon="-2.63059">
        <ele>44</ele>
        <time>2019-03-01T10:03:30Z</time>
      </trkpt>
      <trkpt lat="48.51429" lon="-2.63065">
        <ele>44</ele>
        <time>2019-03-01T10:03:33Z</time>
      </trkpt>
      <trkpt lat="48.51429" lon="-2.63072">
        <ele>44</ele>
        <time>2019-03-01T10:03:36Z</time>
      </trkpt>
      <trkpt lat="48.5143" lon="-2.63077">
        <ele>44</ele>
        <time>2019-03-01T10:03:39Z</time>
      </trkpt>
      <trkpt lat="48.5143" lon="-2.63084">
        <ele>44</ele>
        <time>2019-03-01T10:03:42Z</time>
      </trkpt>
      <trkpt lat="48.5143" lon="-2.63088">
        <ele>44</ele>
        <time>2019-03-01T10:03:45Z</time>
      </trkpt>
      <trkpt lat="48.5143" lon="-2.63094">
        <ele>44</ele>
        <time>2019-03-01T10:03:48Z</time>
      </trkpt>
      <trkpt lat="48.51431" lon="-2.63101">
        <ele>44</ele>
        <time>2019-03-01T10:03:51Z</time>
      </trkpt>
      <trkpt lat="48.51431" lon="-2.63106">
        <ele>44</ele>
        <time>2019-03-01T10:03:54Z</time>
      </trkpt>
      <trkpt lat="48.51431" lon="-2.63111">
        <ele>44</ele>
        <time>2019-03-01T10:03:57Z</time>
      </trkpt>
      <trkpt lat="48.51431" lon="-2.63117">
        <ele>44</ele>
        <time>2019-03-01T10:04:00Z</time>
      </trkpt>
      <trkpt lat="48.51433" lon="-2.63123">
        <ele>44</ele>
        <time>2019-03-01T10:04:03Z</time>
      </trkpt>
      <trkpt lat="48.51433" lon="-2.63128">
        <ele>45</ele>
        <time>2019-03-01T10:04:06Z</time>
      </trkpt>
      <trkpt lat="48.51433" lon="-2.63134">
        <ele>45</ele>
        <time>2019-03-01T10:04:09Z</time>
      </trkpt>
      <trkpt lat="48.51433" lon="-2.63141">
        <ele>45</ele>
        <time>2019-03-01T10:04:12Z</time>
      </trkpt>
      <trkpt lat="48.51432" lon="-2.63148">
        <ele>45</ele>
        <time>2019-03-01T10:04:16Z</time>
      </trkpt>
      <trkpt lat="48.51433" lon="-2.63155">
        <ele>45</ele>
        <time>2019-03-01T10:04:19Z</time>
      </trkpt>
      <trkpt lat="48.51435" lon="-2.63161">
        <ele>45</ele>
        <time>2019-03-01T10:04:22Z</time>
      </trkpt>
      <trkpt lat="48.51436" lon="-2.63166">
        <ele>45</ele>
        <time>2019-03-01T10:04:25Z</time>
      </trkpt>
      <trkpt lat="48.51437" lon="-2.63173">
        <ele>45</ele>
        <time>2019-03-01T10:04:28Z</time>
      </trkpt>
      <trkpt lat="48.51438" lon="-2.6318">
        <ele>46</ele>
        <time>2019-03-01T10:04:31Z</time>
      </trkpt>
      <trkpt lat="48.51439" lon="-2.63187">
        <ele>46</ele>
        <time>2019-03-01T10:04:34Z</time>
      </trkpt>
      <trkpt lat="48.51438" lon="-2.63194">
        <ele>46</ele>
        <time>2019-03-01T10:04:37Z</time>
      </trkpt>
      <trkpt lat="48.51439" lon="-2.63201">
        <ele>46</ele>
        <time>2019-03-01T10:04:40Z</time>
      </trkpt>
      <trkpt lat="48.51438" lon="-2.63207">
        <ele>46</ele>
        <time>2019-03-01T10:04:43Z</time>
      </trkpt>
      <trkpt lat="48.51437" lon="-2.63212">
        <ele>46</ele>
        <time>2019-03-01T10:04:46Z</time>
      </trkpt>
      <trkpt lat="48.51437" lon="-2.63217">
        <ele>46</ele>
        <time>2019-03-01T10:04:49Z</time>
      </trkpt>
      <trkpt lat="48.51434" lon="-2.63222">
        <ele>46</ele>
        <time>2019-03-01T10:04:52Z</time>
      </trkpt>
      <trkpt lat="48.51432" lon="-2.63229">
        <ele>46</ele>
        <time>2019-03-01T10:04:55Z</time>
      </trkpt>
      <trkpt lat="48.51432" lon="-2.63236">
        <ele>45</ele>
        <time>2019-03-01T10:04:58Z</time>
      </trkpt>
      <trkpt lat="48.51432" lon="-2.63244">
        <ele>44</ele>
        <time>2019-03-01T10:05:01Z</time>
      </trkpt>
      <trkpt lat="48.51432" lon="-2.63251">
        <ele>43</ele>
        <time>2019-03-01T10:05:04Z</time>
      </trkpt>
      <trkpt lat="48.51436" lon="-2.63259">
        <ele>43</ele>
        <time>2019-03-01T10:05:07Z</time>
      </trkpt>
      <trkpt lat="48.51437" lon="-2.63265">
        <ele>43</ele>
        <time>2019-03-01T10:05:10Z</time>
      </trkpt>
      <trkpt lat="48.51435" lon="-2.63273">
        <ele>43</ele>
        <time>2019-03-01T10:05:13Z</time>
      </trkpt>
      <trkpt lat="48.51435" lon="-2.6328">
        <ele>43</ele>
        <time>2019-03-01T10:05:16Z</time>
      </trkpt>
      <trkpt lat="48.51436" lon="-2.63287">
        <ele>43</ele>
        <time>2019-03-01T10:05:19Z</time>
      </trkpt>
      <trkpt lat="48.51436" lon="-2.63293">
        <ele>42</ele>
        <time>2019-03-01T10:05:22Z</time>
      </trkpt>
      <trkpt lat="48.51436" lon="-2.633">
        <ele>40</ele>
        <time>2019-03-01T10:05:25Z</time>
      </trkpt>
      <trkpt lat="48.51435" lon="-2.63306">
        <ele>40</ele>
        <time>2019-03-01T10:05:28Z</time>
      </trkpt>
      <trkpt lat="48.51436" lon="-2.63313">
        <ele>40</ele>
        <time>2019-03-01T10:05:31Z</time>
      </trkpt>
      <trkpt lat="48.51436" lon="-2.6332">
        <ele>40</ele>
        <time>2019-03-01T10:05:34Z</time>
      </trkpt>
      <trkpt lat="48.51438" lon="-2.63327">
        <ele>40</ele>
        <time>2019-03-01T10:05:37Z</time>
      </trkpt>
      <trkpt lat="48.51438" lon="-2.63333">
        <ele>40</ele>
        <time>2019-03-01T10:05:40Z</time>
      </trkpt>
      <trkpt lat="48.51441" lon="-2.6334">
        <ele>40</ele>
        <time>2019-03-01T10:05:43Z</time>
      </trkpt>
      <trkpt lat="48.51441" lon="-2.63346">
        <ele>40</ele>
        <time>2019-03-01T10:05:46Z</time>
      </trkpt>
      <trkpt lat="48.51441" lon="-2.63352">
        <ele>40</ele>
        <time>2019-03-01T10:05:49Z</time>
      </trkpt>
      <trkpt lat="48.5144" lon="-2.63358">
        <ele>40</ele>
        <time>2019-03-01T10:05:52Z</time>
      </trkpt>
      <trkpt lat="48.5144" lon="-2.63365">
        <ele>40</ele>
        <time>2019-03-01T10:05:55Z</time>
      </trkpt>
      <trkpt lat="48.5144" lon="-2.63372">
        <ele>40</ele>
        <time>2019-03-01T10:05:58Z</time>
      </trkpt>
      <trkpt lat="48.5144" lon="-2.63379">
        <ele>40</ele>
        <time>2019-03-01T10:06:01Z</time>
      </trkpt>
      <trkpt lat="48.51441" lon="-2.63385">
        <ele>40</ele>
        <time>2019-03-01T10:06:04Z</time>
      </trkpt>
      <trkpt lat="48.5144" lon="-2.63392">
        <ele>40</ele>
        <time>2019-03-01T10:06:07Z</time>
      </trkpt>
      <trkpt lat="48.5144" lon="-2.63399">
        <ele>40</ele>
        <time>2019-03-01T10:06:10Z</time>
      </trkpt>
      <trkpt lat="48.51439" lon="-2.63405">
        <ele>40</ele>
        <time>2019-03-01T10:06:13Z</time>
      </trkpt>
      <trkpt lat="48.51439" lon="-2.63412">
        <ele>40</ele>
        <time>2019-03-01T10:06:16Z</time>
      </trkpt>
      <trkpt lat="48.51438" lon="-2.63418">
        <ele>40</ele>
        <time>2019-03-01T10:06:19Z</time>
      </trkpt>
      <trkpt lat="48.51438" lon="-2.63424">
        <ele>40</ele>
        <time>2019-03-01T10:06:22Z</time>
      </trkpt>
      <trkpt lat="48.51437" lon="-2.63431">
        <ele>40</ele>
        <time>2019-03-01T10:06:25Z</time>
      </trkpt>
      <trkpt lat="48.51437" lon="-2.63436">
        <ele>40</ele>
        <time>2019-03-01T10:06:28Z</time>
      </trkpt>
      <trkpt lat="48.51436" lon="-2.63442">
        <ele>40</ele>
        <time>2019-03-01T10:06:31Z</time>
      </trkpt>
      <trkpt lat="48.51435" lon="-2.63447">
        <ele>41</ele>
        <time>2019-03-01T10:06:34Z</time>
      </trkpt>
      <trkpt lat="48.51436" lon="-2.63454">
        <ele>41</ele>
        <time>2019-03-01T10:06:37Z</time>
      </trkpt>
      <trkpt lat="48.51436" lon="-2.6346">
        <ele>42</ele>
        <time>2019-03-01T10:06:40Z</time>
      </trkpt>
      <trkpt lat="48.51436" lon="-2.63466">
        <ele>43</ele>
        <time>2019-03-01T10:06:43Z</time>
      </trkpt>
      <trkpt lat="48.51435" lon="-2.63473">
        <ele>43</ele>
        <time>2019-03-01T10:06:46Z</time>
      </trkpt>
      <trkpt lat="48.51434" lon="-2.63479">
        <ele>43</ele>
        <time>2019-03-01T10:06:49Z</time>
      </trkpt>
      <trkpt lat="48.51434" lon="-2.63485">
        <ele>43</ele>
        <time>2019-03-01T10:06:52Z</time>
      </trkpt>
      <trkpt lat="48.51434" lon="-2.63493">
        <ele>43</ele>
        <time>2019-03-01T10:06:55Z</time>
      </trkpt>
      <trkpt lat="48.51434" lon="-2.63498">
        <ele>43</ele>
        <time>2019-03-01T10:06:58Z</time>
      </trkpt>
      <trkpt lat="48.51433" lon="-2.63505">
        <ele>43</ele>
        <time>2019-03-01T10:07:01Z</time>
      </trkpt>
      <trkpt lat="48.51432" lon="-2.63511">
        <ele>44</ele>
        <time>2019-03-01T10:07:04Z</time>
      </trkpt>
      <trkpt lat="48.51432" lon="-2.63517">
        <ele>44</ele>
        <time>2019-03-01T10:07:07Z</time>
      </trkpt>
      <trkpt lat="48.51432" lon="-2.63524">
        <ele>44</ele>
        <time>2019-03-01T10:07:10Z</time>
      </trkpt>
      <trkpt lat="48.51431" lon="-2.63531">
        <ele>44</ele>
        <time>2019-03-01T10:07:13Z</time>
      </trkpt>
      <trkpt lat="48.51431" lon="-2.63539">
        <ele>44</ele>
        <time>2019-03-01T10:07:16Z</time>
      </trkpt>
      <trkpt lat="48.5143" lon="-2.63545">
        <ele>44</ele>
        <time>2019-03-01T10:07:20Z</time>
      </trkpt>
      <trkpt lat="48.5143" lon="-2.63553">
        <ele>45</ele>
        <time>2019-03-01T10:07:23Z</time>
      </trkpt>
      <trkpt lat="48.51431" lon="-2.6356">
        <ele>45</ele>
        <time>2019-03-01T10:07:26Z</time>
      </trkpt>
      <trkpt lat="48.51431" lon="-2.63566">
        <ele>45</ele>
        <time>2019-03-01T10:07:29Z</time>
      </trkpt>
      <trkpt lat="48.51431" lon="-2.63572">
        <ele>45</ele>
        <time>2019-03-01T10:07:32Z</time>
      </trkpt>
      <trkpt lat="48.5143" lon="-2.63578">
        <ele>46</ele>
        <time>2019-03-01T10:07:35Z</time>
      </trkpt>
      <trkpt lat="48.5143" lon="-2.63584">
        <ele>46</ele>
        <time>2019-03-01T10:07:38Z</time>
      </trkpt>
      <trkpt lat="48.5143" lon="-2.63591">
        <ele>46</ele>
        <time>2019-03-01T10:07:41Z</time>
      </trkpt>
      <trkpt lat="48.51429" lon="-2.63596">
        <ele>46</ele>
        <time>2019-03-01T10:07:44Z</time>
      </trkpt>
      <trkpt lat="48.51429" lon="-2.63603">
        <ele>46</ele>
        <time>2019-03-01T10:07:47Z</time>
      </trkpt>
      <trkpt lat="48.51429" lon="-2.6361">
        <ele>46</ele>
        <time>2019-03-01T10:07:50Z</time>
      </trkpt>
      <trkpt lat="48.51429" lon="-2.63617">
        <ele>47</ele>
        <time>2019-03-01T10:07:53Z</time>
      </trkpt>
      <trkpt lat="48.51428" lon="-2.63623">
        <ele>47</ele>
        <time>2019-03-01T10:07:56Z</time>
      </trkpt>
      <trkpt lat="48.51428" lon="-2.6363">
        <ele>47</ele>
        <time>2019-03-01T10:07:59Z</time>
      </trkpt>
      <trkpt lat="48.51428" lon="-2.63636">
        <ele>47</ele>
        <time>2019-03-01T10:08:02Z</time>
      </trkpt>
      <trkpt lat="48.51427" lon="-2.63642">
        <ele>47</ele>
        <time>2019-03-01T10:08:05Z</time>
      </trkpt>
      <trkpt lat="48.51427" lon="-2.63649">
        <ele>47</ele>
        <time>2019-03-01T10:08:08Z</time>
      </trkpt>
      <trkpt lat="48.51428" lon="-2.63655">
        <ele>47</ele>
        <time>2019-03-01T10:08:11Z</time>
      </trkpt>
      <trkpt lat="48.51429" lon="-2.63662">
        <ele>47</ele>
        <time>2019-03-01T10:08:14Z</time>
      </trkpt>
      <trkpt lat="48.51429" lon="-2.63668">
        <ele>47</ele>
        <time>2019-03-01T10:08:17Z</time>
      </trkpt>
      <trkpt lat="48.51429" lon="-2.63674">
        <ele>47</ele>
        <time>2019-03-01T10:08:20Z</time>
      </trkpt>
      <trkpt lat="48.5143" lon="-2.63681">
        <ele>47</ele>
        <time>2019-03-01T10:08:23Z</time>
      </trkpt>
      <trkpt lat="48.5143" lon="-2.63687">
        <ele>47</ele>
        <time>2019-03-01T10:08:26Z</time>
      </trkpt>
      <trkpt lat="48.5143" lon="-2.63692">
        <ele>47</ele>
        <time>2019-03-01T10:08:29Z</time>
      </trkpt>
      <trkpt lat="48.51431" lon="-2.63699">
        <ele>47</ele>
        <time>2019-03-01T10:08:32Z</time>
      </trkpt>
      <trkpt lat="48.51432" lon="-2.63705">
        <ele>47</ele>
        <time>2019-03-01T10:08:35Z</time>
      </trkpt>
      <trkpt lat="48.51433" lon="-2.63711">
        <ele>47</ele>
        <time>2019-03-01T10:08:38Z</time>
      </trkpt>
      <trkpt lat="48.51433" lon="-2.63718">
        <ele>47</ele>
        <time>2019-03-01T10:08:41Z</time>
      </trkpt>
      <trkpt lat="48.51434" lon="-2.63724">
        <ele>47</ele>
        <time>2019-03-01T10:08:44Z</time>
      </trkpt>
      <trkpt lat="48.51435" lon="-2.63731">
        <ele>48</ele>
        <time>2019-03-01T10:08:47Z</time>
      </trkpt>
      <trkpt lat="48.51435" lon="-2.63737">
        <ele>48</ele>
        <time>2019-03-01T10:08:50Z</time>
      </trkpt>
      <trkpt lat="48.51436" lon="-2.63743">
        <ele>48</ele>
        <time>2019-03-01T10:08:53Z</time>
      </trkpt>
      <trkpt lat="48.51436" lon="-2.6375">
        <ele>49</ele>
        <time>2019-03-01T10:08:56Z</time>
      </trkpt>
      <trkpt lat="48.51436" lon="-2.63757">
        <ele>49</ele>
        <time>2019-03-01T10:08:59Z</time>
      </trkpt>
      <trkpt lat="48.51434" lon="-2.63763">
        <ele>49</ele>
        <time>2019-03-01T10:09:02Z</time>
      </trkpt>
      <trkpt lat="48.51432" lon="-2.6377">
        <ele>49</ele>
        <time>2019-03-01T10:09:06Z</time>
      </trkpt>
      <trkpt lat="48.5143" lon="-2.63775">
        <ele>49</ele>
        <time>2019-03-01T10:09:09Z</time>
      </trkpt>
      <trkpt lat="48.51427" lon="-2.6378">
        <ele>49</ele>
        <time>2019-03-01T10:09:13Z</time>
      </trkpt>
      <trkpt lat="48.51425" lon="-2.63786">
        <ele>49</ele>
        <time>2019-03-01T10:09:16Z</time>
      </trkpt>
      <trkpt lat="48.51424" lon="-2.63791">
        <ele>49</ele>
        <time>2019-03-01T10:09:19Z</time>
      </trkpt>
      <trkpt lat="48.51423" lon="-2.63797">
        <ele>50</ele>
        <time>2019-03-01T10:09:22Z</time>
      </trkpt>
      <trkpt lat="48.51423" lon="-2.63803">
        <ele>50</ele>
        <time>2019-03-01T10:09:25Z</time>
      </trkpt>
      <trkpt lat="48.51422" lon="-2.63809">
        <ele>50</ele>
        <time>2019-03-01T10:09:28Z</time>
      </trkpt>
      <trkpt lat="48.51421" lon="-2.63815">
        <ele>51</ele>
        <time>2019-03-01T10:09:31Z</time>
      </trkpt>
      <trkpt lat="48.51421" lon="-2.63821">
        <ele>51</ele>
        <time>2019-03-01T10:09:34Z</time>
      </trkpt>
      <trkpt lat="48.5142" lon="-2.63827">
        <ele>51</ele>
        <time>2019-03-01T10:09:37Z</time>
      </trkpt>
      <trkpt lat="48.5142" lon="-2.63833">
        <ele>51</ele>
        <time>2019-03-01T10:09:40Z</time>
      </trkpt>
      <trkpt lat="48.5142" lon="-2.63839">
        <ele>51</ele>
        <time>2019-03-01T10:09:43Z</time>
      </trkpt>
      <trkpt lat="48.51419" lon="-2.63845">
        <ele>51</ele>
        <time>2019-03-01T10:09:46Z</time>
      </trkpt>
      <trkpt lat="48.5142" lon="-2.63852">
        <ele>51</ele>
        <time>2019-03-01T10:09:49Z</time>
      </trkpt>
      <trkpt lat="48.51419" lon="-2.63859">
        <ele>51</ele>
        <time>2019-03-01T10:09:52Z</time>
      </trkpt>
      <trkpt lat="48.51419" lon="-2.63865">
        <ele>51</ele>
        <time>2019-03-01T10:09:55Z</time>
      </trkpt>
      <trkpt lat="48.51418" lon="-2.6387">
        <ele>51</ele>
        <time>2019-03-01T10:09:58Z</time>
      </trkpt>
      <trkpt lat="48.51417" lon="-2.63877">
        <ele>51</ele>
        <time>2019-03-01T10:10:01Z</time>
      </trkpt>
      <trkpt lat="48.51416" lon="-2.63882">
        <ele>51</ele>
        <time>2019-03-01T10:10:04Z</time>
      </trkpt>
      <trkpt lat="48.51416" lon="-2.63888">
        <ele>51</ele>
        <time>2019-03-01T10:10:07Z</time>
      </trkpt>
      <trkpt lat="48.51416" lon="-2.63894">
        <ele>51</ele>
        <time>2019-03-01T10:10:10Z</time>
      </trkpt>
      <trkpt lat="48.51414" lon="-2.63899">
        <ele>51</ele>
        <time>2019-03-01T10:10:13Z</time>
      </trkpt>
      <trkpt lat="48.51412" lon="-2.63905">
        <ele>51</ele>
        <time>2019-03-01T10:10:16Z</time>
      </trkpt>
      <trkpt lat="48.51411" lon="-2.63911">
        <ele>51</ele>
        <time>2019-03-01T10:10:19Z</time>
      </trkpt>
      <trkpt lat="48.51409" lon="-2.63917">
        <ele>51</ele>
        <time>2019-03-01T10:10:22Z</time>
      </trkpt>
      <trkpt lat="48.51408" lon="-2.63923">
        <ele>51</ele>
        <time>2019-03-01T10:10:25Z</time>
      </trkpt>
      <trkpt lat="48.51406" lon="-2.63928">
        <ele>51</ele>
        <time>2019-03-01T10:10:28Z</time>
      </trkpt>
      <trkpt lat="48.51405" lon="-2.63934">
        <ele>51</ele>
        <time>2019-03-01T10:10:31Z</time>
      </trkpt>
      <trkpt lat="48.51403" lon="-2.63939">
        <ele>51</ele>
        <time>2019-03-01T10:10:34Z</time>
      </trkpt>
      <trkpt lat="48.51401" lon="-2.63945">
        <ele>51</ele>
        <time>2019-03-01T10:10:37Z</time>
      </trkpt>
      <trkpt lat="48.51399" lon="-2.6395">
        <ele>51</ele>
        <time>2019-03-01T10:10:40Z</time>
      </trkpt>
      <trkpt lat="48.51397" lon="-2.63955">
        <ele>51</ele>
        <time>2019-03-01T10:10:43Z</time>
      </trkpt>
      <trkpt lat="48.51395" lon="-2.6396">
        <ele>51</ele>
        <time>2019-03-01T10:10:46Z</time>
      </trkpt>
      <trkpt lat="48.51393" lon="-2.63966">
        <ele>51</ele>
        <time>2019-03-01T10:10:50Z</time>
      </trkpt>
      <trkpt lat="48.51391" lon="-2.63971">
        <ele>52</ele>
        <time>2019-03-01T10:10:53Z</time>
      </trkpt>
      <trkpt lat="48.51389" lon="-2.63976">
        <ele>52</ele>
        <time>2019-03-01T10:10:56Z</time>
      </trkpt>
      <trkpt lat="48.51388" lon="-2.63982">
        <ele>52</ele>
        <time>2019-03-01T10:10:59Z</time>
      </trkpt>
      <trkpt lat="48.51387" lon="-2.63987">
        <ele>53</ele>
        <time>2019-03-01T10:11:02Z</time>
      </trkpt>
      <trkpt lat="48.51385" lon="-2.63992">
        <ele>53</ele>
        <time>2019-03-01T10:11:05Z</time>
      </trkpt>
      <trkpt lat="48.51384" lon="-2.63998">
        <ele>54</ele>
        <time>2019-03-01T10:11:08Z</time>
      </trkpt>
      <trkpt lat="48.51381" lon="-2.64003">
        <ele>54</ele>
        <time>2019-03-01T10:11:11Z</time>
      </trkpt>
      <trkpt lat="48.5138" lon="-2.64009">
        <ele>54</ele>
        <time>2019-03-01T10:11:14Z</time>
      </trkpt>
      <trkpt lat="48.51379" lon="-2.64015">
        <ele>55</ele>
        <time>2019-03-01T10:11:17Z</time>
      </trkpt>
      <trkpt lat="48.51377" lon="-2.64021">
        <ele>55</ele>
        <time>2019-03-01T10:11:20Z</time>
      </trkpt>
      <trkpt lat="48.51375" lon="-2.64027">
        <ele>55</ele>
        <time>2019-03-01T10:11:23Z</time>
      </trkpt>
      <trkpt lat="48.51373" lon="-2.64033">
        <ele>55</ele>
        <time>2019-03-01T10:11:26Z</time>
      </trkpt>
      <trkpt lat="48.51371" lon="-2.64039">
        <ele>55</ele>
        <time>2019-03-01T10:11:29Z</time>
      </trkpt>
      <trkpt lat="48.51369" lon="-2.64045">
        <ele>55</ele>
        <time>2019-03-01T10:11:32Z</time>
      </trkpt>
      <trkpt lat="48.51368" lon="-2.6405">
        <ele>55</ele>
        <time>2019-03-01T10:11:35Z</time>
      </trkpt>
      <trkpt lat="48.51367" lon="-2.64056">
        <ele>55</ele>
        <time>2019-03-01T10:11:38Z</time>
      </trkpt>
      <trkpt lat="48.51366" lon="-2.64062">
        <ele>55</ele>
        <time>2019-03-01T10:11:41Z</time>
      </trkpt>
      <trkpt lat="48.51365" lon="-2.64068">
        <ele>55</ele>
        <time>2019-03-01T10:11:44Z</time>
      </trkpt>
      <trkpt lat="48.51362" lon="-2.64075">
        <ele>56</ele>
        <time>2019-03-01T10:11:48Z</time>
      </trkpt>
      <trkpt lat="48.5136" lon="-2.64082">
        <ele>56</ele>
        <time>2019-03-01T10:11:52Z</time>
      </trkpt>
      <trkpt lat="48.51359" lon="-2.64088">
        <ele>57</ele>
        <time>2019-03-01T10:11:55Z</time>
      </trkpt>
      <trkpt lat="48.51357" lon="-2.64094">
        <ele>57</ele>
        <time>2019-03-01T10:11:58Z</time>
      </trkpt>
      <trkpt lat="48.51356" lon="-2.641">
        <ele>58</ele>
        <time>2019-03-01T10:12:01Z</time>
      </trkpt>
      <trkpt lat="48.51355" lon="-2.64106">
        <ele>59</ele>
        <time>2019-03-01T10:12:04Z</time>
      </trkpt>
      <trkpt lat="48.51355" lon="-2.64111">
        <ele>61</ele>
        <time>2019-03-01T10:12:07Z</time>
      </trkpt>
      <trkpt lat="48.51354" lon="-2.64117">
        <ele>62</ele>
        <time>2019-03-01T10:12:10Z</time>
      </trkpt>
      <trkpt lat="48.51353" lon="-2.64123">
        <ele>62</ele>
        <time>2019-03-01T10:12:13Z</time>
      </trkpt>
      <trkpt lat="48.51351" lon="-2.64129">
        <ele>63</ele>
        <time>2019-03-01T10:12:16Z</time>
      </trkpt>
      <trkpt lat="48.51349" lon="-2.64134">
        <ele>63</ele>
        <time>2019-03-01T10:12:19Z</time>
      </trkpt>
      <trkpt lat="48.51349" lon="-2.6414">
        <ele>64</ele>
        <time>2019-03-01T10:12:22Z</time>
      </trkpt>
      <trkpt lat="48.51348" lon="-2.64146">
        <ele>66</ele>
        <time>2019-03-01T10:12:25Z</time>
      </trkpt>
      <trkpt lat="48.51346" lon="-2.64152">
        <ele>66</ele>
        <time>2019-03-01T10:12:28Z</time>
      </trkpt>
      <trkpt lat="48.51345" lon="-2.64157">
        <ele>67</ele>
        <time>2019-03-01T10:12:31Z</time>
      </trkpt>
      <trkpt lat="48.51344" lon="-2.64163">
        <ele>68</ele>
        <time>2019-03-01T10:12:34Z</time>
      </trkpt>
      <trkpt lat="48.51344" lon="-2.6417">
        <ele>70</ele>
        <time>2019-03-01T10:12:38Z</time>
      </trkpt>
      <trkpt lat="48.51342" lon="-2.64176">
        <ele>71</ele>
        <time>2019-03-01T10:12:41Z</time>
      </trkpt>
      <trkpt lat="48.5134" lon="-2.64181">
        <ele>71</ele>
        <time>2019-03-01T10:12:44Z</time>
      </trkpt>
      <trkpt lat="48.51339" lon="-2.64187">
        <ele>72</ele>
        <time>2019-03-01T10:12:47Z</time>
      </trkpt>
      <trkpt lat="48.51337" lon="-2.64193">
        <ele>72</ele>
        <time>2019-03-01T10:12:50Z</time>
      </trkpt>
      <trkpt lat="48.51336" lon="-2.64198">
        <ele>72</ele>
        <time>2019-03-01T10:12:53Z</time>
      </trkpt>
      <trkpt lat="48.51334" lon="-2.64204">
        <ele>72</ele>
        <time>2019-03-01T10:12:56Z</time>
      </trkpt>
      <trkpt lat="48.51334" lon="-2.64209">
        <ele>72</ele>
        <time>2019-03-01T10:12:59Z</time>
      </trkpt>
      <trkpt lat="48.51332" lon="-2.64215">
        <ele>73</ele>
        <time>2019-03-01T10:13:02Z</time>
      </trkpt>
      <trkpt lat="48.51331" lon="-2.64221">
        <ele>74</ele>
        <time>2019-03-01T10:13:05Z</time>
      </trkpt>
      <trkpt lat="48.5133" lon="-2.64227">
        <ele>74</ele>
        <time>2019-03-01T10:13:08Z</time>
      </trkpt>
      <trkpt lat="48.51329" lon="-2.64233">
        <ele>75</ele>
        <time>2019-03-01T10:13:11Z</time>
      </trkpt>
      <trkpt lat="48.51328" lon="-2.64238">
        <ele>76</ele>
        <time>2019-03-01T10:13:14Z</time>
      </trkpt>
      <trkpt lat="48.51327" lon="-2.64244">
        <ele>76</ele>
        <time>2019-03-01T10:13:17Z</time>
      </trkpt>
      <trkpt lat="48.51325" lon="-2.6425">
        <ele>76</ele>
        <time>2019-03-01T10:13:20Z</time>
      </trkpt>
      <trkpt lat="48.51324" lon="-2.64256">
        <ele>76</ele>
        <time>2019-03-01T10:13:23Z</time>
      </trkpt>
      <trkpt lat="48.51324" lon="-2.64262">
        <ele>76</ele>
        <time>2019-03-01T10:13:26Z</time>
      </trkpt>
      <trkpt lat="48.51323" lon="-2.64269">
        <ele>76</ele>
        <time>2019-03-01T10:13:29Z</time>
      </trkpt>
      <trkpt lat="48.51322" lon="-2.64276">
        <ele>76</ele>
        <time>2019-03-01T10:13:32Z</time>
      </trkpt>
      <trkpt lat="48.51321" lon="-2.64281">
        <ele>76</ele>
        <time>2019-03-01T10:13:35Z</time>
      </trkpt>
      <trkpt lat="48.51319" lon="-2.64287">
        <ele>76</ele>
        <time>2019-03-01T10:13:38Z</time>
      </trkpt>
      <trkpt lat="48.51318" lon="-2.64294">
        <ele>76</ele>
        <time>2019-03-01T10:13:41Z</time>
      </trkpt>
      <trkpt lat="48.51317" lon="-2.643">
        <ele>76</ele>
        <time>2019-03-01T10:13:44Z</time>
      </trkpt>
      <trkpt lat="48.51316" lon="-2.64307">
        <ele>76</ele>
        <time>2019-03-01T10:13:47Z</time>
      </trkpt>
      <trkpt lat="48.51316" lon="-2.64314">
        <ele>76</ele>
        <time>2019-03-01T10:13:50Z</time>
      </trkpt>
      <trkpt lat="48.51315" lon="-2.6432">
        <ele>76</ele>
        <time>2019-03-01T10:13:53Z</time>
      </trkpt>
      <trkpt lat="48.51315" lon="-2.64327">
        <ele>76</ele>
        <time>2019-03-01T10:13:56Z</time>
      </trkpt>
      <trkpt lat="48.51314" lon="-2.64334">
        <ele>76</ele>
        <time>2019-03-01T10:13:59Z</time>
      </trkpt>
      <trkpt lat="48.51313" lon="-2.6434">
        <ele>76</ele>
        <time>2019-03-01T10:14:02Z</time>
      </trkpt>
      <trkpt lat="48.51312" lon="-2.64347">
        <ele>76</ele>
        <time>2019-03-01T10:14:05Z</time>
      </trkpt>
      <trkpt lat="48.51311" lon="-2.64353">
        <ele>75</ele>
        <time>2019-03-01T10:14:08Z</time>
      </trkpt>
      <trkpt lat="48.5131" lon="-2.64359">
        <ele>73</ele>
        <time>2019-03-01T10:14:11Z</time>
      </trkpt>
      <trkpt lat="48.51309" lon="-2.64366">
        <ele>73</ele>
        <time>2019-03-01T10:14:14Z</time>
      </trkpt>
      <trkpt lat="48.51308" lon="-2.64372">
        <ele>73</ele>
        <time>2019-03-01T10:14:17Z</time>
      </trkpt>
      <trkpt lat="48.51308" lon="-2.64378">
        <ele>73</ele>
        <time>2019-03-01T10:14:20Z</time>
      </trkpt>
      <trkpt lat="48.51307" lon="-2.64385">
        <ele>73</ele>
        <time>2019-03-01T10:14:23Z</time>
      </trkpt>
      <trkpt lat="48.51306" lon="-2.64391">
        <ele>73</ele>
        <time>2019-03-01T10:14:26Z</time>
      </trkpt>
      <trkpt lat="48.51305" lon="-2.64398">
        <ele>73</ele>
        <time>2019-03-01T10:14:29Z</time>
      </trkpt>
      <trkpt lat="48.51304" lon="-2.64404">
        <ele>73</ele>
        <time>2019-03-01T10:14:32Z</time>
      </trkpt>
      <trkpt lat="48.51303" lon="-2.6441">
        <ele>73</ele>
        <time>2019-03-01T10:14:35Z</time>
      </trkpt>
      <trkpt lat="48.51303" lon="-2.64417">
        <ele>73</ele>
        <time>2019-03-01T10:14:38Z</time>
      </trkpt>
      <trkpt lat="48.51302" lon="-2.64423">
        <ele>73</ele>
        <time>2019-03-01T10:14:41Z</time>
      </trkpt>
      <trkpt lat="48.51301" lon="-2.64432">
        <ele>73</ele>
        <time>2019-03-01T10:14:45Z</time>
      </trkpt>
      <trkpt lat="48.51301" lon="-2.64439">
        <ele>73</ele>
        <time>2019-03-01T10:14:48Z</time>
      </trkpt>
      <trkpt lat="48.51299" lon="-2.64446">
        <ele>73</ele>
        <time>2019-03-01T10:14:51Z</time>
      </trkpt>
      <trkpt lat="48.51298" lon="-2.64452">
        <ele>73</ele>
        <time>2019-03-01T10:14:54Z</time>
      </trkpt>
      <trkpt lat="48.51297" lon="-2.64458">
        <ele>73</ele>
        <time>2019-03-01T10:14:57Z</time>
      </trkpt>
      <trkpt lat="48.51297" lon="-2.64464">
        <ele>73</ele>
        <time>2019-03-01T10:15:00Z</time>
      </trkpt>
      <trkpt lat="48.51297" lon="-2.6447">
        <ele>73</ele>
        <time>2019-03-01T10:15:03Z</time>
      </trkpt>
      <trkpt lat="48.51295" lon="-2.64476">
        <ele>72</ele>
        <time>2019-03-01T10:15:06Z</time>
      </trkpt>
      <trkpt lat="48.51294" lon="-2.64482">
        <ele>71</ele>
        <time>2019-03-01T10:15:09Z</time>
      </trkpt>
      <trkpt lat="48.51293" lon="-2.64488">
        <ele>71</ele>
        <time>2019-03-01T10:15:12Z</time>
      </trkpt>
      <trkpt lat="48.51293" lon="-2.64494">
        <ele>71</ele>
        <time>2019-03-01T10:15:15Z</time>
      </trkpt>
      <trkpt lat="48.51293" lon="-2.645">
        <ele>71</ele>
        <time>2019-03-01T10:15:18Z</time>
      </trkpt>
      <trkpt lat="48.51292" lon="-2.64507">
        <ele>71</ele>
        <time>2019-03-01T10:15:21Z</time>
      </trkpt>
      <trkpt lat="48.51291" lon="-2.64513">
        <ele>71</ele>
        <time>2019-03-01T10:15:24Z</time>
      </trkpt>
      <trkpt lat="48.5129" lon="-2.64519">
        <ele>71</ele>
        <time>2019-03-01T10:15:27Z</time>
      </trkpt>
      <trkpt lat="48.51288" lon="-2.64526">
        <ele>71</ele>
        <time>2019-03-01T10:15:31Z</time>
      </trkpt>
      <trkpt lat="48.51285" lon="-2.64533">
        <ele>71</ele>
        <time>2019-03-01T10:15:35Z</time>
      </trkpt>
      <trkpt lat="48.51283" lon="-2.6454">
        <ele>71</ele>
        <time>2019-03-01T10:15:39Z</time>
      </trkpt>
      <trkpt lat="48.51281" lon="-2.64545">
        <ele>71</ele>
        <time>2019-03-01T10:15:42Z</time>
      </trkpt>
      <trkpt lat="48.51278" lon="-2.64553">
        <ele>71</ele>
        <time>2019-03-01T10:15:46Z</time>
      </trkpt>
      <trkpt lat="48.51274" lon="-2.64558">
        <ele>71</ele>
        <time>2019-03-01T10:15:50Z</time>
      </trkpt>
      <trkpt lat="48.51271" lon="-2.64562">
        <ele>71</ele>
        <time>2019-03-01T10:15:54Z</time>
      </trkpt>
      <trkpt lat="48.51268" lon="-2.64565">
        <ele>71</ele>
        <time>2019-03-01T10:15:58Z</time>
      </trkpt>
      <trkpt lat="48.51265" lon="-2.64571">
        <ele>71</ele>
        <time>2019-03-01T10:16:02Z</time>
      </trkpt>
      <trkpt lat="48.51262" lon="-2.64575">
        <ele>71</ele>
        <time>2019-03-01T10:16:05Z</time>
      </trkpt>
      <trkpt lat="48.51258" lon="-2.64581">
        <ele>71</ele>
        <time>2019-03-01T10:16:09Z</time>
      </trkpt>
      <trkpt lat="48.51255" lon="-2.64588">
        <ele>71</ele>
        <time>2019-03-01T10:16:13Z</time>
      </trkpt>
      <trkpt lat="48.51252" lon="-2.64594">
        <ele>71</ele>
        <time>2019-03-01T10:16:17Z</time>
      </trkpt>
      <trkpt lat="48.51247" lon="-2.64599">
        <ele>71</ele>
        <time>2019-03-01T10:16:21Z</time>
      </trkpt>
      <trkpt lat="48.51244" lon="-2.64605">
        <ele>71</ele>
        <time>2019-03-01T10:16:25Z</time>
      </trkpt>
      <trkpt lat="48.51241" lon="-2.64611">
        <ele>71</ele>
        <time>2019-03-01T10:16:28Z</time>
      </trkpt>
      <trkpt lat="48.51236" lon="-2.64618">
        <ele>71</ele>
        <time>2019-03-01T10:16:33Z</time>
      </trkpt>
      <trkpt lat="48.51234" lon="-2.64625">
        <ele>71</ele>
        <time>2019-03-01T10:16:37Z</time>
      </trkpt>
      <trkpt lat="48.51231" lon="-2.6463">
        <ele>71</ele>
        <time>2019-03-01T10:16:40Z</time>
      </trkpt>
      <trkpt lat="48.51227" lon="-2.64635">
        <ele>71</ele>
        <time>2019-03-01T10:16:43Z</time>
      </trkpt>
      <trkpt lat="48.51225" lon="-2.64642">
        <ele>71</ele>
        <time>2019-03-01T10:16:47Z</time>
      </trkpt>
      <trkpt lat="48.51223" lon="-2.64649">
        <ele>71</ele>
        <time>2019-03-01T10:16:50Z</time>
      </trkpt>
      <trkpt lat="48.51218" lon="-2.64657">
        <ele>71</ele>
        <time>2019-03-01T10:16:55Z</time>
      </trkpt>
      <trkpt lat="48.51216" lon="-2.64663">
        <ele>71</ele>
        <time>2019-03-01T10:16:58Z</time>
      </trkpt>
      <trkpt lat="48.51213" lon="-2.64669">
        <ele>71</ele>
        <time>2019-03-01T10:17:02Z</time>
      </trkpt>
      <trkpt lat="48.51212" lon="-2.64674">
        <ele>71</ele>
        <time>2019-03-01T10:17:05Z</time>
      </trkpt>
      <trkpt lat="48.51208" lon="-2.64681">
        <ele>71</ele>
        <time>2019-03-01T10:17:09Z</time>
      </trkpt>
      <trkpt lat="48.51205" lon="-2.64685">
        <ele>71</ele>
        <time>2019-03-01T10:17:12Z</time>
      </trkpt>
      <trkpt lat="48.51202" lon="-2.6469">
        <ele>71</ele>
        <time>2019-03-01T10:17:15Z</time>
      </trkpt>
      <trkpt lat="48.51198" lon="-2.64695">
        <ele>71</ele>
        <time>2019-03-01T10:17:19Z</time>
      </trkpt>
      <trkpt lat="48.51196" lon="-2.64699">
        <ele>71</ele>
        <time>2019-03-01T10:17:22Z</time>
      </trkpt>
      <trkpt lat="48.51193" lon="-2.64705">
        <ele>71</ele>
        <time>2019-03-01T10:17:25Z</time>
      </trkpt>
      <trkpt lat="48.51191" lon="-2.6471">
        <ele>71</ele>
        <time>2019-03-01T10:17:28Z</time>
      </trkpt>
      <trkpt lat="48.51188" lon="-2.64715">
        <ele>71</ele>
        <time>2019-03-01T10:17:31Z</time>
      </trkpt>
      <trkpt lat="48.51186" lon="-2.64722">
        <ele>71</ele>
        <time>2019-03-01T10:17:35Z</time>
      </trkpt>
      <trkpt lat="48.51181" lon="-2.64726">
        <ele>71</ele>
        <time>2019-03-01T10:17:38Z</time>
      </trkpt>
      <trkpt lat="48.51178" lon="-2.64728">
        <ele>71</ele>
        <time>2019-03-01T10:17:41Z</time>
      </trkpt>
      <trkpt lat="48.51173" lon="-2.6473">
        <ele>71</ele>
        <time>2019-03-01T10:17:44Z</time>
      </trkpt>
      <trkpt lat="48.51168" lon="-2.6473">
        <ele>71</ele>
        <time>2019-03-01T10:17:47Z</time>
      </trkpt>
      <trkpt lat="48.51163" lon="-2.6473">
        <ele>71</ele>
        <time>2019-03-01T10:17:51Z</time>
      </trkpt>
      <trkpt lat="48.51159" lon="-2.64729">
        <ele>70</ele>
        <time>2019-03-01T10:17:54Z</time>
      </trkpt>
      <trkpt lat="48.51154" lon="-2.64728">
        <ele>70</ele>
        <time>2019-03-01T10:17:57Z</time>
      </trkpt>
      <trkpt lat="48.51149" lon="-2.64727">
        <ele>70</ele>
        <time>2019-03-01T10:18:01Z</time>
      </trkpt>
      <trkpt lat="48.51143" lon="-2.64724">
        <ele>70</ele>
        <time>2019-03-01T10:18:05Z</time>
      </trkpt>
      <trkpt lat="48.5114" lon="-2.64723">
        <ele>69</ele>
        <time>2019-03-01T10:18:08Z</time>
      </trkpt>
      <trkpt lat="48.51136" lon="-2.6472">
        <ele>68</ele>
        <time>2019-03-01T10:18:12Z</time>
      </trkpt>
      <trkpt lat="48.51132" lon="-2.64719">
        <ele>68</ele>
        <time>2019-03-01T10:18:15Z</time>
      </trkpt>
      <trkpt lat="48.51129" lon="-2.64718">
        <ele>68</ele>
        <time>2019-03-01T10:18:20Z</time>
      </trkpt>
      <trkpt lat="48.51125" lon="-2.64721">
        <ele>68</ele>
        <time>2019-03-01T10:18:25Z</time>
      </trkpt>
      <trkpt lat="48.51125" lon="-2.64726">
        <ele>68</ele>
        <time>2019-03-01T10:18:30Z</time>
      </trkpt>
      <trkpt lat="48.51126" lon="-2.64733">
        <ele>68</ele>
        <time>2019-03-01T10:18:34Z</time>
      </trkpt>
      <trkpt lat="48.51127" lon="-2.64738">
        <ele>68</ele>
        <time>2019-03-01T10:18:37Z</time>
      </trkpt>
      <trkpt lat="48.51127" lon="-2.64743">
        <ele>68</ele>
        <time>2019-03-01T10:18:40Z</time>
      </trkpt>
      <trkpt lat="48.51128" lon="-2.64751">
        <ele>68</ele>
        <time>2019-03-01T10:18:45Z</time>
      </trkpt>
      <trkpt lat="48.51131" lon="-2.64758">
        <ele>68</ele>
        <time>2019-03-01T10:18:49Z</time>
      </trkpt>
      <trkpt lat="48.51132" lon="-2.64764">
        <ele>68</ele>
        <time>2019-03-01T10:18:53Z</time>
      </trkpt>
      <trkpt lat="48.51133" lon="-2.64771">
        <ele>68</ele>
        <time>2019-03-01T10:18:57Z</time>
      </trkpt>
      <trkpt lat="48.51134" lon="-2.64776">
        <ele>68</ele>
        <time>2019-03-01T10:19:00Z</time>
      </trkpt>
      <trkpt lat="48.51135" lon="-2.64784">
        <ele>68</ele>
        <time>2019-03-01T10:19:04Z</time>
      </trkpt>
      <trkpt lat="48.51136" lon="-2.64789">
        <ele>69</ele>
        <time>2019-03-01T10:19:07Z</time>
      </trkpt>
      <trkpt lat="48.51136" lon="-2.64794">
        <ele>69</ele>
        <time>2019-03-01T10:19:10Z</time>
      </trkpt>
      <trkpt lat="48.51136" lon="-2.64802">
        <ele>69</ele>
        <time>2019-03-01T10:19:14Z</time>
      </trkpt>
      <trkpt lat="48.51138" lon="-2.64809">
        <ele>69</ele>
        <time>2019-03-01T10:19:17Z</time>
      </trkpt>
      <trkpt lat="48.51139" lon="-2.64815">
        <ele>69</ele>
        <time>2019-03-01T10:19:20Z</time>
      </trkpt>
      <trkpt lat="48.51141" lon="-2.64826">
        <ele>69</ele>
        <time>2019-03-01T10:19:25Z</time>
      </trkpt>
      <trkpt lat="48.51142" lon="-2.64834">
        <ele>69</ele>
        <time>2019-03-01T10:19:29Z</time>
      </trkpt>
      <trkpt lat="48.51143" lon="-2.6484">
        <ele>69</ele>
        <time>2019-03-01T10:19:32Z</time>
      </trkpt>
      <trkpt lat="48.51144" lon="-2.64847">
        <ele>69</ele>
        <time>2019-03-01T10:19:35Z</time>
      </trkpt>
      <trkpt lat="48.51145" lon="-2.64856">
        <ele>69</ele>
        <time>2019-03-01T10:19:39Z</time>
      </trkpt>
      <trkpt lat="48.51146" lon="-2.64862">
        <ele>69</ele>
        <time>2019-03-01T10:19:42Z</time>
      </trkpt>
      <trkpt lat="48.51147" lon="-2.64868">
        <ele>69</ele>
        <time>2019-03-01T10:19:45Z</time>
      </trkpt>
      <trkpt lat="48.51148" lon="-2.64875">
        <ele>69</ele>
        <time>2019-03-01T10:19:48Z</time>
      </trkpt>
      <trkpt lat="48.51148" lon="-2.6488">
        <ele>69</ele>
        <time>2019-03-01T10:19:51Z</time>
      </trkpt>
      <trkpt lat="48.51149" lon="-2.64888">
        <ele>69</ele>
        <time>2019-03-01T10:19:55Z</time>
      </trkpt>
      <trkpt lat="48.5115" lon="-2.64895">
        <ele>69</ele>
        <time>2019-03-01T10:19:58Z</time>
      </trkpt>
      <trkpt lat="48.51151" lon="-2.64902">
        <ele>69</ele>
        <time>2019-03-01T10:20:01Z</time>
      </trkpt>
      <trkpt lat="48.51154" lon="-2.6491">
        <ele>69</ele>
        <time>2019-03-01T10:20:05Z</time>
      </trkpt>
      <trkpt lat="48.51155" lon="-2.64917">
        <ele>69</ele>
        <time>2019-03-01T10:20:08Z</time>
      </trkpt>
      <trkpt lat="48.51155" lon="-2.64924">
        <ele>69</ele>
        <time>2019-03-01T10:20:11Z</time>
      </trkpt>
      <trkpt lat="48.51154" lon="-2.64933">
        <ele>69</ele>
        <time>2019-03-01T10:20:15Z</time>
      </trkpt>
      <trkpt lat="48.51155" lon="-2.6494">
        <ele>69</ele>
        <time>2019-03-01T10:20:18Z</time>
      </trkpt>
      <trkpt lat="48.51154" lon="-2.64946">
        <ele>69</ele>
        <time>2019-03-01T10:20:21Z</time>
      </trkpt>
      <trkpt lat="48.51155" lon="-2.64955">
        <ele>69</ele>
        <time>2019-03-01T10:20:25Z</time>
      </trkpt>
      <trkpt lat="48.51155" lon="-2.64961">
        <ele>69</ele>
        <time>2019-03-01T10:20:28Z</time>
      </trkpt>
      <trkpt lat="48.51155" lon="-2.64967">
        <ele>69</ele>
        <time>2019-03-01T10:20:31Z</time>
      </trkpt>
      <trkpt lat="48.51157" lon="-2.64976">
        <ele>69</ele>
        <time>2019-03-01T10:20:35Z</time>
      </trkpt>
      <trkpt lat="48.51157" lon="-2.64982">
        <ele>69</ele>
        <time>2019-03-01T10:20:38Z</time>
      </trkpt>
      <trkpt lat="48.51158" lon="-2.64988">
        <ele>69</ele>
        <time>2019-03-01T10:20:41Z</time>
      </trkpt>
      <trkpt lat="48.51157" lon="-2.64997">
        <ele>69</ele>
        <time>2019-03-01T10:20:45Z</time>
      </trkpt>
      <trkpt lat="48.51157" lon="-2.65003">
        <ele>69</ele>
        <time>2019-03-01T10:20:48Z</time>
      </trkpt>
      <trkpt lat="48.51157" lon="-2.65009">
        <ele>69</ele>
        <time>2019-03-01T10:20:51Z</time>
      </trkpt>
      <trkpt lat="48.51156" lon="-2.65018">
        <ele>69</ele>
        <time>2019-03-01T10:20:55Z</time>
      </trkpt>
      <trkpt lat="48.51157" lon="-2.65026">
        <ele>69</ele>
        <time>2019-03-01T10:20:59Z</time>
      </trkpt>
      <trkpt lat="48.51156" lon="-2.65032">
        <ele>69</ele>
        <time>2019-03-01T10:21:02Z</time>
      </trkpt>
      <trkpt lat="48.51156" lon="-2.65037">
        <ele>69</ele>
        <time>2019-03-01T10:21:05Z</time>
      </trkpt>
      <trkpt lat="48.51156" lon="-2.65043">
        <ele>69</ele>
        <time>2019-03-01T10:21:08Z</time>
      </trkpt>
      <trkpt lat="48.51156" lon="-2.65049">
        <ele>69</ele>
        <time>2019-03-01T10:21:11Z</time>
      </trkpt>
      <trkpt lat="48.51157" lon="-2.65056">
        <ele>69</ele>
        <time>2019-03-01T10:21:14Z</time>
      </trkpt>
      <trkpt lat="48.51156" lon="-2.65063">
        <ele>69</ele>
        <time>2019-03-01T10:21:18Z</time>
      </trkpt>
      <trkpt lat="48.51157" lon="-2.6507">
        <ele>69</ele>
        <time>2019-03-01T10:21:21Z</time>
      </trkpt>
      <trkpt lat="48.51157" lon="-2.65079">
        <ele>69</ele>
        <time>2019-03-01T10:21:25Z</time>
      </trkpt>
      <trkpt lat="48.51157" lon="-2.65086">
        <ele>69</ele>
        <time>2019-03-01T10:21:28Z</time>
      </trkpt>
      <trkpt lat="48.51157" lon="-2.65093">
        <ele>69</ele>
        <time>2019-03-01T10:21:31Z</time>
      </trkpt>
      <trkpt lat="48.51158" lon="-2.65103">
        <ele>69</ele>
        <time>2019-03-01T10:21:35Z</time>
      </trkpt>
      <trkpt lat="48.51158" lon="-2.6511">
        <ele>69</ele>
        <time>2019-03-01T10:21:38Z</time>
      </trkpt>
      <trkpt lat="48.51159" lon="-2.65117">
        <ele>69</ele>
        <time>2019-03-01T10:21:41Z</time>
      </trkpt>
      <trkpt lat="48.51159" lon="-2.65125">
        <ele>69</ele>
        <time>2019-03-01T10:21:45Z</time>
      </trkpt>
      <trkpt lat="48.5116" lon="-2.65132">
        <ele>69</ele>
        <time>2019-03-01T10:21:48Z</time>
      </trkpt>
      <trkpt lat="48.51159" lon="-2.65139">
        <ele>69</ele>
        <time>2019-03-01T10:21:51Z</time>
      </trkpt>
      <trkpt lat="48.51159" lon="-2.65147">
        <ele>69</ele>
        <time>2019-03-01T10:21:55Z</time>
      </trkpt>
      <trkpt lat="48.51159" lon="-2.65153">
        <ele>69</ele>
        <time>2019-03-01T10:21:58Z</time>
      </trkpt>
      <trkpt lat="48.51159" lon="-2.65159">
        <ele>69</ele>
        <time>2019-03-01T10:22:01Z</time>
      </trkpt>
      <trkpt lat="48.51159" lon="-2.65167">
        <ele>69</ele>
        <time>2019-03-01T10:22:05Z</time>
      </trkpt>
      <trkpt lat="48.51159" lon="-2.65173">
        <ele>69</ele>
        <time>2019-03-01T10:22:08Z</time>
      </trkpt>
      <trkpt lat="48.51159" lon="-2.65178">
        <ele>69</ele>
        <time>2019-03-01T10:22:11Z</time>
      </trkpt>
      <trkpt lat="48.51159" lon="-2.65185">
        <ele>69</ele>
        <time>2019-03-01T10:22:15Z</time>
      </trkpt>
      <trkpt lat="48.5116" lon="-2.65192">
        <ele>69</ele>
        <time>2019-03-01T10:22:18Z</time>
      </trkpt>
      <trkpt lat="48.5116" lon="-2.65198">
        <ele>69</ele>
        <time>2019-03-01T10:22:21Z</time>
      </trkpt>
      <trkpt lat="48.51161" lon="-2.65208">
        <ele>69</ele>
        <time>2019-03-01T10:22:25Z</time>
      </trkpt>
      <trkpt lat="48.51162" lon="-2.65215">
        <ele>69</ele>
        <time>2019-03-01T10:22:28Z</time>
      </trkpt>
      <trkpt lat="48.51162" lon="-2.65221">
        <ele>68</ele>
        <time>2019-03-01T10:22:31Z</time>
      </trkpt>
      <trkpt lat="48.51164" lon="-2.65228">
        <ele>67</ele>
        <time>2019-03-01T10:22:34Z</time>
      </trkpt>
      <trkpt lat="48.51165" lon="-2.65234">
        <ele>67</ele>
        <time>2019-03-01T10:22:37Z</time>
      </trkpt>
      <trkpt lat="48.51165" lon="-2.65241">
        <ele>67</ele>
        <time>2019-03-01T10:22:40Z</time>
      </trkpt>
      <trkpt lat="48.51167" lon="-2.65245">
        <ele>67</ele>
        <time>2019-03-01T10:22:43Z</time>
      </trkpt>
      <trkpt lat="48.51168" lon="-2.65252">
        <ele>67</ele>
        <time>2019-03-01T10:22:46Z</time>
      </trkpt>
      <trkpt lat="48.51168" lon="-2.6526">
        <ele>67</ele>
        <time>2019-03-01T10:22:50Z</time>
      </trkpt>
      <trkpt lat="48.51168" lon="-2.65266">
        <ele>66</ele>
        <time>2019-03-01T10:22:53Z</time>
      </trkpt>
      <trkpt lat="48.51167" lon="-2.65272">
        <ele>66</ele>
        <time>2019-03-01T10:22:56Z</time>
      </trkpt>
      <trkpt lat="48.51167" lon="-2.65277">
        <ele>65</ele>
        <time>2019-03-01T10:22:59Z</time>
      </trkpt>
      <trkpt lat="48.51168" lon="-2.65284">
        <ele>65</ele>
        <time>2019-03-01T10:23:02Z</time>
      </trkpt>
      <trkpt lat="48.51169" lon="-2.6529">
        <ele>65</ele>
        <time>2019-03-01T10:23:05Z</time>
      </trkpt>
      <trkpt lat="48.5117" lon="-2.65296">
        <ele>65</ele>
        <time>2019-03-01T10:23:08Z</time>
      </trkpt>
      <trkpt lat="48.5117" lon="-2.65302">
        <ele>65</ele>
        <time>2019-03-01T10:23:11Z</time>
      </trkpt>
      <trkpt lat="48.51173" lon="-2.65309">
        <ele>65</ele>
        <time>2019-03-01T10:23:14Z</time>
      </trkpt>
      <trkpt lat="48.51172" lon="-2.65316">
        <ele>64</ele>
        <time>2019-03-01T10:23:17Z</time>
      </trkpt>
      <trkpt lat="48.51173" lon="-2.6532">
        <ele>63</ele>
        <time>2019-03-01T10:23:20Z</time>
      </trkpt>
      <trkpt lat="48.51174" lon="-2.65327">
        <ele>62</ele>
        <time>2019-03-01T10:23:23Z</time>
      </trkpt>
      <trkpt lat="48.51175" lon="-2.65333">
        <ele>62</ele>
        <time>2019-03-01T10:23:26Z</time>
      </trkpt>
      <trkpt lat="48.51177" lon="-2.65339">
        <ele>60</ele>
        <time>2019-03-01T10:23:29Z</time>
      </trkpt>
      <trkpt lat="48.51178" lon="-2.65345">
        <ele>60</ele>
        <time>2019-03-01T10:23:32Z</time>
      </trkpt>
      <trkpt lat="48.51179" lon="-2.65353">
        <ele>60</ele>
        <time>2019-03-01T10:23:35Z</time>
      </trkpt>
      <trkpt lat="48.51179" lon="-2.65358">
        <ele>60</ele>
        <time>2019-03-01T10:23:38Z</time>
      </trkpt>
      <trkpt lat="48.51181" lon="-2.65365">
        <ele>60</ele>
        <time>2019-03-01T10:23:41Z</time>
      </trkpt>
      <trkpt lat="48.5118" lon="-2.65371">
        <ele>60</ele>
        <time>2019-03-01T10:23:45Z</time>
      </trkpt>
      <trkpt lat="48.5118" lon="-2.65373">
        <ele>60</ele>
        <time>2019-03-01T10:23:49Z</time>
      </trkpt>
      <trkpt lat="48.5118" lon="-2.65375">
        <ele>60</ele>
        <time>2019-03-01T10:23:52Z</time>
      </trkpt>
      <trkpt lat="48.5118" lon="-2.65378">
        <ele>60</ele>
        <time>2019-03-01T10:23:55Z</time>
      </trkpt>
      <trkpt lat="48.51182" lon="-2.65384">
        <ele>60</ele>
        <time>2019-03-01T10:23:59Z</time>
      </trkpt>
      <trkpt lat="48.51181" lon="-2.6539">
        <ele>60</ele>
        <time>2019-03-01T10:24:02Z</time>
      </trkpt>
      <trkpt lat="48.51183" lon="-2.65396">
        <ele>60</ele>
        <time>2019-03-01T10:24:05Z</time>
      </trkpt>
      <trkpt lat="48.51183" lon="-2.65406">
        <ele>60</ele>
        <time>2019-03-01T10:24:10Z</time>
      </trkpt>
      <trkpt lat="48.51184" lon="-2.65415">
        <ele>59</ele>
        <time>2019-03-01T10:24:14Z</time>
      </trkpt>
      <trkpt lat="48.51185" lon="-2.65421">
        <ele>59</ele>
        <time>2019-03-01T10:24:17Z</time>
      </trkpt>
      <trkpt lat="48.51185" lon="-2.65427">
        <ele>58</ele>
        <time>2019-03-01T10:24:20Z</time>
      </trkpt>
      <trkpt lat="48.51186" lon="-2.65436">
        <ele>58</ele>
        <time>2019-03-01T10:24:24Z</time>
      </trkpt>
      <trkpt lat="48.51186" lon="-2.65442">
        <ele>58</ele>
        <time>2019-03-01T10:24:27Z</time>
      </trkpt>
      <trkpt lat="48.51187" lon="-2.65448">
        <ele>58</ele>
        <time>2019-03-01T10:24:30Z</time>
      </trkpt>
      <trkpt lat="48.51189" lon="-2.65457">
        <ele>58</ele>
        <time>2019-03-01T10:24:34Z</time>
      </trkpt>
      <trkpt lat="48.51189" lon="-2.65463">
        <ele>57</ele>
        <time>2019-03-01T10:24:37Z</time>
      </trkpt>
      <trkpt lat="48.51189" lon="-2.6547">
        <ele>57</ele>
        <time>2019-03-01T10:24:40Z</time>
      </trkpt>
      <trkpt lat="48.5119" lon="-2.65479">
        <ele>57</ele>
        <time>2019-03-01T10:24:44Z</time>
      </trkpt>
      <trkpt lat="48.5119" lon="-2.65485">
        <ele>56</ele>
        <time>2019-03-01T10:24:47Z</time>
      </trkpt>
      <trkpt lat="48.51191" lon="-2.65491">
        <ele>56</ele>
        <time>2019-03-01T10:24:50Z</time>
      </trkpt>
      <trkpt lat="48.51192" lon="-2.65499">
        <ele>56</ele>
        <time>2019-03-01T10:24:54Z</time>
      </trkpt>
      <trkpt lat="48.51192" lon="-2.65506">
        <ele>55</ele>
        <time>2019-03-01T10:24:57Z</time>
      </trkpt>
      <trkpt lat="48.51193" lon="-2.65512">
        <ele>54</ele>
        <time>2019-03-01T10:25:00Z</time>
      </trkpt>
      <trkpt lat="48.51192" lon="-2.65516">
        <ele>52</ele>
        <time>2019-03-01T10:25:03Z</time>
      </trkpt>
      <trkpt lat="48.51192" lon="-2.65523">
        <ele>51</ele>
        <time>2019-03-01T10:25:06Z</time>
      </trkpt>
      <trkpt lat="48.51194" lon="-2.65529">
        <ele>50</ele>
        <time>2019-03-01T10:25:09Z</time>
      </trkpt>
      <trkpt lat="48.51194" lon="-2.65536">
        <ele>49</ele>
        <time>2019-03-01T10:25:12Z</time>
      </trkpt>
      <trkpt lat="48.51195" lon="-2.65543">
        <ele>49</ele>
        <time>2019-03-01T10:25:15Z</time>
      </trkpt>
      <trkpt lat="48.51195" lon="-2.65549">
        <ele>49</ele>
        <time>2019-03-01T10:25:18Z</time>
      </trkpt>
      <trkpt lat="48.51196" lon="-2.65556">
        <ele>49</ele>
        <time>2019-03-01T10:25:21Z</time>
      </trkpt>
      <trkpt lat="48.51196" lon="-2.65563">
        <ele>49</ele>
        <time>2019-03-01T10:25:24Z</time>
      </trkpt>
      <trkpt lat="48.51197" lon="-2.65569">
        <ele>48</ele>
        <time>2019-03-01T10:25:27Z</time>
      </trkpt>
      <trkpt lat="48.51198" lon="-2.65576">
        <ele>48</ele>
        <time>2019-03-01T10:25:30Z</time>
      </trkpt>
      <trkpt lat="48.512" lon="-2.65582">
        <ele>48</ele>
        <time>2019-03-01T10:25:33Z</time>
      </trkpt>
      <trkpt lat="48.51201" lon="-2.65589">
        <ele>48</ele>
        <time>2019-03-01T10:25:36Z</time>
      </trkpt>
      <trkpt lat="48.51202" lon="-2.65596">
        <ele>48</ele>
        <time>2019-03-01T10:25:40Z</time>
      </trkpt>
      <trkpt lat="48.51203" lon="-2.65602">
        <ele>48</ele>
        <time>2019-03-01T10:25:43Z</time>
      </trkpt>
      <trkpt lat="48.51205" lon="-2.65609">
        <ele>48</ele>
        <time>2019-03-01T10:25:46Z</time>
      </trkpt>
      <trkpt lat="48.51207" lon="-2.65615">
        <ele>48</ele>
        <time>2019-03-01T10:25:49Z</time>
      </trkpt>
      <trkpt lat="48.51208" lon="-2.65622">
        <ele>47</ele>
        <time>2019-03-01T10:25:52Z</time>
      </trkpt>
      <trkpt lat="48.51209" lon="-2.65629">
        <ele>46</ele>
        <time>2019-03-01T10:25:55Z</time>
      </trkpt>
      <trkpt lat="48.51211" lon="-2.65635">
        <ele>45</ele>
        <time>2019-03-01T10:25:58Z</time>
      </trkpt>
      <trkpt lat="48.51212" lon="-2.65642">
        <ele>43</ele>
        <time>2019-03-01T10:26:01Z</time>
      </trkpt>
      <trkpt lat="48.51212" lon="-2.65648">
        <ele>42</ele>
        <time>2019-03-01T10:26:04Z</time>
      </trkpt>
      <trkpt lat="48.51213" lon="-2.65654">
        <ele>41</ele>
        <time>2019-03-01T10:26:07Z</time>
      </trkpt>
      <trkpt lat="48.51214" lon="-2.65661">
        <ele>41</ele>
        <time>2019-03-01T10:26:10Z</time>
      </trkpt>
      <trkpt lat="48.51216" lon="-2.65666">
        <ele>41</ele>
        <time>2019-03-01T10:26:13Z</time>
      </trkpt>
      <trkpt lat="48.51217" lon="-2.65672">
        <ele>39</ele>
        <time>2019-03-01T10:26:16Z</time>
      </trkpt>
      <trkpt lat="48.51218" lon="-2.65678">
        <ele>37</ele>
        <time>2019-03-01T10:26:19Z</time>
      </trkpt>
      <trkpt lat="48.5122" lon="-2.65685">
        <ele>34</ele>
        <time>2019-03-01T10:26:23Z</time>
      </trkpt>
      <trkpt lat="48.51221" lon="-2.6569">
        <ele>33</ele>
        <time>2019-03-01T10:26:26Z</time>
      </trkpt>
      <trkpt lat="48.5122" lon="-2.65692">
        <ele>33</ele>
        <time>2019-03-01T10:26:30Z</time>
      </trkpt>
      <trkpt lat="48.51219" lon="-2.65693">
        <ele>32</ele>
        <time>2019-03-01T10:26:33Z</time>
      </trkpt>
      <trkpt lat="48.51217" lon="-2.65697">
        <ele>30</ele>
        <time>2019-03-01T10:26:39Z</time>
      </trkpt>
      <trkpt lat="48.51219" lon="-2.65701">
        <ele>30</ele>
        <time>2019-03-01T10:26:43Z</time>
      </trkpt>
      <trkpt lat="48.51218" lon="-2.65703">
        <ele>30</ele>
        <time>2019-03-01T10:26:49Z</time>
      </trkpt>
      <trkpt lat="48.51221" lon="-2.65706">
        <ele>31</ele>
        <time>2019-03-01T10:26:53Z</time>
      </trkpt>
      <trkpt lat="48.51222" lon="-2.65705">
        <ele>35</ele>
        <time>2019-03-01T10:26:59Z</time>
      </trkpt>
      <trkpt lat="48.51223" lon="-2.65707">
        <ele>35</ele>
        <time>2019-03-01T10:27:02Z</time>
      </trkpt>
      <trkpt lat="48.51224" lon="-2.65711">
        <ele>35</ele>
        <time>2019-03-01T10:27:06Z</time>
      </trkpt>
      <trkpt lat="48.51225" lon="-2.65716">
        <ele>35</ele>
        <time>2019-03-01T10:27:09Z</time>
      </trkpt>
      <trkpt lat="48.51226" lon="-2.65722">
        <ele>35</ele>
        <time>2019-03-01T10:27:12Z</time>
      </trkpt>
      <trkpt lat="48.51226" lon="-2.65729">
        <ele>35</ele>
        <time>2019-03-01T10:27:16Z</time>
      </trkpt>
      <trkpt lat="48.51228" lon="-2.65736">
        <ele>35</ele>
        <time>2019-03-01T10:27:20Z</time>
      </trkpt>
      <trkpt lat="48.51229" lon="-2.65742">
        <ele>35</ele>
        <time>2019-03-01T10:27:23Z</time>
      </trkpt>
      <trkpt lat="48.51231" lon="-2.65747">
        <ele>35</ele>
        <time>2019-03-01T10:27:26Z</time>
      </trkpt>
      <trkpt lat="48.51233" lon="-2.65753">
        <ele>35</ele>
        <time>2019-03-01T10:27:29Z</time>
      </trkpt>
      <trkpt lat="48.51234" lon="-2.65758">
        <ele>35</ele>
        <time>2019-03-01T10:27:32Z</time>
      </trkpt>
      <trkpt lat="48.51234" lon="-2.65762">
        <ele>35</ele>
        <time>2019-03-01T10:27:35Z</time>
      </trkpt>
      <trkpt lat="48.51236" lon="-2.65767">
        <ele>35</ele>
        <time>2019-03-01T10:27:38Z</time>
      </trkpt>
      <trkpt lat="48.51237" lon="-2.65772">
        <ele>35</ele>
        <time>2019-03-01T10:27:41Z</time>
      </trkpt>
      <trkpt lat="48.51237" lon="-2.65777">
        <ele>35</ele>
        <time>2019-03-01T10:27:44Z</time>
      </trkpt>
      <trkpt lat="48.51237" lon="-2.65782">
        <ele>35</ele>
        <time>2019-03-01T10:27:47Z</time>
      </trkpt>
      <trkpt lat="48.51239" lon="-2.65788">
        <ele>35</ele>
        <time>2019-03-01T10:27:50Z</time>
      </trkpt>
      <trkpt lat="48.5124" lon="-2.65794">
        <ele>35</ele>
        <time>2019-03-01T10:27:53Z</time>
      </trkpt>
      <trkpt lat="48.51241" lon="-2.65799">
        <ele>35</ele>
        <time>2019-03-01T10:27:56Z</time>
      </trkpt>
      <trkpt lat="48.51242" lon="-2.65805">
        <ele>35</ele>
        <time>2019-03-01T10:27:59Z</time>
      </trkpt>
      <trkpt lat="48.51243" lon="-2.65811">
        <ele>35</ele>
        <time>2019-03-01T10:28:02Z</time>
      </trkpt>
      <trkpt lat="48.51244" lon="-2.65816">
        <ele>35</ele>
        <time>2019-03-01T10:28:05Z</time>
      </trkpt>
      <trkpt lat="48.51244" lon="-2.65822">
        <ele>35</ele>
        <time>2019-03-01T10:28:08Z</time>
      </trkpt>
      <trkpt lat="48.51247" lon="-2.65829">
        <ele>35</ele>
        <time>2019-03-01T10:28:11Z</time>
      </trkpt>
      <trkpt lat="48.51247" lon="-2.65836">
        <ele>35</ele>
        <time>2019-03-01T10:28:14Z</time>
      </trkpt>
      <trkpt lat="48.51248" lon="-2.65841">
        <ele>35</ele>
        <time>2019-03-01T10:28:17Z</time>
      </trkpt>
      <trkpt lat="48.51248" lon="-2.65848">
        <ele>35</ele>
        <time>2019-03-01T10:28:20Z</time>
      </trkpt>
      <trkpt lat="48.51249" lon="-2.65854">
        <ele>35</ele>
        <time>2019-03-01T10:28:23Z</time>
      </trkpt>
      <trkpt lat="48.51248" lon="-2.6586">
        <ele>35</ele>
        <time>2019-03-01T10:28:26Z</time>
      </trkpt>
      <trkpt lat="48.51249" lon="-2.65866">
        <ele>35</ele>
        <time>2019-03-01T10:28:29Z</time>
      </trkpt>
      <trkpt lat="48.5125" lon="-2.65873">
        <ele>35</ele>
        <time>2019-03-01T10:28:32Z</time>
      </trkpt>
      <trkpt lat="48.51249" lon="-2.65879">
        <ele>35</ele>
        <time>2019-03-01T10:28:35Z</time>
      </trkpt>
      <trkpt lat="48.5125" lon="-2.65886">
        <ele>35</ele>
        <time>2019-03-01T10:28:38Z</time>
      </trkpt>
      <trkpt lat="48.51251" lon="-2.65893">
        <ele>35</ele>
        <time>2019-03-01T10:28:41Z</time>
      </trkpt>
      <trkpt lat="48.51251" lon="-2.659">
        <ele>35</ele>
        <time>2019-03-01T10:28:44Z</time>
      </trkpt>
      <trkpt lat="48.51252" lon="-2.65907">
        <ele>35</ele>
        <time>2019-03-01T10:28:47Z</time>
      </trkpt>
      <trkpt lat="48.51253" lon="-2.65914">
        <ele>35</ele>
        <time>2019-03-01T10:28:50Z</time>
      </trkpt>
      <trkpt lat="48.51254" lon="-2.6592">
        <ele>35</ele>
        <time>2019-03-01T10:28:53Z</time>
      </trkpt>
      <trkpt lat="48.51254" lon="-2.65926">
        <ele>35</ele>
        <time>2019-03-01T10:28:56Z</time>
      </trkpt>
      <trkpt lat="48.51255" lon="-2.65933">
        <ele>35</ele>
        <time>2019-03-01T10:28:59Z</time>
      </trkpt>
      <trkpt lat="48.51256" lon="-2.65939">
        <ele>35</ele>
        <time>2019-03-01T10:29:02Z</time>
      </trkpt>
      <trkpt lat="48.51257" lon="-2.65946">
        <ele>35</ele>
        <time>2019-03-01T10:29:05Z</time>
      </trkpt>
      <trkpt lat="48.51257" lon="-2.65951">
        <ele>35</ele>
        <time>2019-03-01T10:29:08Z</time>
      </trkpt>
      <trkpt lat="48.51257" lon="-2.65957">
        <ele>35</ele>
        <time>2019-03-01T10:29:11Z</time>
      </trkpt>
      <trkpt lat="48.51258" lon="-2.65964">
        <ele>35</ele>
        <time>2019-03-01T10:29:14Z</time>
      </trkpt>
      <trkpt lat="48.51259" lon="-2.65969">
        <ele>35</ele>
        <time>2019-03-01T10:29:17Z</time>
      </trkpt>
      <trkpt lat="48.5126" lon="-2.65975">
        <ele>35</ele>
        <time>2019-03-01T10:29:20Z</time>
      </trkpt>
      <trkpt lat="48.5126" lon="-2.65981">
        <ele>35</ele>
        <time>2019-03-01T10:29:23Z</time>
      </trkpt>
      <trkpt lat="48.51262" lon="-2.65987">
        <ele>35</ele>
        <time>2019-03-01T10:29:26Z</time>
      </trkpt>
      <trkpt lat="48.51263" lon="-2.65993">
        <ele>34</ele>
        <time>2019-03-01T10:29:29Z</time>
      </trkpt>
      <trkpt lat="48.51264" lon="-2.65999">
        <ele>34</ele>
        <time>2019-03-01T10:29:32Z</time>
      </trkpt>
      <trkpt lat="48.51265" lon="-2.66005">
        <ele>33</ele>
        <time>2019-03-01T10:29:35Z</time>
      </trkpt>
      <trkpt lat="48.51266" lon="-2.66011">
        <ele>33</ele>
        <time>2019-03-01T10:29:38Z</time>
      </trkpt>
      <trkpt lat="48.51269" lon="-2.66018">
        <ele>33</ele>
        <time>2019-03-01T10:29:42Z</time>
      </trkpt>
      <trkpt lat="48.51271" lon="-2.66023">
        <ele>33</ele>
        <time>2019-03-01T10:29:45Z</time>
      </trkpt>
      <trkpt lat="48.51272" lon="-2.66029">
        <ele>33</ele>
        <time>2019-03-01T10:29:48Z</time>
      </trkpt>
      <trkpt lat="48.51274" lon="-2.66034">
        <ele>33</ele>
        <time>2019-03-01T10:29:51Z</time>
      </trkpt>
      <trkpt lat="48.51276" lon="-2.6604">
        <ele>32</ele>
        <time>2019-03-01T10:29:54Z</time>
      </trkpt>
      <trkpt lat="48.51278" lon="-2.66046">
        <ele>32</ele>
        <time>2019-03-01T10:29:57Z</time>
      </trkpt>
      <trkpt lat="48.5128" lon="-2.66053">
        <ele>32</ele>
        <time>2019-03-01T10:30:01Z</time>
      </trkpt>
      <trkpt lat="48.51282" lon="-2.66058">
        <ele>32</ele>
        <time>2019-03-01T10:30:04Z</time>
      </trkpt>
      <trkpt lat="48.51285" lon="-2.66063">
        <ele>32</ele>
        <time>2019-03-01T10:30:07Z</time>
      </trkpt>
      <trkpt lat="48.51287" lon="-2.66069">
        <ele>32</ele>
        <time>2019-03-01T10:30:10Z</time>
      </trkpt>
      <trkpt lat="48.5129" lon="-2.66075">
        <ele>32</ele>
        <time>2019-03-01T10:30:13Z</time>
      </trkpt>
      <trkpt lat="48.51292" lon="-2.6608">
        <ele>32</ele>
        <time>2019-03-01T10:30:16Z</time>
      </trkpt>
      <trkpt lat="48.51294" lon="-2.66088">
        <ele>30</ele>
        <time>2019-03-01T10:30:20Z</time>
      </trkpt>
      <trkpt lat="48.51297" lon="-2.66093">
        <ele>30</ele>
        <time>2019-03-01T10:30:23Z</time>
      </trkpt>
      <trkpt lat="48.51299" lon="-2.66097">
        <ele>30</ele>
        <time>2019-03-01T10:30:26Z</time>
      </trkpt>
      <trkpt lat="48.513" lon="-2.66103">
        <ele>30</ele>
        <time>2019-03-01T10:30:29Z</time>
      </trkpt>
      <trkpt lat="48.51302" lon="-2.66109">
        <ele>30</ele>
        <time>2019-03-01T10:30:32Z</time>
      </trkpt>
      <trkpt lat="48.51305" lon="-2.66115">
        <ele>29</ele>
        <time>2019-03-01T10:30:35Z</time>
      </trkpt>
      <trkpt lat="48.51307" lon="-2.66122">
        <ele>29</ele>
        <time>2019-03-01T10:30:38Z</time>
      </trkpt>
      <trkpt lat="48.51309" lon="-2.66128">
        <ele>29</ele>
        <time>2019-03-01T10:30:41Z</time>
      </trkpt>
      <trkpt lat="48.5131" lon="-2.66133">
        <ele>29</ele>
        <time>2019-03-01T10:30:44Z</time>
      </trkpt>
      <trkpt lat="48.51313" lon="-2.66139">
        <ele>29</ele>
        <time>2019-03-01T10:30:47Z</time>
      </trkpt>
      <trkpt lat="48.51314" lon="-2.66145">
        <ele>29</ele>
        <time>2019-03-01T10:30:50Z</time>
      </trkpt>
      <trkpt lat="48.51316" lon="-2.66151">
        <ele>29</ele>
        <time>2019-03-01T10:30:53Z</time>
      </trkpt>
      <trkpt lat="48.51318" lon="-2.66157">
        <ele>29</ele>
        <time>2019-03-01T10:30:56Z</time>
      </trkpt>
      <trkpt lat="48.5132" lon="-2.66162">
        <ele>29</ele>
        <time>2019-03-01T10:30:59Z</time>
      </trkpt>
      <trkpt lat="48.51323" lon="-2.66168">
        <ele>29</ele>
        <time>2019-03-01T10:31:02Z</time>
      </trkpt>
      <trkpt lat="48.51324" lon="-2.66174">
        <ele>28</ele>
        <time>2019-03-01T10:31:05Z</time>
      </trkpt>
      <trkpt lat="48.51325" lon="-2.66179">
        <ele>28</ele>
        <time>2019-03-01T10:31:08Z</time>
      </trkpt>
      <trkpt lat="48.51326" lon="-2.66185">
        <ele>27</ele>
        <time>2019-03-01T10:31:11Z</time>
      </trkpt>
      <trkpt lat="48.51327" lon="-2.66191">
        <ele>27</ele>
        <time>2019-03-01T10:31:14Z</time>
      </trkpt>
      <trkpt lat="48.51329" lon="-2.66196">
        <ele>27</ele>
        <time>2019-03-01T10:31:17Z</time>
      </trkpt>
      <trkpt lat="48.51333" lon="-2.66202">
        <ele>26</ele>
        <time>2019-03-01T10:31:20Z</time>
      </trkpt>
      <trkpt lat="48.51334" lon="-2.66208">
        <ele>26</ele>
        <time>2019-03-01T10:31:24Z</time>
      </trkpt>
      <trkpt lat="48.51334" lon="-2.66214">
        <ele>25</ele>
        <time>2019-03-01T10:31:27Z</time>
      </trkpt>
      <trkpt lat="48.51337" lon="-2.66221">
        <ele>25</ele>
        <time>2019-03-01T10:31:30Z</time>
      </trkpt>
      <trkpt lat="48.51337" lon="-2.66228">
        <ele>24</ele>
        <time>2019-03-01T10:31:34Z</time>
      </trkpt>
      <trkpt lat="48.51335" lon="-2.66236">
        <ele>24</ele>
        <time>2019-03-01T10:31:38Z</time>
      </trkpt>
      <trkpt lat="48.51335" lon="-2.66242">
        <ele>24</ele>
        <time>2019-03-01T10:31:41Z</time>
      </trkpt>
      <trkpt lat="48.51335" lon="-2.66248">
        <ele>24</ele>
        <time>2019-03-01T10:31:44Z</time>
      </trkpt>
      <trkpt lat="48.51335" lon="-2.66254">
        <ele>24</ele>
        <time>2019-03-01T10:31:47Z</time>
      </trkpt>
      <trkpt lat="48.51334" lon="-2.66261">
        <ele>24</ele>
        <time>2019-03-01T10:31:50Z</time>
      </trkpt>
      <trkpt lat="48.51334" lon="-2.66267">
        <ele>24</ele>
        <time>2019-03-01T10:31:53Z</time>
      </trkpt>
      <trkpt lat="48.51334" lon="-2.66274">
        <ele>24</ele>
        <time>2019-03-01T10:31:56Z</time>
      </trkpt>
      <trkpt lat="48.51336" lon="-2.66281">
        <ele>24</ele>
        <time>2019-03-01T10:31:59Z</time>
      </trkpt>
      <trkpt lat="48.51337" lon="-2.66287">
        <ele>24</ele>
        <time>2019-03-01T10:32:02Z</time>
      </trkpt>
      <trkpt lat="48.51338" lon="-2.66294">
        <ele>24</ele>
        <time>2019-03-01T10:32:05Z</time>
      </trkpt>
      <trkpt lat="48.5134" lon="-2.66301">
        <ele>24</ele>
        <time>2019-03-01T10:32:09Z</time>
      </trkpt>
      <trkpt lat="48.51341" lon="-2.66306">
        <ele>24</ele>
        <time>2019-03-01T10:32:12Z</time>
      </trkpt>
      <trkpt lat="48.51343" lon="-2.66312">
        <ele>24</ele>
        <time>2019-03-01T10:32:16Z</time>
      </trkpt>
      <trkpt lat="48.51347" lon="-2.66318">
        <ele>24</ele>
        <time>2019-03-01T10:32:20Z</time>
      </trkpt>
      <trkpt lat="48.5135" lon="-2.6632">
        <ele>26</ele>
        <time>2019-03-01T10:32:23Z</time>
      </trkpt>
      <trkpt lat="48.51353" lon="-2.66321">
        <ele>27</ele>
        <time>2019-03-01T10:32:26Z</time>
      </trkpt>
      <trkpt lat="48.51357" lon="-2.66319">
        <ele>27</ele>
        <time>2019-03-01T10:32:30Z</time>
      </trkpt>
      <trkpt lat="48.5136" lon="-2.66319">
        <ele>27</ele>
        <time>2019-03-01T10:32:33Z</time>
      </trkpt>
      <trkpt lat="48.51365" lon="-2.6632">
        <ele>28</ele>
        <time>2019-03-01T10:32:36Z</time>
      </trkpt>
      <trkpt lat="48.51369" lon="-2.66321">
        <ele>30</ele>
        <time>2019-03-01T10:32:39Z</time>
      </trkpt>
      <trkpt lat="48.51373" lon="-2.6632">
        <ele>32</ele>
        <time>2019-03-01T10:32:42Z</time>
      </trkpt>
      <trkpt lat="48.51377" lon="-2.6632">
        <ele>32</ele>
        <time>2019-03-01T10:32:45Z</time>
      </trkpt>
      <trkpt lat="48.5138" lon="-2.6632">
        <ele>33</ele>
        <time>2019-03-01T10:32:48Z</time>
      </trkpt>
      <trkpt lat="48.51384" lon="-2.66321">
        <ele>33</ele>
        <time>2019-03-01T10:32:51Z</time>
      </trkpt>
      <trkpt lat="48.51388" lon="-2.66321">
        <ele>33</ele>
        <time>2019-03-01T10:32:54Z</time>
      </trkpt>
      <trkpt lat="48.51392" lon="-2.66322">
        <ele>33</ele>
        <time>2019-03-01T10:32:57Z</time>
      </trkpt>
      <trkpt lat="48.51396" lon="-2.66323">
        <ele>33</ele>
        <time>2019-03-01T10:33:00Z</time>
      </trkpt>
      <trkpt lat="48.514" lon="-2.66324">
        <ele>35</ele>
        <time>2019-03-01T10:33:03Z</time>
      </trkpt>
      <trkpt lat="48.51406" lon="-2.66324">
        <ele>36</ele>
        <time>2019-03-01T10:33:07Z</time>
      </trkpt>
      <trkpt lat="48.5141" lon="-2.66323">
        <ele>36</ele>
        <time>2019-03-01T10:33:10Z</time>
      </trkpt>
      <trkpt lat="48.51414" lon="-2.66323">
        <ele>36</ele>
        <time>2019-03-01T10:33:13Z</time>
      </trkpt>
      <trkpt lat="48.51418" lon="-2.66323">
        <ele>36</ele>
        <time>2019-03-01T10:33:16Z</time>
      </trkpt>
      <trkpt lat="48.51422" lon="-2.66323">
        <ele>36</ele>
        <time>2019-03-01T10:33:19Z</time>
      </trkpt>
      <trkpt lat="48.51426" lon="-2.66323">
        <ele>36</ele>
        <time>2019-03-01T10:33:22Z</time>
      </trkpt>
      <trkpt lat="48.5143" lon="-2.66324">
        <ele>36</ele>
        <time>2019-03-01T10:33:25Z</time>
      </trkpt>
      <trkpt lat="48.51434" lon="-2.66324">
        <ele>36</ele>
        <time>2019-03-01T10:33:28Z</time>
      </trkpt>
      <trkpt lat="48.51438" lon="-2.66325">
        <ele>37</ele>
        <time>2019-03-01T10:33:31Z</time>
      </trkpt>
      <trkpt lat="48.51442" lon="-2.66326">
        <ele>39</ele>
        <time>2019-03-01T10:33:34Z</time>
      </trkpt>
      <trkpt lat="48.51446" lon="-2.66326">
        <ele>40</ele>
        <time>2019-03-01T10:33:37Z</time>
      </trkpt>
      <trkpt lat="48.5145" lon="-2.66328">
        <ele>40</ele>
        <time>2019-03-01T10:33:40Z</time>
      </trkpt>
      <trkpt lat="48.51455" lon="-2.6633">
        <ele>40</ele>
        <time>2019-03-01T10:33:43Z</time>
      </trkpt>
      <trkpt lat="48.5146" lon="-2.66333">
        <ele>38</ele>
        <time>2019-03-01T10:33:47Z</time>
      </trkpt>
      <trkpt lat="48.51462" lon="-2.66338">
        <ele>35</ele>
        <time>2019-03-01T10:33:50Z</time>
      </trkpt>
      <trkpt lat="48.51463" lon="-2.66345">
        <ele>34</ele>
        <time>2019-03-01T10:33:53Z</time>
      </trkpt>
      <trkpt lat="48.51464" lon="-2.66351">
        <ele>34</ele>
        <time>2019-03-01T10:33:56Z</time>
      </trkpt>
      <trkpt lat="48.51466" lon="-2.66356">
        <ele>34</ele>
        <time>2019-03-01T10:33:59Z</time>
      </trkpt>
      <trkpt lat="48.51467" lon="-2.66362">
        <ele>33</ele>
        <time>2019-03-01T10:34:02Z</time>
      </trkpt>
      <trkpt lat="48.51466" lon="-2.66367">
        <ele>33</ele>
        <time>2019-03-01T10:34:05Z</time>
      </trkpt>
      <trkpt lat="48.51465" lon="-2.66372">
        <ele>33</ele>
        <time>2019-03-01T10:34:08Z</time>
      </trkpt>
      <trkpt lat="48.51464" lon="-2.66378">
        <ele>33</ele>
        <time>2019-03-01T10:34:11Z</time>
      </trkpt>
      <trkpt lat="48.51463" lon="-2.66385">
        <ele>33</ele>
        <time>2019-03-01T10:34:15Z</time>
      </trkpt>
      <trkpt lat="48.51462" lon="-2.6639">
        <ele>33</ele>
        <time>2019-03-01T10:34:18Z</time>
      </trkpt>
      <trkpt lat="48.51461" lon="-2.66396">
        <ele>33</ele>
        <time>2019-03-01T10:34:21Z</time>
      </trkpt>
      <trkpt lat="48.5146" lon="-2.66402">
        <ele>33</ele>
        <time>2019-03-01T10:34:24Z</time>
      </trkpt>
      <trkpt lat="48.5146" lon="-2.66408">
        <ele>33</ele>
        <time>2019-03-01T10:34:27Z</time>
      </trkpt>
      <trkpt lat="48.51459" lon="-2.66416">
        <ele>33</ele>
        <time>2019-03-01T10:34:31Z</time>
      </trkpt>
      <trkpt lat="48.51456" lon="-2.66423">
        <ele>33</ele>
        <time>2019-03-01T10:34:35Z</time>
      </trkpt>
      <trkpt lat="48.51455" lon="-2.66428">
        <ele>33</ele>
        <time>2019-03-01T10:34:38Z</time>
      </trkpt>
      <trkpt lat="48.51454" lon="-2.66435">
        <ele>33</ele>
        <time>2019-03-01T10:34:41Z</time>
      </trkpt>
      <trkpt lat="48.51453" lon="-2.66442">
        <ele>33</ele>
        <time>2019-03-01T10:34:44Z</time>
      </trkpt>
      <trkpt lat="48.51453" lon="-2.6645">
        <ele>33</ele>
        <time>2019-03-01T10:34:47Z</time>
      </trkpt>
      <trkpt lat="48.51451" lon="-2.66457">
        <ele>33</ele>
        <time>2019-03-01T10:34:50Z</time>
      </trkpt>
      <trkpt lat="48.51452" lon="-2.66464">
        <ele>33</ele>
        <time>2019-03-01T10:34:53Z</time>
      </trkpt>
      <trkpt lat="48.51452" lon="-2.6647">
        <ele>33</ele>
        <time>2019-03-01T10:34:56Z</time>
      </trkpt>
      <trkpt lat="48.51449" lon="-2.66475">
        <ele>33</ele>
        <time>2019-03-01T10:34:59Z</time>
      </trkpt>
      <trkpt lat="48.51448" lon="-2.66482">
        <ele>33</ele>
        <time>2019-03-01T10:35:02Z</time>
      </trkpt>
      <trkpt lat="48.51447" lon="-2.66489">
        <ele>33</ele>
        <time>2019-03-01T10:35:05Z</time>
      </trkpt>
      <trkpt lat="48.51445" lon="-2.66495">
        <ele>33</ele>
        <time>2019-03-01T10:35:08Z</time>
      </trkpt>
      <trkpt lat="48.51442" lon="-2.66502">
        <ele>31</ele>
        <time>2019-03-01T10:35:12Z</time>
      </trkpt>
      <trkpt lat="48.51442" lon="-2.66509">
        <ele>29</ele>
        <time>2019-03-01T10:35:15Z</time>
      </trkpt>
      <trkpt lat="48.51444" lon="-2.66515">
        <ele>29</ele>
        <time>2019-03-01T10:35:18Z</time>
      </trkpt>
      <trkpt lat="48.51442" lon="-2.66521">
        <ele>27</ele>
        <time>2019-03-01T10:35:21Z</time>
      </trkpt>
      <trkpt lat="48.51442" lon="-2.66529">
        <ele>26</ele>
        <time>2019-03-01T10:35:24Z</time>
      </trkpt>
      <trkpt lat="48.51442" lon="-2.66537">
        <ele>26</ele>
        <time>2019-03-01T10:35:27Z</time>
      </trkpt>
      <trkpt lat="48.51442" lon="-2.66543">
        <ele>26</ele>
        <time>2019-03-01T10:35:30Z</time>
      </trkpt>
      <trkpt lat="48.51443" lon="-2.66549">
        <ele>26</ele>
        <time>2019-03-01T10:35:33Z</time>
      </trkpt>
      <trkpt lat="48.51441" lon="-2.66553">
        <ele>26</ele>
        <time>2019-03-01T10:35:38Z</time>
      </trkpt>
      <trkpt lat="48.51442" lon="-2.66558">
        <ele>26</ele>
        <time>2019-03-01T10:35:41Z</time>
      </trkpt>
      <trkpt lat="48.5144" lon="-2.66563">
        <ele>26</ele>
        <time>2019-03-01T10:35:44Z</time>
      </trkpt>
      <trkpt lat="48.51439" lon="-2.66567">
        <ele>26</ele>
        <time>2019-03-01T10:35:47Z</time>
      </trkpt>
      <trkpt lat="48.51438" lon="-2.66572">
        <ele>26</ele>
        <time>2019-03-01T10:35:50Z</time>
      </trkpt>
      <trkpt lat="48.51437" lon="-2.66578">
        <ele>26</ele>
        <time>2019-03-01T10:35:53Z</time>
      </trkpt>
      <trkpt lat="48.51436" lon="-2.66584">
        <ele>26</ele>
        <time>2019-03-01T10:35:56Z</time>
      </trkpt>
      <trkpt lat="48.51434" lon="-2.66589">
        <ele>26</ele>
        <time>2019-03-01T10:35:59Z</time>
      </trkpt>
      <trkpt lat="48.51433" lon="-2.66594">
        <ele>26</ele>
        <time>2019-03-01T10:36:02Z</time>
      </trkpt>
      <trkpt lat="48.51432" lon="-2.666">
        <ele>26</ele>
        <time>2019-03-01T10:36:06Z</time>
      </trkpt>
      <trkpt lat="48.51431" lon="-2.66604">
        <ele>26</ele>
        <time>2019-03-01T10:36:09Z</time>
      </trkpt>
      <trkpt lat="48.51431" lon="-2.66609">
        <ele>26</ele>
        <time>2019-03-01T10:36:12Z</time>
      </trkpt>
      <trkpt lat="48.51431" lon="-2.66616">
        <ele>26</ele>
        <time>2019-03-01T10:36:15Z</time>
      </trkpt>
      <trkpt lat="48.51431" lon="-2.66624">
        <ele>26</ele>
        <time>2019-03-01T10:36:18Z</time>
      </trkpt>
      <trkpt lat="48.51431" lon="-2.6663">
        <ele>26</ele>
        <time>2019-03-01T10:36:21Z</time>
      </trkpt>
      <trkpt lat="48.5143" lon="-2.66635">
        <ele>26</ele>
        <time>2019-03-01T10:36:24Z</time>
      </trkpt>
      <trkpt lat="48.51429" lon="-2.66639">
        <ele>26</ele>
        <time>2019-03-01T10:36:27Z</time>
      </trkpt>
      <trkpt lat="48.51429" lon="-2.66645">
        <ele>26</ele>
        <time>2019-03-01T10:36:30Z</time>
      </trkpt>
      <trkpt lat="48.51427" lon="-2.6665">
        <ele>26</ele>
        <time>2019-03-01T10:36:33Z</time>
      </trkpt>
      <trkpt lat="48.51426" lon="-2.66656">
        <ele>26</ele>
        <time>2019-03-01T10:36:36Z</time>
      </trkpt>
      <trkpt lat="48.51424" lon="-2.6666">
        <ele>27</ele>
        <time>2019-03-01T10:36:39Z</time>
      </trkpt>
      <trkpt lat="48.51422" lon="-2.66665">
        <ele>28</ele>
        <time>2019-03-01T10:36:42Z</time>
      </trkpt>
      <trkpt lat="48.5142" lon="-2.66672">
        <ele>28</ele>
        <time>2019-03-01T10:36:45Z</time>
      </trkpt>
      <trkpt lat="48.51419" lon="-2.66679">
        <ele>28</ele>
        <time>2019-03-01T10:36:48Z</time>
      </trkpt>
      <trkpt lat="48.51418" lon="-2.66684">
        <ele>28</ele>
        <time>2019-03-01T10:36:51Z</time>
      </trkpt>
      <trkpt lat="48.51418" lon="-2.66689">
        <ele>28</ele>
        <time>2019-03-01T10:36:54Z</time>
      </trkpt>
      <trkpt lat="48.51418" lon="-2.66694">
        <ele>28</ele>
        <time>2019-03-01T10:36:57Z</time>
      </trkpt>
      <trkpt lat="48.5142" lon="-2.667">
        <ele>28</ele>
        <time>2019-03-01T10:37:00Z</time>
      </trkpt>
      <trkpt lat="48.51422" lon="-2.66705">
        <ele>28</ele>
        <time>2019-03-01T10:37:03Z</time>
      </trkpt>
      <trkpt lat="48.51424" lon="-2.66709">
        <ele>28</ele>
        <time>2019-03-01T10:37:06Z</time>
      </trkpt>
      <trkpt lat="48.51429" lon="-2.66713">
        <ele>28</ele>
        <time>2019-03-01T10:37:09Z</time>
      </trkpt>
      <trkpt lat="48.51433" lon="-2.66718">
        <ele>28</ele>
        <time>2019-03-01T10:37:13Z</time>
      </trkpt>
      <trkpt lat="48.51438" lon="-2.66722">
        <ele>28</ele>
        <time>2019-03-01T10:37:17Z</time>
      </trkpt>
      <trkpt lat="48.51441" lon="-2.66725">
        <ele>28</ele>
        <time>2019-03-01T10:37:21Z</time>
      </trkpt>
      <trkpt lat="48.51445" lon="-2.66729">
        <ele>28</ele>
        <time>2019-03-01T10:37:25Z</time>
      </trkpt>
    </trkseg>
  </trk>
</gpx>